<?xml version="1.0" encoding="UTF-8" standalone="no" ?>
<gpx xmlns="http://www.topografix.com/GPX/1/1" xmlns:xsi="http://www.w3.org/2001/XMLSchema-instance" xsi:schemaLocation="http://www.topografix.com/GPX/1/1 http://www.topografix.com/GPX/1/1/gpx.xsd" version="1.1" creator="VisuGPX - https://www.visugpx.com">
  <metadata>
    <name>GTPR 2019</name>
  </metadata>
  <trk>
    <name><![CDATA[20190510164004-MpfnD]]></name>
    <trkseg>
      <trkpt lat="44.92122" lon="5.63633">
        <ele>806</ele>
        <time>2019-05-04T15:50:55Z</time>
      </trkpt>
      <trkpt lat="44.92186" lon="5.63547">
        <ele>806</ele>
        <time>2019-05-04T15:51:55Z</time>
      </trkpt>
      <trkpt lat="44.92337" lon="5.63473">
        <ele>825</ele>
        <time>2019-05-04T15:52:55Z</time>
      </trkpt>
      <trkpt lat="44.92567" lon="5.6348">
        <ele>825</ele>
        <time>2019-05-04T15:53:55Z</time>
      </trkpt>
      <trkpt lat="44.92702" lon="5.63513">
        <ele>818</ele>
        <time>2019-05-04T15:54:55Z</time>
      </trkpt>
      <trkpt lat="44.92836" lon="5.63529">
        <ele>815</ele>
        <time>2019-05-04T15:55:55Z</time>
      </trkpt>
      <trkpt lat="44.92988" lon="5.63409">
        <ele>815</ele>
        <time>2019-05-04T15:56:55Z</time>
      </trkpt>
      <trkpt lat="44.92916" lon="5.63233">
        <ele>811</ele>
        <time>2019-05-04T15:57:55Z</time>
      </trkpt>
      <trkpt lat="44.9286" lon="5.62975">
        <ele>815</ele>
        <time>2019-05-04T15:58:55Z</time>
      </trkpt>
      <trkpt lat="44.92937" lon="5.62865">
        <ele>809</ele>
        <time>2019-05-04T15:59:55Z</time>
      </trkpt>
      <trkpt lat="44.93129" lon="5.62281">
        <ele>808</ele>
        <time>2019-05-04T16:00:55Z</time>
      </trkpt>
      <trkpt lat="44.93125" lon="5.6212">
        <ele>813</ele>
        <time>2019-05-04T16:01:55Z</time>
      </trkpt>
      <trkpt lat="44.93324" lon="5.61987">
        <ele>821</ele>
        <time>2019-05-04T16:02:55Z</time>
      </trkpt>
      <trkpt lat="44.93434" lon="5.62008">
        <ele>821</ele>
        <time>2019-05-04T16:03:55Z</time>
      </trkpt>
      <trkpt lat="44.93418" lon="5.61888">
        <ele>830</ele>
        <time>2019-05-04T16:04:55Z</time>
      </trkpt>
      <trkpt lat="44.93412" lon="5.61536">
        <ele>843</ele>
        <time>2019-05-04T16:05:55Z</time>
      </trkpt>
      <trkpt lat="44.93481" lon="5.61321">
        <ele>841</ele>
        <time>2019-05-04T16:06:55Z</time>
      </trkpt>
      <trkpt lat="44.93571" lon="5.61158">
        <ele>848</ele>
        <time>2019-05-04T16:07:55Z</time>
      </trkpt>
      <trkpt lat="44.93681" lon="5.61013">
        <ele>847</ele>
        <time>2019-05-04T16:08:55Z</time>
      </trkpt>
      <trkpt lat="44.9384" lon="5.60923">
        <ele>845</ele>
        <time>2019-05-04T16:09:55Z</time>
      </trkpt>
      <trkpt lat="44.93978" lon="5.60893">
        <ele>841</ele>
        <time>2019-05-04T16:10:55Z</time>
      </trkpt>
      <trkpt lat="44.94187" lon="5.60765">
        <ele>836</ele>
        <time>2019-05-04T16:11:55Z</time>
      </trkpt>
      <trkpt lat="44.94306" lon="5.60643">
        <ele>839</ele>
        <time>2019-05-04T16:12:55Z</time>
      </trkpt>
      <trkpt lat="44.94487" lon="5.60638">
        <ele>838</ele>
        <time>2019-05-04T16:13:55Z</time>
      </trkpt>
      <trkpt lat="44.94637" lon="5.6049">
        <ele>839</ele>
        <time>2019-05-04T16:14:55Z</time>
      </trkpt>
      <trkpt lat="44.94725" lon="5.6037">
        <ele>842</ele>
        <time>2019-05-04T16:15:55Z</time>
      </trkpt>
      <trkpt lat="44.94803" lon="5.60229">
        <ele>845</ele>
        <time>2019-05-04T16:16:55Z</time>
      </trkpt>
      <trkpt lat="44.94792" lon="5.60012">
        <ele>856</ele>
        <time>2019-05-04T16:17:55Z</time>
      </trkpt>
      <trkpt lat="44.94812" lon="5.59831">
        <ele>866</ele>
        <time>2019-05-04T16:18:55Z</time>
      </trkpt>
      <trkpt lat="44.94776" lon="5.59755">
        <ele>877</ele>
        <time>2019-05-04T16:19:55Z</time>
      </trkpt>
      <trkpt lat="44.94798" lon="5.59653">
        <ele>876</ele>
        <time>2019-05-04T16:20:55Z</time>
      </trkpt>
      <trkpt lat="44.94792" lon="5.59466">
        <ele>889</ele>
        <time>2019-05-04T16:21:55Z</time>
      </trkpt>
      <trkpt lat="44.94828" lon="5.5917">
        <ele>892</ele>
        <time>2019-05-04T16:22:55Z</time>
      </trkpt>
      <trkpt lat="44.94778" lon="5.58834">
        <ele>926</ele>
        <time>2019-05-04T16:23:55Z</time>
      </trkpt>
      <trkpt lat="44.9481" lon="5.5867">
        <ele>920</ele>
        <time>2019-05-04T16:24:55Z</time>
      </trkpt>
      <trkpt lat="44.94801" lon="5.58581">
        <ele>935</ele>
        <time>2019-05-04T16:25:55Z</time>
      </trkpt>
      <trkpt lat="44.94848" lon="5.58525">
        <ele>929</ele>
        <time>2019-05-04T16:26:55Z</time>
      </trkpt>
      <trkpt lat="44.94855" lon="5.58433">
        <ele>952</ele>
        <time>2019-05-04T16:27:55Z</time>
      </trkpt>
      <trkpt lat="44.94893" lon="5.58336">
        <ele>948</ele>
        <time>2019-05-04T16:28:55Z</time>
      </trkpt>
      <trkpt lat="44.94888" lon="5.5828">
        <ele>963</ele>
        <time>2019-05-04T16:29:55Z</time>
      </trkpt>
      <trkpt lat="44.95043" lon="5.57787">
        <ele>980</ele>
        <time>2019-05-04T16:30:55Z</time>
      </trkpt>
      <trkpt lat="44.95108" lon="5.57517">
        <ele>966</ele>
        <time>2019-05-04T16:31:55Z</time>
      </trkpt>
      <trkpt lat="44.95052" lon="5.57461">
        <ele>982</ele>
        <time>2019-05-04T16:32:55Z</time>
      </trkpt>
      <trkpt lat="44.9496" lon="5.57422">
        <ele>987</ele>
        <time>2019-05-04T16:33:55Z</time>
      </trkpt>
      <trkpt lat="44.94892" lon="5.57422">
        <ele>997</ele>
        <time>2019-05-04T16:34:55Z</time>
      </trkpt>
      <trkpt lat="44.9481" lon="5.57379">
        <ele>994</ele>
        <time>2019-05-04T16:35:55Z</time>
      </trkpt>
      <trkpt lat="44.94751" lon="5.57382">
        <ele>1010</ele>
        <time>2019-05-04T16:36:55Z</time>
      </trkpt>
      <trkpt lat="44.94668" lon="5.57305">
        <ele>1009</ele>
        <time>2019-05-04T16:37:55Z</time>
      </trkpt>
      <trkpt lat="44.94576" lon="5.57287">
        <ele>1018</ele>
        <time>2019-05-04T16:38:55Z</time>
      </trkpt>
      <trkpt lat="44.94453" lon="5.57292">
        <ele>1036</ele>
        <time>2019-05-04T16:39:55Z</time>
      </trkpt>
      <trkpt lat="44.94368" lon="5.57216">
        <ele>1025</ele>
        <time>2019-05-04T16:40:55Z</time>
      </trkpt>
      <trkpt lat="44.94308" lon="5.57218">
        <ele>1040</ele>
        <time>2019-05-04T16:41:55Z</time>
      </trkpt>
      <trkpt lat="44.9416" lon="5.57165">
        <ele>1049</ele>
        <time>2019-05-04T16:42:55Z</time>
      </trkpt>
      <trkpt lat="44.94064" lon="5.572">
        <ele>1064</ele>
        <time>2019-05-04T16:43:55Z</time>
      </trkpt>
      <trkpt lat="44.9397" lon="5.57177">
        <ele>1061</ele>
        <time>2019-05-04T16:44:55Z</time>
      </trkpt>
      <trkpt lat="44.93909" lon="5.5716">
        <ele>1064</ele>
        <time>2019-05-04T16:45:55Z</time>
      </trkpt>
      <trkpt lat="44.93774" lon="5.57185">
        <ele>1074</ele>
        <time>2019-05-04T16:46:55Z</time>
      </trkpt>
      <trkpt lat="44.9368" lon="5.57198">
        <ele>1078</ele>
        <time>2019-05-04T16:47:55Z</time>
      </trkpt>
      <trkpt lat="44.93333" lon="5.57313">
        <ele>1092</ele>
        <time>2019-05-04T16:48:55Z</time>
      </trkpt>
      <trkpt lat="44.93284" lon="5.57251">
        <ele>1103</ele>
        <time>2019-05-04T16:49:55Z</time>
      </trkpt>
      <trkpt lat="44.93084" lon="5.57101">
        <ele>1129</ele>
        <time>2019-05-04T16:50:55Z</time>
      </trkpt>
      <trkpt lat="44.92878" lon="5.57129">
        <ele>1132</ele>
        <time>2019-05-04T16:51:55Z</time>
      </trkpt>
      <trkpt lat="44.92758" lon="5.57109">
        <ele>1131</ele>
        <time>2019-05-04T16:52:55Z</time>
      </trkpt>
      <trkpt lat="44.92605" lon="5.57022">
        <ele>1126</ele>
        <time>2019-05-04T16:53:55Z</time>
      </trkpt>
      <trkpt lat="44.92489" lon="5.56938">
        <ele>1129</ele>
        <time>2019-05-04T16:54:55Z</time>
      </trkpt>
      <trkpt lat="44.92393" lon="5.56989">
        <ele>1133</ele>
        <time>2019-05-04T16:55:55Z</time>
      </trkpt>
      <trkpt lat="44.92307" lon="5.56996">
        <ele>1133</ele>
        <time>2019-05-04T16:56:55Z</time>
      </trkpt>
      <trkpt lat="44.92126" lon="5.56897">
        <ele>1139</ele>
        <time>2019-05-04T16:57:55Z</time>
      </trkpt>
      <trkpt lat="44.91974" lon="5.57065">
        <ele>1147</ele>
        <time>2019-05-04T16:58:55Z</time>
      </trkpt>
      <trkpt lat="44.91911" lon="5.57091">
        <ele>1158</ele>
        <time>2019-05-04T16:59:55Z</time>
      </trkpt>
      <trkpt lat="44.91886" lon="5.56973">
        <ele>1152</ele>
        <time>2019-05-04T17:00:55Z</time>
      </trkpt>
      <trkpt lat="44.91799" lon="5.56876">
        <ele>1157</ele>
        <time>2019-05-04T17:01:55Z</time>
      </trkpt>
      <trkpt lat="44.91707" lon="5.56871">
        <ele>1159</ele>
        <time>2019-05-04T17:02:55Z</time>
      </trkpt>
      <trkpt lat="44.91546" lon="5.56807">
        <ele>1156</ele>
        <time>2019-05-04T17:03:55Z</time>
      </trkpt>
      <trkpt lat="44.91349" lon="5.56833">
        <ele>1155</ele>
        <time>2019-05-04T17:04:55Z</time>
      </trkpt>
      <trkpt lat="44.91027" lon="5.56953">
        <ele>1162</ele>
        <time>2019-05-04T17:05:55Z</time>
      </trkpt>
      <trkpt lat="44.90827" lon="5.5695">
        <ele>1167</ele>
        <time>2019-05-04T17:06:55Z</time>
      </trkpt>
      <trkpt lat="44.90633" lon="5.57017">
        <ele>1174</ele>
        <time>2019-05-04T17:07:55Z</time>
      </trkpt>
      <trkpt lat="44.90539" lon="5.56986">
        <ele>1178</ele>
        <time>2019-05-04T17:08:55Z</time>
      </trkpt>
      <trkpt lat="44.9042" lon="5.56958">
        <ele>1187</ele>
        <time>2019-05-04T17:09:55Z</time>
      </trkpt>
      <trkpt lat="44.90339" lon="5.56932">
        <ele>1190</ele>
        <time>2019-05-04T17:10:55Z</time>
      </trkpt>
      <trkpt lat="44.90256" lon="5.5683">
        <ele>1194</ele>
        <time>2019-05-04T17:11:55Z</time>
      </trkpt>
      <trkpt lat="44.90228" lon="5.56726">
        <ele>1197</ele>
        <time>2019-05-04T17:12:55Z</time>
      </trkpt>
      <trkpt lat="44.90171" lon="5.56657">
        <ele>1202</ele>
        <time>2019-05-04T17:13:55Z</time>
      </trkpt>
      <trkpt lat="44.90102" lon="5.56639">
        <ele>1207</ele>
        <time>2019-05-04T17:14:55Z</time>
      </trkpt>
      <trkpt lat="44.90028" lon="5.56636">
        <ele>1215</ele>
        <time>2019-05-04T17:15:55Z</time>
      </trkpt>
      <trkpt lat="44.89992" lon="5.567">
        <ele>1223</ele>
        <time>2019-05-04T17:16:55Z</time>
      </trkpt>
      <trkpt lat="44.89786" lon="5.567">
        <ele>1243</ele>
        <time>2019-05-04T17:17:55Z</time>
      </trkpt>
      <trkpt lat="44.89679" lon="5.56693">
        <ele>1256</ele>
        <time>2019-05-04T17:18:55Z</time>
      </trkpt>
      <trkpt lat="44.89607" lon="5.56649">
        <ele>1268</ele>
        <time>2019-05-04T17:19:55Z</time>
      </trkpt>
      <trkpt lat="44.89654" lon="5.56761">
        <ele>1264</ele>
        <time>2019-05-04T17:20:55Z</time>
      </trkpt>
      <trkpt lat="44.89621" lon="5.56818">
        <ele>1267</ele>
        <time>2019-05-04T17:21:55Z</time>
      </trkpt>
      <trkpt lat="44.89574" lon="5.56889">
        <ele>1270</ele>
        <time>2019-05-04T17:22:55Z</time>
      </trkpt>
      <trkpt lat="44.89487" lon="5.56881">
        <ele>1274</ele>
        <time>2019-05-04T17:23:55Z</time>
      </trkpt>
      <trkpt lat="44.89433" lon="5.56736">
        <ele>1288</ele>
        <time>2019-05-04T17:24:55Z</time>
      </trkpt>
      <trkpt lat="44.89283" lon="5.56761">
        <ele>1304</ele>
        <time>2019-05-04T17:25:55Z</time>
      </trkpt>
      <trkpt lat="44.89162" lon="5.56779">
        <ele>1312</ele>
        <time>2019-05-04T17:26:55Z</time>
      </trkpt>
      <trkpt lat="44.89052" lon="5.56774">
        <ele>1308</ele>
        <time>2019-05-04T17:27:55Z</time>
      </trkpt>
      <trkpt lat="44.89017" lon="5.567">
        <ele>1325</ele>
        <time>2019-05-04T17:28:55Z</time>
      </trkpt>
      <trkpt lat="44.88976" lon="5.56749">
        <ele>1310</ele>
        <time>2019-05-04T17:29:55Z</time>
      </trkpt>
      <trkpt lat="44.88896" lon="5.56733">
        <ele>1312</ele>
        <time>2019-05-04T17:30:55Z</time>
      </trkpt>
      <trkpt lat="44.88864" lon="5.5671">
        <ele>1316</ele>
        <time>2019-05-04T17:31:55Z</time>
      </trkpt>
      <trkpt lat="44.88797" lon="5.56652">
        <ele>1334</ele>
        <time>2019-05-04T17:32:55Z</time>
      </trkpt>
      <trkpt lat="44.88768" lon="5.56713">
        <ele>1324</ele>
        <time>2019-05-04T17:33:55Z</time>
      </trkpt>
      <trkpt lat="44.88715" lon="5.56731">
        <ele>1325</ele>
        <time>2019-05-04T17:34:55Z</time>
      </trkpt>
      <trkpt lat="44.88645" lon="5.56703">
        <ele>1339</ele>
        <time>2019-05-04T17:35:55Z</time>
      </trkpt>
      <trkpt lat="44.88553" lon="5.56718">
        <ele>1345</ele>
        <time>2019-05-04T17:36:55Z</time>
      </trkpt>
      <trkpt lat="44.88426" lon="5.567">
        <ele>1358</ele>
        <time>2019-05-04T17:37:55Z</time>
      </trkpt>
      <trkpt lat="44.88356" lon="5.56716">
        <ele>1359</ele>
        <time>2019-05-04T17:38:55Z</time>
      </trkpt>
      <trkpt lat="44.88193" lon="5.56693">
        <ele>1354</ele>
        <time>2019-05-04T17:39:55Z</time>
      </trkpt>
      <trkpt lat="44.88124" lon="5.56708">
        <ele>1352</ele>
        <time>2019-05-04T17:40:55Z</time>
      </trkpt>
      <trkpt lat="44.87962" lon="5.56672">
        <ele>1330</ele>
        <time>2019-05-04T17:41:55Z</time>
      </trkpt>
      <trkpt lat="44.87904" lon="5.56685">
        <ele>1328</ele>
        <time>2019-05-04T17:42:55Z</time>
      </trkpt>
      <trkpt lat="44.8782" lon="5.56682">
        <ele>1320</ele>
        <time>2019-05-04T17:43:55Z</time>
      </trkpt>
      <trkpt lat="44.87558" lon="5.56598">
        <ele>1284</ele>
        <time>2019-05-04T17:44:55Z</time>
      </trkpt>
      <trkpt lat="44.875" lon="5.56591">
        <ele>1277</ele>
        <time>2019-05-04T17:45:55Z</time>
      </trkpt>
      <trkpt lat="44.87562" lon="5.56557">
        <ele>1274</ele>
        <time>2019-05-04T17:46:55Z</time>
      </trkpt>
      <trkpt lat="44.8771" lon="5.56501">
        <ele>1265</ele>
        <time>2019-05-04T17:47:55Z</time>
      </trkpt>
      <trkpt lat="44.8773" lon="5.56254">
        <ele>1239</ele>
        <time>2019-05-04T17:48:55Z</time>
      </trkpt>
      <trkpt lat="44.87602" lon="5.56172">
        <ele>1218</ele>
        <time>2019-05-04T17:49:55Z</time>
      </trkpt>
      <trkpt lat="44.87502" lon="5.55968">
        <ele>1203</ele>
        <time>2019-05-04T17:50:55Z</time>
      </trkpt>
      <trkpt lat="44.87493" lon="5.55919">
        <ele>1204</ele>
        <time>2019-05-04T17:51:55Z</time>
      </trkpt>
      <trkpt lat="44.87444" lon="5.55907">
        <ele>1203</ele>
        <time>2019-05-04T17:52:55Z</time>
      </trkpt>
      <trkpt lat="44.8735" lon="5.5595">
        <ele>1187</ele>
        <time>2019-05-04T17:53:55Z</time>
      </trkpt>
      <trkpt lat="44.87301" lon="5.5595">
        <ele>1177</ele>
        <time>2019-05-04T17:54:55Z</time>
      </trkpt>
      <trkpt lat="44.87231" lon="5.5584">
        <ele>1175</ele>
        <time>2019-05-04T17:55:55Z</time>
      </trkpt>
      <trkpt lat="44.87171" lon="5.55845">
        <ele>1157</ele>
        <time>2019-05-04T17:56:55Z</time>
      </trkpt>
      <trkpt lat="44.87099" lon="5.55807">
        <ele>1153</ele>
        <time>2019-05-04T17:57:55Z</time>
      </trkpt>
      <trkpt lat="44.87005" lon="5.55835">
        <ele>1133</ele>
        <time>2019-05-04T17:58:55Z</time>
      </trkpt>
      <trkpt lat="44.86938" lon="5.55769">
        <ele>1136</ele>
        <time>2019-05-04T17:59:55Z</time>
      </trkpt>
      <trkpt lat="44.86871" lon="5.55715">
        <ele>1130</ele>
        <time>2019-05-04T18:00:55Z</time>
      </trkpt>
      <trkpt lat="44.86828" lon="5.55654">
        <ele>1129</ele>
        <time>2019-05-04T18:01:55Z</time>
      </trkpt>
      <trkpt lat="44.86799" lon="5.55687">
        <ele>1138</ele>
        <time>2019-05-04T18:02:55Z</time>
      </trkpt>
      <trkpt lat="44.86795" lon="5.55838">
        <ele>1127</ele>
        <time>2019-05-04T18:03:55Z</time>
      </trkpt>
      <trkpt lat="44.86777" lon="5.55873">
        <ele>1129</ele>
        <time>2019-05-04T18:04:55Z</time>
      </trkpt>
      <trkpt lat="44.86654" lon="5.55873">
        <ele>1147</ele>
        <time>2019-05-04T18:05:55Z</time>
      </trkpt>
      <trkpt lat="44.86629" lon="5.55968">
        <ele>1147</ele>
        <time>2019-05-04T18:06:55Z</time>
      </trkpt>
      <trkpt lat="44.86578" lon="5.55991">
        <ele>1155</ele>
        <time>2019-05-04T18:07:55Z</time>
      </trkpt>
      <trkpt lat="44.86544" lon="5.5593">
        <ele>1159</ele>
        <time>2019-05-04T18:08:55Z</time>
      </trkpt>
      <trkpt lat="44.86573" lon="5.55848">
        <ele>1160</ele>
        <time>2019-05-04T18:09:55Z</time>
      </trkpt>
      <trkpt lat="44.86517" lon="5.55845">
        <ele>1167</ele>
        <time>2019-05-04T18:10:55Z</time>
      </trkpt>
      <trkpt lat="44.86477" lon="5.55889">
        <ele>1168</ele>
        <time>2019-05-04T18:11:55Z</time>
      </trkpt>
      <trkpt lat="44.86473" lon="5.55817">
        <ele>1173</ele>
        <time>2019-05-04T18:12:55Z</time>
      </trkpt>
      <trkpt lat="44.86242" lon="5.55542">
        <ele>1197</ele>
        <time>2019-05-04T18:13:55Z</time>
      </trkpt>
      <trkpt lat="44.86173" lon="5.55442">
        <ele>1201</ele>
        <time>2019-05-04T18:14:55Z</time>
      </trkpt>
      <trkpt lat="44.86108" lon="5.55251">
        <ele>1200</ele>
        <time>2019-05-04T18:15:55Z</time>
      </trkpt>
      <trkpt lat="44.86099" lon="5.55126">
        <ele>1203</ele>
        <time>2019-05-04T18:16:55Z</time>
      </trkpt>
      <trkpt lat="44.86084" lon="5.55082">
        <ele>1206</ele>
        <time>2019-05-04T18:17:55Z</time>
      </trkpt>
      <trkpt lat="44.8595" lon="5.54998">
        <ele>1210</ele>
        <time>2019-05-04T18:18:55Z</time>
      </trkpt>
      <trkpt lat="44.85846" lon="5.54873">
        <ele>1223</ele>
        <time>2019-05-04T18:19:55Z</time>
      </trkpt>
      <trkpt lat="44.85753" lon="5.5482">
        <ele>1216</ele>
        <time>2019-05-04T18:20:55Z</time>
      </trkpt>
      <trkpt lat="44.85665" lon="5.54738">
        <ele>1219</ele>
        <time>2019-05-04T18:21:55Z</time>
      </trkpt>
      <trkpt lat="44.85589" lon="5.54621">
        <ele>1227</ele>
        <time>2019-05-04T18:22:55Z</time>
      </trkpt>
      <trkpt lat="44.85543" lon="5.54646">
        <ele>1227</ele>
        <time>2019-05-04T18:23:55Z</time>
      </trkpt>
      <trkpt lat="44.85589" lon="5.5485">
        <ele>1218</ele>
        <time>2019-05-04T18:24:55Z</time>
      </trkpt>
      <trkpt lat="44.8561" lon="5.55126">
        <ele>1205</ele>
        <time>2019-05-04T18:25:55Z</time>
      </trkpt>
      <trkpt lat="44.85612" lon="5.55225">
        <ele>1197</ele>
        <time>2019-05-04T18:26:55Z</time>
      </trkpt>
      <trkpt lat="44.85677" lon="5.55396">
        <ele>1174</ele>
        <time>2019-05-04T18:27:55Z</time>
      </trkpt>
      <trkpt lat="44.85733" lon="5.55458">
        <ele>1161</ele>
        <time>2019-05-04T18:28:55Z</time>
      </trkpt>
      <trkpt lat="44.85741" lon="5.55549">
        <ele>1156</ele>
        <time>2019-05-04T18:29:55Z</time>
      </trkpt>
      <trkpt lat="44.8579" lon="5.55718">
        <ele>1137</ele>
        <time>2019-05-04T18:30:55Z</time>
      </trkpt>
      <trkpt lat="44.85829" lon="5.55761">
        <ele>1130</ele>
        <time>2019-05-04T18:31:55Z</time>
      </trkpt>
      <trkpt lat="44.8588" lon="5.55677">
        <ele>1134</ele>
        <time>2019-05-04T18:32:55Z</time>
      </trkpt>
      <trkpt lat="44.85914" lon="5.55725">
        <ele>1128</ele>
        <time>2019-05-04T18:33:55Z</time>
      </trkpt>
      <trkpt lat="44.85963" lon="5.55843">
        <ele>1112</ele>
        <time>2019-05-04T18:34:55Z</time>
      </trkpt>
      <trkpt lat="44.85923" lon="5.55891">
        <ele>1112</ele>
        <time>2019-05-04T18:35:55Z</time>
      </trkpt>
      <trkpt lat="44.85956" lon="5.56004">
        <ele>1116</ele>
        <time>2019-05-04T18:36:55Z</time>
      </trkpt>
      <trkpt lat="44.86045" lon="5.56075">
        <ele>1114</ele>
        <time>2019-05-04T18:37:55Z</time>
      </trkpt>
      <trkpt lat="44.8613" lon="5.5621">
        <ele>1123</ele>
        <time>2019-05-04T18:38:55Z</time>
      </trkpt>
      <trkpt lat="44.86121" lon="5.56269">
        <ele>1139</ele>
        <time>2019-05-04T18:39:55Z</time>
      </trkpt>
      <trkpt lat="44.86186" lon="5.56287">
        <ele>1128</ele>
        <time>2019-05-04T18:40:55Z</time>
      </trkpt>
      <trkpt lat="44.86289" lon="5.56371">
        <ele>1142</ele>
        <time>2019-05-04T18:41:55Z</time>
      </trkpt>
      <trkpt lat="44.86403" lon="5.56534">
        <ele>1165</ele>
        <time>2019-05-04T18:42:55Z</time>
      </trkpt>
      <trkpt lat="44.86343" lon="5.56519">
        <ele>1174</ele>
        <time>2019-05-04T18:43:55Z</time>
      </trkpt>
      <trkpt lat="44.86287" lon="5.56494">
        <ele>1179</ele>
        <time>2019-05-04T18:44:55Z</time>
      </trkpt>
      <trkpt lat="44.8622" lon="5.56445">
        <ele>1177</ele>
        <time>2019-05-04T18:45:55Z</time>
      </trkpt>
      <trkpt lat="44.86157" lon="5.56427">
        <ele>1180</ele>
        <time>2019-05-04T18:46:55Z</time>
      </trkpt>
      <trkpt lat="44.86064" lon="5.56422">
        <ele>1190</ele>
        <time>2019-05-04T18:47:55Z</time>
      </trkpt>
      <trkpt lat="44.85972" lon="5.56435">
        <ele>1205</ele>
        <time>2019-05-04T18:48:55Z</time>
      </trkpt>
      <trkpt lat="44.85891" lon="5.56476">
        <ele>1220</ele>
        <time>2019-05-04T18:49:55Z</time>
      </trkpt>
      <trkpt lat="44.85824" lon="5.5645">
        <ele>1219</ele>
        <time>2019-05-04T18:50:55Z</time>
      </trkpt>
      <trkpt lat="44.85775" lon="5.56422">
        <ele>1217</ele>
        <time>2019-05-04T18:51:55Z</time>
      </trkpt>
      <trkpt lat="44.85733" lon="5.56463">
        <ele>1223</ele>
        <time>2019-05-04T18:52:55Z</time>
      </trkpt>
      <trkpt lat="44.85715" lon="5.56509">
        <ele>1230</ele>
        <time>2019-05-04T18:53:55Z</time>
      </trkpt>
      <trkpt lat="44.8579" lon="5.56552">
        <ele>1239</ele>
        <time>2019-05-04T18:54:55Z</time>
      </trkpt>
      <trkpt lat="44.85932" lon="5.5658">
        <ele>1246</ele>
        <time>2019-05-04T18:55:55Z</time>
      </trkpt>
      <trkpt lat="44.86048" lon="5.56611">
        <ele>1256</ele>
        <time>2019-05-04T18:56:55Z</time>
      </trkpt>
      <trkpt lat="44.86135" lon="5.56667">
        <ele>1260</ele>
        <time>2019-05-04T18:57:55Z</time>
      </trkpt>
      <trkpt lat="44.86191" lon="5.56746">
        <ele>1275</ele>
        <time>2019-05-04T18:58:55Z</time>
      </trkpt>
      <trkpt lat="44.86278" lon="5.56805">
        <ele>1283</ele>
        <time>2019-05-04T18:59:55Z</time>
      </trkpt>
      <trkpt lat="44.862" lon="5.56795">
        <ele>1292</ele>
        <time>2019-05-04T19:00:55Z</time>
      </trkpt>
      <trkpt lat="44.86137" lon="5.56764">
        <ele>1293</ele>
        <time>2019-05-04T19:01:55Z</time>
      </trkpt>
      <trkpt lat="44.86086" lon="5.56736">
        <ele>1294</ele>
        <time>2019-05-04T19:02:55Z</time>
      </trkpt>
      <trkpt lat="44.86005" lon="5.56759">
        <ele>1304</ele>
        <time>2019-05-04T19:03:55Z</time>
      </trkpt>
      <trkpt lat="44.85903" lon="5.56828">
        <ele>1319</ele>
        <time>2019-05-04T19:04:55Z</time>
      </trkpt>
      <trkpt lat="44.85786" lon="5.56869">
        <ele>1323</ele>
        <time>2019-05-04T19:05:55Z</time>
      </trkpt>
      <trkpt lat="44.85739" lon="5.56897">
        <ele>1328</ele>
        <time>2019-05-04T19:06:55Z</time>
      </trkpt>
      <trkpt lat="44.85659" lon="5.56922">
        <ele>1324</ele>
        <time>2019-05-04T19:07:55Z</time>
      </trkpt>
      <trkpt lat="44.8569" lon="5.5704">
        <ele>1316</ele>
        <time>2019-05-04T19:08:55Z</time>
      </trkpt>
      <trkpt lat="44.85762" lon="5.57121">
        <ele>1325</ele>
        <time>2019-05-04T19:09:55Z</time>
      </trkpt>
      <trkpt lat="44.858" lon="5.57236">
        <ele>1312</ele>
        <time>2019-05-04T19:10:55Z</time>
      </trkpt>
      <trkpt lat="44.85786" lon="5.57397">
        <ele>1288</ele>
        <time>2019-05-04T19:11:55Z</time>
      </trkpt>
      <trkpt lat="44.85786" lon="5.57524">
        <ele>1290</ele>
        <time>2019-05-04T19:12:55Z</time>
      </trkpt>
      <trkpt lat="44.858" lon="5.57672">
        <ele>1293</ele>
        <time>2019-05-04T19:13:55Z</time>
      </trkpt>
      <trkpt lat="44.85786" lon="5.57823">
        <ele>1282</ele>
        <time>2019-05-04T19:14:55Z</time>
      </trkpt>
      <trkpt lat="44.85775" lon="5.57963">
        <ele>1258</ele>
        <time>2019-05-04T19:15:55Z</time>
      </trkpt>
      <trkpt lat="44.85779" lon="5.58114">
        <ele>1237</ele>
        <time>2019-05-04T19:16:55Z</time>
      </trkpt>
      <trkpt lat="44.85782" lon="5.58224">
        <ele>1234</ele>
        <time>2019-05-04T19:17:55Z</time>
      </trkpt>
      <trkpt lat="44.85741" lon="5.58379">
        <ele>1242</ele>
        <time>2019-05-04T19:18:55Z</time>
      </trkpt>
      <trkpt lat="44.85697" lon="5.5842">
        <ele>1237</ele>
        <time>2019-05-04T19:19:55Z</time>
      </trkpt>
      <trkpt lat="44.85659" lon="5.58448">
        <ele>1236</ele>
        <time>2019-05-04T19:20:55Z</time>
      </trkpt>
      <trkpt lat="44.85594" lon="5.58471">
        <ele>1230</ele>
        <time>2019-05-04T19:21:55Z</time>
      </trkpt>
      <trkpt lat="44.85511" lon="5.58479">
        <ele>1226</ele>
        <time>2019-05-04T19:22:55Z</time>
      </trkpt>
      <trkpt lat="44.85426" lon="5.58448">
        <ele>1208</ele>
        <time>2019-05-04T19:23:55Z</time>
      </trkpt>
      <trkpt lat="44.8539" lon="5.58471">
        <ele>1213</ele>
        <time>2019-05-04T19:24:55Z</time>
      </trkpt>
      <trkpt lat="44.85437" lon="5.58415">
        <ele>1196</ele>
        <time>2019-05-04T19:25:55Z</time>
      </trkpt>
      <trkpt lat="44.85502" lon="5.58356">
        <ele>1188</ele>
        <time>2019-05-04T19:26:55Z</time>
      </trkpt>
      <trkpt lat="44.85551" lon="5.58275">
        <ele>1178</ele>
        <time>2019-05-04T19:27:55Z</time>
      </trkpt>
      <trkpt lat="44.8546" lon="5.58316">
        <ele>1174</ele>
        <time>2019-05-04T19:28:55Z</time>
      </trkpt>
      <trkpt lat="44.85381" lon="5.5831">
        <ele>1166</ele>
        <time>2019-05-04T19:29:55Z</time>
      </trkpt>
      <trkpt lat="44.8533" lon="5.58275">
        <ele>1155</ele>
        <time>2019-05-04T19:30:55Z</time>
      </trkpt>
      <trkpt lat="44.85283" lon="5.5828">
        <ele>1153</ele>
        <time>2019-05-04T19:31:55Z</time>
      </trkpt>
      <trkpt lat="44.85247" lon="5.58234">
        <ele>1141</ele>
        <time>2019-05-04T19:32:55Z</time>
      </trkpt>
      <trkpt lat="44.85191" lon="5.58259">
        <ele>1138</ele>
        <time>2019-05-04T19:33:55Z</time>
      </trkpt>
      <trkpt lat="44.85131" lon="5.58303">
        <ele>1140</ele>
        <time>2019-05-04T19:34:55Z</time>
      </trkpt>
      <trkpt lat="44.85088" lon="5.5831">
        <ele>1136</ele>
        <time>2019-05-04T19:35:55Z</time>
      </trkpt>
      <trkpt lat="44.85053" lon="5.58282">
        <ele>1129</ele>
        <time>2019-05-04T19:36:55Z</time>
      </trkpt>
      <trkpt lat="44.85012" lon="5.58267">
        <ele>1124</ele>
        <time>2019-05-04T19:37:55Z</time>
      </trkpt>
      <trkpt lat="44.85077" lon="5.58244">
        <ele>1120</ele>
        <time>2019-05-04T19:38:55Z</time>
      </trkpt>
      <trkpt lat="44.85136" lon="5.58178">
        <ele>1112</ele>
        <time>2019-05-04T19:39:55Z</time>
      </trkpt>
      <trkpt lat="44.85164" lon="5.58116">
        <ele>1101</ele>
        <time>2019-05-04T19:40:55Z</time>
      </trkpt>
      <trkpt lat="44.85212" lon="5.58053">
        <ele>1095</ele>
        <time>2019-05-04T19:41:55Z</time>
      </trkpt>
      <trkpt lat="44.8527" lon="5.58017">
        <ele>1095</ele>
        <time>2019-05-04T19:42:55Z</time>
      </trkpt>
      <trkpt lat="44.85314" lon="5.57935">
        <ele>1087</ele>
        <time>2019-05-04T19:43:55Z</time>
      </trkpt>
      <trkpt lat="44.85265" lon="5.57943">
        <ele>1082</ele>
        <time>2019-05-04T19:44:55Z</time>
      </trkpt>
      <trkpt lat="44.85184" lon="5.57923">
        <ele>1065</ele>
        <time>2019-05-04T19:45:55Z</time>
      </trkpt>
      <trkpt lat="44.8512" lon="5.57923">
        <ele>1059</ele>
        <time>2019-05-04T19:46:55Z</time>
      </trkpt>
      <trkpt lat="44.85066" lon="5.57887">
        <ele>1060</ele>
        <time>2019-05-04T19:47:55Z</time>
      </trkpt>
      <trkpt lat="44.84975" lon="5.57912">
        <ele>1049</ele>
        <time>2019-05-04T19:48:55Z</time>
      </trkpt>
      <trkpt lat="44.84907" lon="5.57933">
        <ele>1044</ele>
        <time>2019-05-04T19:49:55Z</time>
      </trkpt>
      <trkpt lat="44.84836" lon="5.57938">
        <ele>1040</ele>
        <time>2019-05-04T19:50:55Z</time>
      </trkpt>
      <trkpt lat="44.8476" lon="5.57968">
        <ele>1035</ele>
        <time>2019-05-04T19:51:55Z</time>
      </trkpt>
      <trkpt lat="44.84695" lon="5.57989">
        <ele>1030</ele>
        <time>2019-05-04T19:52:55Z</time>
      </trkpt>
      <trkpt lat="44.84644" lon="5.57989">
        <ele>1027</ele>
        <time>2019-05-04T19:53:55Z</time>
      </trkpt>
      <trkpt lat="44.8463" lon="5.57953">
        <ele>1028</ele>
        <time>2019-05-04T19:54:55Z</time>
      </trkpt>
      <trkpt lat="44.84552" lon="5.57963">
        <ele>1024</ele>
        <time>2019-05-04T19:55:55Z</time>
      </trkpt>
    </trkseg>
  </trk>
  <trk>
    <name><![CDATA[20190510164004-MpfnD]]></name>
    <trkseg>
      <trkpt lat="44.84528" lon="5.58014">
        <ele>1022</ele>
        <time>2019-05-09T11:23:28Z</time>
      </trkpt>
      <trkpt lat="44.8447" lon="5.58001">
        <ele>1019</ele>
        <time>2019-05-09T11:24:28Z</time>
      </trkpt>
      <trkpt lat="44.84399" lon="5.58055">
        <ele>1016</ele>
        <time>2019-05-09T11:25:28Z</time>
      </trkpt>
      <trkpt lat="44.84326" lon="5.58064">
        <ele>1017</ele>
        <time>2019-05-09T11:26:28Z</time>
      </trkpt>
      <trkpt lat="44.84263" lon="5.58085">
        <ele>1017</ele>
        <time>2019-05-09T11:27:28Z</time>
      </trkpt>
      <trkpt lat="44.84168" lon="5.58066">
        <ele>1027</ele>
        <time>2019-05-09T11:28:28Z</time>
      </trkpt>
      <trkpt lat="44.84094" lon="5.58027">
        <ele>1029</ele>
        <time>2019-05-09T11:29:28Z</time>
      </trkpt>
      <trkpt lat="44.84015" lon="5.57944">
        <ele>1032</ele>
        <time>2019-05-09T11:30:28Z</time>
      </trkpt>
      <trkpt lat="44.83912" lon="5.57894">
        <ele>1028</ele>
        <time>2019-05-09T11:31:28Z</time>
      </trkpt>
      <trkpt lat="44.8383" lon="5.57876">
        <ele>1026</ele>
        <time>2019-05-09T11:32:28Z</time>
      </trkpt>
      <trkpt lat="44.83769" lon="5.57897">
        <ele>1031</ele>
        <time>2019-05-09T11:33:28Z</time>
      </trkpt>
      <trkpt lat="44.83741" lon="5.5797">
        <ele>1022</ele>
        <time>2019-05-09T11:34:28Z</time>
      </trkpt>
      <trkpt lat="44.83761" lon="5.58049">
        <ele>1011</ele>
        <time>2019-05-09T11:35:28Z</time>
      </trkpt>
      <trkpt lat="44.83725" lon="5.58078">
        <ele>1006</ele>
        <time>2019-05-09T11:36:28Z</time>
      </trkpt>
      <trkpt lat="44.83677" lon="5.58034">
        <ele>1012</ele>
        <time>2019-05-09T11:37:28Z</time>
      </trkpt>
      <trkpt lat="44.836" lon="5.58034">
        <ele>1011</ele>
        <time>2019-05-09T11:38:28Z</time>
      </trkpt>
      <trkpt lat="44.83523" lon="5.58114">
        <ele>992</ele>
        <time>2019-05-09T11:39:28Z</time>
      </trkpt>
      <trkpt lat="44.8349" lon="5.58074">
        <ele>999</ele>
        <time>2019-05-09T11:40:28Z</time>
      </trkpt>
      <trkpt lat="44.83447" lon="5.58049">
        <ele>992</ele>
        <time>2019-05-09T11:41:28Z</time>
      </trkpt>
      <trkpt lat="44.83467" lon="5.5797">
        <ele>1000</ele>
        <time>2019-05-09T11:42:28Z</time>
      </trkpt>
      <trkpt lat="44.83398" lon="5.57912">
        <ele>991</ele>
        <time>2019-05-09T11:43:28Z</time>
      </trkpt>
      <trkpt lat="44.83303" lon="5.57887">
        <ele>987</ele>
        <time>2019-05-09T11:44:28Z</time>
      </trkpt>
      <trkpt lat="44.83193" lon="5.57941">
        <ele>983</ele>
        <time>2019-05-09T11:45:28Z</time>
      </trkpt>
      <trkpt lat="44.83075" lon="5.57984">
        <ele>981</ele>
        <time>2019-05-09T11:46:28Z</time>
      </trkpt>
      <trkpt lat="44.8295" lon="5.58024">
        <ele>978</ele>
        <time>2019-05-09T11:47:28Z</time>
      </trkpt>
      <trkpt lat="44.82858" lon="5.58067">
        <ele>978</ele>
        <time>2019-05-09T11:48:28Z</time>
      </trkpt>
      <trkpt lat="44.82712" lon="5.58219">
        <ele>971</ele>
        <time>2019-05-09T11:49:28Z</time>
      </trkpt>
      <trkpt lat="44.82656" lon="5.58107">
        <ele>973</ele>
        <time>2019-05-09T11:50:28Z</time>
      </trkpt>
      <trkpt lat="44.82625" lon="5.58107">
        <ele>971</ele>
        <time>2019-05-09T11:51:28Z</time>
      </trkpt>
      <trkpt lat="44.82581" lon="5.58136">
        <ele>965</ele>
        <time>2019-05-09T11:52:28Z</time>
      </trkpt>
      <trkpt lat="44.82564" lon="5.58071">
        <ele>969</ele>
        <time>2019-05-09T11:53:28Z</time>
      </trkpt>
      <trkpt lat="44.82543" lon="5.58085">
        <ele>967</ele>
        <time>2019-05-09T11:54:28Z</time>
      </trkpt>
      <trkpt lat="44.82533" lon="5.58136">
        <ele>960</ele>
        <time>2019-05-09T11:55:28Z</time>
      </trkpt>
      <trkpt lat="44.82492" lon="5.58139">
        <ele>955</ele>
        <time>2019-05-09T11:56:28Z</time>
      </trkpt>
      <trkpt lat="44.82471" lon="5.58092">
        <ele>960</ele>
        <time>2019-05-09T11:57:28Z</time>
      </trkpt>
      <trkpt lat="44.82326" lon="5.58096">
        <ele>946</ele>
        <time>2019-05-09T11:58:28Z</time>
      </trkpt>
      <trkpt lat="44.82269" lon="5.57966">
        <ele>954</ele>
        <time>2019-05-09T11:59:28Z</time>
      </trkpt>
      <trkpt lat="44.82218" lon="5.57977">
        <ele>948</ele>
        <time>2019-05-09T12:00:28Z</time>
      </trkpt>
      <trkpt lat="44.82149" lon="5.57814">
        <ele>956</ele>
        <time>2019-05-09T12:01:28Z</time>
      </trkpt>
      <trkpt lat="44.82162" lon="5.57735">
        <ele>961</ele>
        <time>2019-05-09T12:02:28Z</time>
      </trkpt>
      <trkpt lat="44.82221" lon="5.57681">
        <ele>960</ele>
        <time>2019-05-09T12:03:28Z</time>
      </trkpt>
      <trkpt lat="44.82215" lon="5.57619">
        <ele>960</ele>
        <time>2019-05-09T12:04:28Z</time>
      </trkpt>
      <trkpt lat="44.82203" lon="5.57533">
        <ele>959</ele>
        <time>2019-05-09T12:05:28Z</time>
      </trkpt>
      <trkpt lat="44.82241" lon="5.57435">
        <ele>958</ele>
        <time>2019-05-09T12:06:28Z</time>
      </trkpt>
      <trkpt lat="44.82302" lon="5.57125">
        <ele>966</ele>
        <time>2019-05-09T12:07:28Z</time>
      </trkpt>
      <trkpt lat="44.82279" lon="5.56826">
        <ele>974</ele>
        <time>2019-05-09T12:08:28Z</time>
      </trkpt>
      <trkpt lat="44.82287" lon="5.56613">
        <ele>980</ele>
        <time>2019-05-09T12:09:28Z</time>
      </trkpt>
      <trkpt lat="44.82251" lon="5.56461">
        <ele>985</ele>
        <time>2019-05-09T12:10:28Z</time>
      </trkpt>
      <trkpt lat="44.82218" lon="5.56371">
        <ele>988</ele>
        <time>2019-05-09T12:11:28Z</time>
      </trkpt>
      <trkpt lat="44.82277" lon="5.55934">
        <ele>1005</ele>
        <time>2019-05-09T12:12:28Z</time>
      </trkpt>
      <trkpt lat="44.82292" lon="5.55754">
        <ele>1011</ele>
        <time>2019-05-09T12:13:28Z</time>
      </trkpt>
      <trkpt lat="44.82282" lon="5.55335">
        <ele>1021</ele>
        <time>2019-05-09T12:14:28Z</time>
      </trkpt>
      <trkpt lat="44.82116" lon="5.55393">
        <ele>1025</ele>
        <time>2019-05-09T12:15:28Z</time>
      </trkpt>
      <trkpt lat="44.82087" lon="5.55523">
        <ele>1018</ele>
        <time>2019-05-09T12:16:28Z</time>
      </trkpt>
      <trkpt lat="44.8199" lon="5.55786">
        <ele>1020</ele>
        <time>2019-05-09T12:17:28Z</time>
      </trkpt>
      <trkpt lat="44.81947" lon="5.55974">
        <ele>1041</ele>
        <time>2019-05-09T12:18:28Z</time>
      </trkpt>
      <trkpt lat="44.81947" lon="5.56374">
        <ele>1029</ele>
        <time>2019-05-09T12:19:28Z</time>
      </trkpt>
      <trkpt lat="44.81867" lon="5.56454">
        <ele>1036</ele>
        <time>2019-05-09T12:20:28Z</time>
      </trkpt>
      <trkpt lat="44.81734" lon="5.56974">
        <ele>1007</ele>
        <time>2019-05-09T12:21:28Z</time>
      </trkpt>
      <trkpt lat="44.81647" lon="5.57147">
        <ele>1001</ele>
        <time>2019-05-09T12:22:28Z</time>
      </trkpt>
      <trkpt lat="44.81517" lon="5.5723">
        <ele>995</ele>
        <time>2019-05-09T12:23:28Z</time>
      </trkpt>
      <trkpt lat="44.81227" lon="5.5728">
        <ele>993</ele>
        <time>2019-05-09T12:24:28Z</time>
      </trkpt>
      <trkpt lat="44.81145" lon="5.57262">
        <ele>992</ele>
        <time>2019-05-09T12:25:28Z</time>
      </trkpt>
      <trkpt lat="44.81151" lon="5.57363">
        <ele>987</ele>
        <time>2019-05-09T12:26:28Z</time>
      </trkpt>
      <trkpt lat="44.81227" lon="5.57573">
        <ele>981</ele>
        <time>2019-05-09T12:27:28Z</time>
      </trkpt>
      <trkpt lat="44.81227" lon="5.57923">
        <ele>976</ele>
        <time>2019-05-09T12:28:28Z</time>
      </trkpt>
      <trkpt lat="44.8113" lon="5.58247">
        <ele>966</ele>
        <time>2019-05-09T12:29:28Z</time>
      </trkpt>
      <trkpt lat="44.80969" lon="5.58475">
        <ele>981</ele>
        <time>2019-05-09T12:30:28Z</time>
      </trkpt>
      <trkpt lat="44.80815" lon="5.58608">
        <ele>992</ele>
        <time>2019-05-09T12:31:28Z</time>
      </trkpt>
      <trkpt lat="44.80654" lon="5.58717">
        <ele>1012</ele>
        <time>2019-05-09T12:32:28Z</time>
      </trkpt>
      <trkpt lat="44.80462" lon="5.5876">
        <ele>1016</ele>
        <time>2019-05-09T12:33:28Z</time>
      </trkpt>
      <trkpt lat="44.80405" lon="5.58857">
        <ele>1031</ele>
        <time>2019-05-09T12:34:28Z</time>
      </trkpt>
      <trkpt lat="44.80267" lon="5.58944">
        <ele>1037</ele>
        <time>2019-05-09T12:35:28Z</time>
      </trkpt>
      <trkpt lat="44.80088" lon="5.59106">
        <ele>1060</ele>
        <time>2019-05-09T12:36:28Z</time>
      </trkpt>
      <trkpt lat="44.80019" lon="5.59092">
        <ele>1075</ele>
        <time>2019-05-09T12:37:28Z</time>
      </trkpt>
      <trkpt lat="44.79916" lon="5.58911">
        <ele>1077</ele>
        <time>2019-05-09T12:38:28Z</time>
      </trkpt>
      <trkpt lat="44.79768" lon="5.59009">
        <ele>1090</ele>
        <time>2019-05-09T12:39:28Z</time>
      </trkpt>
      <trkpt lat="44.79507" lon="5.59233">
        <ele>1107</ele>
        <time>2019-05-09T12:40:28Z</time>
      </trkpt>
      <trkpt lat="44.79496" lon="5.59316">
        <ele>1122</ele>
        <time>2019-05-09T12:41:28Z</time>
      </trkpt>
      <trkpt lat="44.79425" lon="5.5937">
        <ele>1130</ele>
        <time>2019-05-09T12:42:28Z</time>
      </trkpt>
      <trkpt lat="44.79348" lon="5.59312">
        <ele>1121</ele>
        <time>2019-05-09T12:43:28Z</time>
      </trkpt>
      <trkpt lat="44.79071" lon="5.59514">
        <ele>1158</ele>
        <time>2019-05-09T12:44:28Z</time>
      </trkpt>
      <trkpt lat="44.79002" lon="5.59514">
        <ele>1155</ele>
        <time>2019-05-09T12:45:28Z</time>
      </trkpt>
      <trkpt lat="44.78761" lon="5.59828">
        <ele>1189</ele>
        <time>2019-05-09T12:46:28Z</time>
      </trkpt>
      <trkpt lat="44.78518" lon="5.59879">
        <ele>1201</ele>
        <time>2019-05-09T12:47:28Z</time>
      </trkpt>
      <trkpt lat="44.78459" lon="5.59785">
        <ele>1204</ele>
        <time>2019-05-09T12:48:28Z</time>
      </trkpt>
      <trkpt lat="44.78362" lon="5.59731">
        <ele>1203</ele>
        <time>2019-05-09T12:49:28Z</time>
      </trkpt>
      <trkpt lat="44.78323" lon="5.59453">
        <ele>1240</ele>
        <time>2019-05-09T12:50:28Z</time>
      </trkpt>
      <trkpt lat="44.78259" lon="5.59532">
        <ele>1228</ele>
        <time>2019-05-09T12:51:28Z</time>
      </trkpt>
      <trkpt lat="44.78162" lon="5.59601">
        <ele>1222</ele>
        <time>2019-05-09T12:52:28Z</time>
      </trkpt>
      <trkpt lat="44.78124" lon="5.59575">
        <ele>1224</ele>
        <time>2019-05-09T12:53:28Z</time>
      </trkpt>
      <trkpt lat="44.7808" lon="5.59355">
        <ele>1250</ele>
        <time>2019-05-09T12:54:28Z</time>
      </trkpt>
      <trkpt lat="44.78054" lon="5.59413">
        <ele>1246</ele>
        <time>2019-05-09T12:55:28Z</time>
      </trkpt>
      <trkpt lat="44.7797" lon="5.59648">
        <ele>1227</ele>
        <time>2019-05-09T12:56:28Z</time>
      </trkpt>
      <trkpt lat="44.77893" lon="5.59287">
        <ele>1250</ele>
        <time>2019-05-09T12:57:28Z</time>
      </trkpt>
      <trkpt lat="44.77903" lon="5.59132">
        <ele>1273</ele>
        <time>2019-05-09T12:58:28Z</time>
      </trkpt>
      <trkpt lat="44.7786" lon="5.59128">
        <ele>1270</ele>
        <time>2019-05-09T12:59:28Z</time>
      </trkpt>
      <trkpt lat="44.77783" lon="5.59178">
        <ele>1254</ele>
        <time>2019-05-09T13:00:28Z</time>
      </trkpt>
      <trkpt lat="44.7767" lon="5.59056">
        <ele>1280</ele>
        <time>2019-05-09T13:01:28Z</time>
      </trkpt>
      <trkpt lat="44.77655" lon="5.59139">
        <ele>1270</ele>
        <time>2019-05-09T13:02:28Z</time>
      </trkpt>
      <trkpt lat="44.77606" lon="5.59128">
        <ele>1286</ele>
        <time>2019-05-09T13:03:28Z</time>
      </trkpt>
      <trkpt lat="44.77616" lon="5.59254">
        <ele>1277</ele>
        <time>2019-05-09T13:04:28Z</time>
      </trkpt>
      <trkpt lat="44.77616" lon="5.59312">
        <ele>1272</ele>
        <time>2019-05-09T13:05:28Z</time>
      </trkpt>
      <trkpt lat="44.77586" lon="5.59319">
        <ele>1281</ele>
        <time>2019-05-09T13:06:28Z</time>
      </trkpt>
      <trkpt lat="44.77558" lon="5.59395">
        <ele>1267</ele>
        <time>2019-05-09T13:07:28Z</time>
      </trkpt>
      <trkpt lat="44.77529" lon="5.59308">
        <ele>1278</ele>
        <time>2019-05-09T13:08:28Z</time>
      </trkpt>
      <trkpt lat="44.77478" lon="5.59218">
        <ele>1286</ele>
        <time>2019-05-09T13:09:28Z</time>
      </trkpt>
      <trkpt lat="44.77447" lon="5.59146">
        <ele>1291</ele>
        <time>2019-05-09T13:10:28Z</time>
      </trkpt>
      <trkpt lat="44.77417" lon="5.59095">
        <ele>1296</ele>
        <time>2019-05-09T13:11:28Z</time>
      </trkpt>
      <trkpt lat="44.77358" lon="5.5907">
        <ele>1282</ele>
        <time>2019-05-09T13:12:28Z</time>
      </trkpt>
      <trkpt lat="44.77355" lon="5.58991">
        <ele>1295</ele>
        <time>2019-05-09T13:13:28Z</time>
      </trkpt>
      <trkpt lat="44.77322" lon="5.58767">
        <ele>1316</ele>
        <time>2019-05-09T13:14:28Z</time>
      </trkpt>
      <trkpt lat="44.77296" lon="5.58796">
        <ele>1319</ele>
        <time>2019-05-09T13:15:28Z</time>
      </trkpt>
      <trkpt lat="44.77278" lon="5.58915">
        <ele>1303</ele>
        <time>2019-05-09T13:16:28Z</time>
      </trkpt>
      <trkpt lat="44.77237" lon="5.58944">
        <ele>1313</ele>
        <time>2019-05-09T13:17:28Z</time>
      </trkpt>
      <trkpt lat="44.77191" lon="5.59121">
        <ele>1299</ele>
        <time>2019-05-09T13:18:28Z</time>
      </trkpt>
      <trkpt lat="44.77117" lon="5.59034">
        <ele>1325</ele>
        <time>2019-05-09T13:19:28Z</time>
      </trkpt>
      <trkpt lat="44.77066" lon="5.59016">
        <ele>1329</ele>
        <time>2019-05-09T13:20:28Z</time>
      </trkpt>
      <trkpt lat="44.77063" lon="5.58969">
        <ele>1341</ele>
        <time>2019-05-09T13:21:28Z</time>
      </trkpt>
      <trkpt lat="44.77025" lon="5.59009">
        <ele>1333</ele>
        <time>2019-05-09T13:22:28Z</time>
      </trkpt>
      <trkpt lat="44.76979" lon="5.59034">
        <ele>1333</ele>
        <time>2019-05-09T13:23:28Z</time>
      </trkpt>
      <trkpt lat="44.7693" lon="5.59056">
        <ele>1339</ele>
        <time>2019-05-09T13:24:28Z</time>
      </trkpt>
      <trkpt lat="44.76894" lon="5.59077">
        <ele>1342</ele>
        <time>2019-05-09T13:25:28Z</time>
      </trkpt>
      <trkpt lat="44.76866" lon="5.59063">
        <ele>1354</ele>
        <time>2019-05-09T13:26:28Z</time>
      </trkpt>
      <trkpt lat="44.76843" lon="5.59121">
        <ele>1345</ele>
        <time>2019-05-09T13:27:28Z</time>
      </trkpt>
      <trkpt lat="44.76771" lon="5.59236">
        <ele>1335</ele>
        <time>2019-05-09T13:28:28Z</time>
      </trkpt>
      <trkpt lat="44.76707" lon="5.59236">
        <ele>1331</ele>
        <time>2019-05-09T13:29:28Z</time>
      </trkpt>
      <trkpt lat="44.76612" lon="5.59041">
        <ele>1379</ele>
        <time>2019-05-09T13:30:28Z</time>
      </trkpt>
      <trkpt lat="44.76561" lon="5.59088">
        <ele>1366</ele>
        <time>2019-05-09T13:31:28Z</time>
      </trkpt>
      <trkpt lat="44.76558" lon="5.59171">
        <ele>1354</ele>
        <time>2019-05-09T13:32:28Z</time>
      </trkpt>
      <trkpt lat="44.76489" lon="5.59446">
        <ele>1365</ele>
        <time>2019-05-09T13:33:28Z</time>
      </trkpt>
      <trkpt lat="44.7641" lon="5.59489">
        <ele>1399</ele>
        <time>2019-05-09T13:34:28Z</time>
      </trkpt>
      <trkpt lat="44.76376" lon="5.59579">
        <ele>1398</ele>
        <time>2019-05-09T13:35:28Z</time>
      </trkpt>
      <trkpt lat="44.76374" lon="5.59669">
        <ele>1384</ele>
        <time>2019-05-09T13:36:28Z</time>
      </trkpt>
      <trkpt lat="44.76274" lon="5.59857">
        <ele>1389</ele>
        <time>2019-05-09T13:37:28Z</time>
      </trkpt>
      <trkpt lat="44.7623" lon="5.59886">
        <ele>1407</ele>
        <time>2019-05-09T13:38:28Z</time>
      </trkpt>
      <trkpt lat="44.76246" lon="5.59962">
        <ele>1382</ele>
        <time>2019-05-09T13:39:28Z</time>
      </trkpt>
      <trkpt lat="44.76202" lon="5.60016">
        <ele>1392</ele>
        <time>2019-05-09T13:40:28Z</time>
      </trkpt>
      <trkpt lat="44.76128" lon="5.60135">
        <ele>1408</ele>
        <time>2019-05-09T13:41:28Z</time>
      </trkpt>
      <trkpt lat="44.76148" lon="5.60218">
        <ele>1393</ele>
        <time>2019-05-09T13:42:28Z</time>
      </trkpt>
      <trkpt lat="44.76125" lon="5.60265">
        <ele>1403</ele>
        <time>2019-05-09T13:43:28Z</time>
      </trkpt>
      <trkpt lat="44.7612" lon="5.60398">
        <ele>1388</ele>
        <time>2019-05-09T13:44:28Z</time>
      </trkpt>
      <trkpt lat="44.76092" lon="5.60452">
        <ele>1392</ele>
        <time>2019-05-09T13:45:28Z</time>
      </trkpt>
      <trkpt lat="44.76061" lon="5.60481">
        <ele>1390</ele>
        <time>2019-05-09T13:46:28Z</time>
      </trkpt>
      <trkpt lat="44.76038" lon="5.60387">
        <ele>1417</ele>
        <time>2019-05-09T13:47:28Z</time>
      </trkpt>
      <trkpt lat="44.75895" lon="5.60481">
        <ele>1424</ele>
        <time>2019-05-09T13:48:28Z</time>
      </trkpt>
      <trkpt lat="44.7571" lon="5.60232">
        <ele>1412</ele>
        <time>2019-05-09T13:49:28Z</time>
      </trkpt>
      <trkpt lat="44.75687" lon="5.60012">
        <ele>1398</ele>
        <time>2019-05-09T13:50:28Z</time>
      </trkpt>
      <trkpt lat="44.75638" lon="5.59969">
        <ele>1378</ele>
        <time>2019-05-09T13:51:28Z</time>
      </trkpt>
      <trkpt lat="44.75613" lon="5.59857">
        <ele>1385</ele>
        <time>2019-05-09T13:52:28Z</time>
      </trkpt>
      <trkpt lat="44.75569" lon="5.59799">
        <ele>1369</ele>
        <time>2019-05-09T13:53:28Z</time>
      </trkpt>
      <trkpt lat="44.75597" lon="5.59637">
        <ele>1378</ele>
        <time>2019-05-09T13:54:28Z</time>
      </trkpt>
      <trkpt lat="44.75546" lon="5.59489">
        <ele>1364</ele>
        <time>2019-05-09T13:55:28Z</time>
      </trkpt>
      <trkpt lat="44.75485" lon="5.59431">
        <ele>1351</ele>
        <time>2019-05-09T13:56:28Z</time>
      </trkpt>
      <trkpt lat="44.75474" lon="5.5933">
        <ele>1342</ele>
        <time>2019-05-09T13:57:28Z</time>
      </trkpt>
      <trkpt lat="44.75508" lon="5.59247">
        <ele>1348</ele>
        <time>2019-05-09T13:58:28Z</time>
      </trkpt>
      <trkpt lat="44.75472" lon="5.59175">
        <ele>1341</ele>
        <time>2019-05-09T13:59:28Z</time>
      </trkpt>
      <trkpt lat="44.75459" lon="5.59056">
        <ele>1341</ele>
        <time>2019-05-09T14:00:28Z</time>
      </trkpt>
      <trkpt lat="44.75459" lon="5.58994">
        <ele>1345</ele>
        <time>2019-05-09T14:01:28Z</time>
      </trkpt>
      <trkpt lat="44.75477" lon="5.5885">
        <ele>1362</ele>
        <time>2019-05-09T14:02:28Z</time>
      </trkpt>
      <trkpt lat="44.75426" lon="5.58868">
        <ele>1355</ele>
        <time>2019-05-09T14:03:28Z</time>
      </trkpt>
      <trkpt lat="44.7529" lon="5.58994">
        <ele>1308</ele>
        <time>2019-05-09T14:04:28Z</time>
      </trkpt>
      <trkpt lat="44.75172" lon="5.58774">
        <ele>1328</ele>
        <time>2019-05-09T14:05:28Z</time>
      </trkpt>
      <trkpt lat="44.7508" lon="5.58695">
        <ele>1307</ele>
        <time>2019-05-09T14:06:28Z</time>
      </trkpt>
      <trkpt lat="44.75036" lon="5.58616">
        <ele>1303</ele>
        <time>2019-05-09T14:07:28Z</time>
      </trkpt>
      <trkpt lat="44.75041" lon="5.58688">
        <ele>1291</ele>
        <time>2019-05-09T14:08:28Z</time>
      </trkpt>
      <trkpt lat="44.75126" lon="5.58832">
        <ele>1292</ele>
        <time>2019-05-09T14:09:28Z</time>
      </trkpt>
      <trkpt lat="44.75228" lon="5.59103">
        <ele>1265</ele>
        <time>2019-05-09T14:10:28Z</time>
      </trkpt>
      <trkpt lat="44.75344" lon="5.59088">
        <ele>1286</ele>
        <time>2019-05-09T14:11:28Z</time>
      </trkpt>
      <trkpt lat="44.75264" lon="5.59132">
        <ele>1268</ele>
        <time>2019-05-09T14:12:28Z</time>
      </trkpt>
      <trkpt lat="44.7521" lon="5.59135">
        <ele>1250</ele>
        <time>2019-05-09T14:13:28Z</time>
      </trkpt>
      <trkpt lat="44.75159" lon="5.59038">
        <ele>1254</ele>
        <time>2019-05-09T14:14:28Z</time>
      </trkpt>
      <trkpt lat="44.75103" lon="5.58951">
        <ele>1259</ele>
        <time>2019-05-09T14:15:28Z</time>
      </trkpt>
      <trkpt lat="44.75064" lon="5.5898">
        <ele>1241</ele>
        <time>2019-05-09T14:16:28Z</time>
      </trkpt>
      <trkpt lat="44.74941" lon="5.58872">
        <ele>1226</ele>
        <time>2019-05-09T14:17:28Z</time>
      </trkpt>
      <trkpt lat="44.74908" lon="5.58543">
        <ele>1229</ele>
        <time>2019-05-09T14:18:28Z</time>
      </trkpt>
      <trkpt lat="44.749" lon="5.58276">
        <ele>1218</ele>
        <time>2019-05-09T14:19:28Z</time>
      </trkpt>
      <trkpt lat="44.7488" lon="5.58222">
        <ele>1213</ele>
        <time>2019-05-09T14:20:28Z</time>
      </trkpt>
      <trkpt lat="44.74847" lon="5.58096">
        <ele>1215</ele>
        <time>2019-05-09T14:21:28Z</time>
      </trkpt>
      <trkpt lat="44.74772" lon="5.58132">
        <ele>1189</ele>
        <time>2019-05-09T14:22:28Z</time>
      </trkpt>
      <trkpt lat="44.74752" lon="5.58042">
        <ele>1198</ele>
        <time>2019-05-09T14:23:28Z</time>
      </trkpt>
      <trkpt lat="44.74667" lon="5.57923">
        <ele>1189</ele>
        <time>2019-05-09T14:24:28Z</time>
      </trkpt>
      <trkpt lat="44.74567" lon="5.57897">
        <ele>1168</ele>
        <time>2019-05-09T14:25:28Z</time>
      </trkpt>
      <trkpt lat="44.74526" lon="5.57843">
        <ele>1163</ele>
        <time>2019-05-09T14:26:28Z</time>
      </trkpt>
      <trkpt lat="44.7457" lon="5.57771">
        <ele>1170</ele>
        <time>2019-05-09T14:27:28Z</time>
      </trkpt>
      <trkpt lat="44.74539" lon="5.57742">
        <ele>1165</ele>
        <time>2019-05-09T14:28:28Z</time>
      </trkpt>
      <trkpt lat="44.74472" lon="5.57789">
        <ele>1150</ele>
        <time>2019-05-09T14:29:28Z</time>
      </trkpt>
      <trkpt lat="44.74421" lon="5.57728">
        <ele>1146</ele>
        <time>2019-05-09T14:30:28Z</time>
      </trkpt>
      <trkpt lat="44.74436" lon="5.5763">
        <ele>1141</ele>
        <time>2019-05-09T14:31:28Z</time>
      </trkpt>
      <trkpt lat="44.74539" lon="5.57508">
        <ele>1134</ele>
        <time>2019-05-09T14:32:28Z</time>
      </trkpt>
      <trkpt lat="44.7468" lon="5.57475">
        <ele>1148</ele>
        <time>2019-05-09T14:33:28Z</time>
      </trkpt>
      <trkpt lat="44.74593" lon="5.57251">
        <ele>1129</ele>
        <time>2019-05-09T14:34:28Z</time>
      </trkpt>
      <trkpt lat="44.74524" lon="5.57125">
        <ele>1129</ele>
        <time>2019-05-09T14:35:28Z</time>
      </trkpt>
      <trkpt lat="44.74462" lon="5.57031">
        <ele>1125</ele>
        <time>2019-05-09T14:36:28Z</time>
      </trkpt>
      <trkpt lat="44.74401" lon="5.56959">
        <ele>1109</ele>
        <time>2019-05-09T14:37:28Z</time>
      </trkpt>
      <trkpt lat="44.74375" lon="5.56905">
        <ele>1096</ele>
        <time>2019-05-09T14:38:28Z</time>
      </trkpt>
      <trkpt lat="44.74375" lon="5.56829">
        <ele>1088</ele>
        <time>2019-05-09T14:39:28Z</time>
      </trkpt>
      <trkpt lat="44.74483" lon="5.56764">
        <ele>1109</ele>
        <time>2019-05-09T14:40:28Z</time>
      </trkpt>
      <trkpt lat="44.74465" lon="5.56674">
        <ele>1096</ele>
        <time>2019-05-09T14:41:28Z</time>
      </trkpt>
      <trkpt lat="44.74447" lon="5.56555">
        <ele>1089</ele>
        <time>2019-05-09T14:42:28Z</time>
      </trkpt>
      <trkpt lat="44.74518" lon="5.56237">
        <ele>1085</ele>
        <time>2019-05-09T14:43:28Z</time>
      </trkpt>
      <trkpt lat="44.74444" lon="5.56057">
        <ele>1066</ele>
        <time>2019-05-09T14:44:28Z</time>
      </trkpt>
      <trkpt lat="44.74424" lon="5.55931">
        <ele>1067</ele>
        <time>2019-05-09T14:45:28Z</time>
      </trkpt>
      <trkpt lat="44.74367" lon="5.55895">
        <ele>1056</ele>
        <time>2019-05-09T14:46:28Z</time>
      </trkpt>
      <trkpt lat="44.74316" lon="5.55808">
        <ele>1050</ele>
        <time>2019-05-09T14:47:28Z</time>
      </trkpt>
      <trkpt lat="44.7427" lon="5.55656">
        <ele>1048</ele>
        <time>2019-05-09T14:48:28Z</time>
      </trkpt>
      <trkpt lat="44.74247" lon="5.55537">
        <ele>1043</ele>
        <time>2019-05-09T14:49:28Z</time>
      </trkpt>
      <trkpt lat="44.74242" lon="5.55458">
        <ele>1039</ele>
        <time>2019-05-09T14:50:28Z</time>
      </trkpt>
      <trkpt lat="44.74296" lon="5.55194">
        <ele>1036</ele>
        <time>2019-05-09T14:51:28Z</time>
      </trkpt>
      <trkpt lat="44.7427" lon="5.5509">
        <ele>1024</ele>
        <time>2019-05-09T14:52:28Z</time>
      </trkpt>
      <trkpt lat="44.74298" lon="5.54996">
        <ele>1016</ele>
        <time>2019-05-09T14:53:28Z</time>
      </trkpt>
      <trkpt lat="44.74516" lon="5.54747">
        <ele>1007</ele>
        <time>2019-05-09T14:54:28Z</time>
      </trkpt>
      <trkpt lat="44.74675" lon="5.54484">
        <ele>992</ele>
        <time>2019-05-09T14:55:28Z</time>
      </trkpt>
      <trkpt lat="44.74657" lon="5.5444">
        <ele>989</ele>
        <time>2019-05-09T14:56:28Z</time>
      </trkpt>
      <trkpt lat="44.74601" lon="5.5439">
        <ele>988</ele>
        <time>2019-05-09T14:57:28Z</time>
      </trkpt>
      <trkpt lat="44.74524" lon="5.54382">
        <ele>985</ele>
        <time>2019-05-09T14:58:28Z</time>
      </trkpt>
      <trkpt lat="44.74465" lon="5.54422">
        <ele>969</ele>
        <time>2019-05-09T14:59:28Z</time>
      </trkpt>
      <trkpt lat="44.74408" lon="5.54429">
        <ele>968</ele>
        <time>2019-05-09T15:00:28Z</time>
      </trkpt>
      <trkpt lat="44.74365" lon="5.54415">
        <ele>971</ele>
        <time>2019-05-09T15:01:28Z</time>
      </trkpt>
      <trkpt lat="44.74216" lon="5.54426">
        <ele>965</ele>
        <time>2019-05-09T15:02:28Z</time>
      </trkpt>
      <trkpt lat="44.7418" lon="5.54451">
        <ele>953</ele>
        <time>2019-05-09T15:03:28Z</time>
      </trkpt>
      <trkpt lat="44.74121" lon="5.54429">
        <ele>965</ele>
        <time>2019-05-09T15:04:28Z</time>
      </trkpt>
      <trkpt lat="44.73962" lon="5.54498">
        <ele>959</ele>
        <time>2019-05-09T15:05:28Z</time>
      </trkpt>
      <trkpt lat="44.74057" lon="5.54491">
        <ele>941</ele>
        <time>2019-05-09T15:06:28Z</time>
      </trkpt>
      <trkpt lat="44.74132" lon="5.54478">
        <ele>941</ele>
        <time>2019-05-09T15:07:28Z</time>
      </trkpt>
      <trkpt lat="44.7421" lon="5.54522">
        <ele>926</ele>
        <time>2019-05-09T15:08:28Z</time>
      </trkpt>
      <trkpt lat="44.74316" lon="5.54513">
        <ele>934</ele>
        <time>2019-05-09T15:09:28Z</time>
      </trkpt>
      <trkpt lat="44.74327" lon="5.54671">
        <ele>921</ele>
        <time>2019-05-09T15:10:28Z</time>
      </trkpt>
      <trkpt lat="44.74303" lon="5.54726">
        <ele>923</ele>
        <time>2019-05-09T15:11:28Z</time>
      </trkpt>
      <trkpt lat="44.74208" lon="5.54814">
        <ele>905</ele>
        <time>2019-05-09T15:12:28Z</time>
      </trkpt>
      <trkpt lat="44.74135" lon="5.54914">
        <ele>901</ele>
        <time>2019-05-09T15:13:28Z</time>
      </trkpt>
      <trkpt lat="44.74079" lon="5.55023">
        <ele>902</ele>
        <time>2019-05-09T15:14:28Z</time>
      </trkpt>
      <trkpt lat="44.73939" lon="5.55148">
        <ele>896</ele>
        <time>2019-05-09T15:15:28Z</time>
      </trkpt>
      <trkpt lat="44.73854" lon="5.55193">
        <ele>886</ele>
        <time>2019-05-09T15:16:28Z</time>
      </trkpt>
      <trkpt lat="44.73779" lon="5.55217">
        <ele>872</ele>
        <time>2019-05-09T15:17:28Z</time>
      </trkpt>
      <trkpt lat="44.73762" lon="5.55284">
        <ele>876</ele>
        <time>2019-05-09T15:18:28Z</time>
      </trkpt>
      <trkpt lat="44.73779" lon="5.55384">
        <ele>879</ele>
        <time>2019-05-09T15:19:28Z</time>
      </trkpt>
      <trkpt lat="44.73809" lon="5.55469">
        <ele>874</ele>
        <time>2019-05-09T15:20:28Z</time>
      </trkpt>
      <trkpt lat="44.73762" lon="5.55521">
        <ele>866</ele>
        <time>2019-05-09T15:21:28Z</time>
      </trkpt>
      <trkpt lat="44.73712" lon="5.55472">
        <ele>866</ele>
        <time>2019-05-09T15:22:28Z</time>
      </trkpt>
      <trkpt lat="44.73678" lon="5.55393">
        <ele>860</ele>
        <time>2019-05-09T15:23:28Z</time>
      </trkpt>
      <trkpt lat="44.73643" lon="5.55336">
        <ele>853</ele>
        <time>2019-05-09T15:24:28Z</time>
      </trkpt>
      <trkpt lat="44.73635" lon="5.55199">
        <ele>842</ele>
        <time>2019-05-09T15:25:28Z</time>
      </trkpt>
      <trkpt lat="44.73721" lon="5.55175">
        <ele>849</ele>
        <time>2019-05-09T15:26:28Z</time>
      </trkpt>
      <trkpt lat="44.73822" lon="5.5506">
        <ele>839</ele>
        <time>2019-05-09T15:27:28Z</time>
      </trkpt>
      <trkpt lat="44.73874" lon="5.54926">
        <ele>826</ele>
        <time>2019-05-09T15:28:28Z</time>
      </trkpt>
      <trkpt lat="44.7393" lon="5.54847">
        <ele>838</ele>
        <time>2019-05-09T15:29:28Z</time>
      </trkpt>
      <trkpt lat="44.73857" lon="5.54814">
        <ele>838</ele>
        <time>2019-05-09T15:30:28Z</time>
      </trkpt>
      <trkpt lat="44.73762" lon="5.54844">
        <ele>825</ele>
        <time>2019-05-09T15:31:28Z</time>
      </trkpt>
      <trkpt lat="44.73695" lon="5.54841">
        <ele>824</ele>
        <time>2019-05-09T15:32:28Z</time>
      </trkpt>
      <trkpt lat="44.7363" lon="5.54853">
        <ele>812</ele>
        <time>2019-05-09T15:33:28Z</time>
      </trkpt>
      <trkpt lat="44.73531" lon="5.54792">
        <ele>812</ele>
        <time>2019-05-09T15:34:28Z</time>
      </trkpt>
      <trkpt lat="44.73428" lon="5.5475">
        <ele>808</ele>
        <time>2019-05-09T15:35:28Z</time>
      </trkpt>
      <trkpt lat="44.73346" lon="5.54753">
        <ele>804</ele>
        <time>2019-05-09T15:36:28Z</time>
      </trkpt>
      <trkpt lat="44.73216" lon="5.54865">
        <ele>777</ele>
        <time>2019-05-09T15:37:28Z</time>
      </trkpt>
      <trkpt lat="44.73104" lon="5.54771">
        <ele>785</ele>
        <time>2019-05-09T15:38:28Z</time>
      </trkpt>
      <trkpt lat="44.73018" lon="5.5478">
        <ele>780</ele>
        <time>2019-05-09T15:39:28Z</time>
      </trkpt>
      <trkpt lat="44.72938" lon="5.54814">
        <ele>764</ele>
        <time>2019-05-09T15:40:28Z</time>
      </trkpt>
      <trkpt lat="44.72828" lon="5.54789">
        <ele>760</ele>
        <time>2019-05-09T15:41:28Z</time>
      </trkpt>
      <trkpt lat="44.72766" lon="5.5475">
        <ele>762</ele>
        <time>2019-05-09T15:42:28Z</time>
      </trkpt>
      <trkpt lat="44.72697" lon="5.54717">
        <ele>761</ele>
        <time>2019-05-09T15:43:28Z</time>
      </trkpt>
      <trkpt lat="44.72634" lon="5.54714">
        <ele>750</ele>
        <time>2019-05-09T15:44:28Z</time>
      </trkpt>
      <trkpt lat="44.72548" lon="5.54683">
        <ele>744</ele>
        <time>2019-05-09T15:45:28Z</time>
      </trkpt>
      <trkpt lat="44.7247" lon="5.54595">
        <ele>737</ele>
        <time>2019-05-09T15:46:28Z</time>
      </trkpt>
      <trkpt lat="44.72455" lon="5.54389">
        <ele>753</ele>
        <time>2019-05-09T15:47:28Z</time>
      </trkpt>
      <trkpt lat="44.72425" lon="5.54292">
        <ele>752</ele>
        <time>2019-05-09T15:48:28Z</time>
      </trkpt>
      <trkpt lat="44.72358" lon="5.54176">
        <ele>736</ele>
        <time>2019-05-09T15:49:28Z</time>
      </trkpt>
      <trkpt lat="44.72302" lon="5.54091">
        <ele>726</ele>
        <time>2019-05-09T15:50:28Z</time>
      </trkpt>
      <trkpt lat="44.7235" lon="5.54258">
        <ele>715</ele>
        <time>2019-05-09T15:51:28Z</time>
      </trkpt>
      <trkpt lat="44.72401" lon="5.54459">
        <ele>717</ele>
        <time>2019-05-09T15:52:28Z</time>
      </trkpt>
      <trkpt lat="44.72354" lon="5.54368">
        <ele>702</ele>
        <time>2019-05-09T15:53:28Z</time>
      </trkpt>
      <trkpt lat="44.7227" lon="5.54192">
        <ele>694</ele>
        <time>2019-05-09T15:54:28Z</time>
      </trkpt>
      <trkpt lat="44.72197" lon="5.54082">
        <ele>690</ele>
        <time>2019-05-09T15:55:28Z</time>
      </trkpt>
      <trkpt lat="44.72138" lon="5.5397">
        <ele>692</ele>
        <time>2019-05-09T15:56:28Z</time>
      </trkpt>
      <trkpt lat="44.72128" lon="5.53861">
        <ele>692</ele>
        <time>2019-05-09T15:57:28Z</time>
      </trkpt>
      <trkpt lat="44.72134" lon="5.53758">
        <ele>694</ele>
        <time>2019-05-09T15:58:28Z</time>
      </trkpt>
      <trkpt lat="44.72104" lon="5.53682">
        <ele>690</ele>
        <time>2019-05-09T15:59:28Z</time>
      </trkpt>
      <trkpt lat="44.72061" lon="5.53621">
        <ele>691</ele>
        <time>2019-05-09T16:00:28Z</time>
      </trkpt>
      <trkpt lat="44.72003" lon="5.53603">
        <ele>675</ele>
        <time>2019-05-09T16:01:28Z</time>
      </trkpt>
      <trkpt lat="44.71955" lon="5.53515">
        <ele>684</ele>
        <time>2019-05-09T16:02:28Z</time>
      </trkpt>
      <trkpt lat="44.71901" lon="5.53479">
        <ele>676</ele>
        <time>2019-05-09T16:03:28Z</time>
      </trkpt>
      <trkpt lat="44.71793" lon="5.53445">
        <ele>666</ele>
        <time>2019-05-09T16:04:28Z</time>
      </trkpt>
      <trkpt lat="44.71707" lon="5.53284">
        <ele>672</ele>
        <time>2019-05-09T16:05:28Z</time>
      </trkpt>
      <trkpt lat="44.71658" lon="5.53221">
        <ele>664</ele>
        <time>2019-05-09T16:06:28Z</time>
      </trkpt>
      <trkpt lat="44.71602" lon="5.5319">
        <ele>655</ele>
        <time>2019-05-09T16:07:28Z</time>
      </trkpt>
      <trkpt lat="44.71513" lon="5.52835">
        <ele>642</ele>
        <time>2019-05-09T16:08:28Z</time>
      </trkpt>
      <trkpt lat="44.71358" lon="5.52814">
        <ele>657</ele>
        <time>2019-05-09T16:09:28Z</time>
      </trkpt>
      <trkpt lat="44.71246" lon="5.52838">
        <ele>655</ele>
        <time>2019-05-09T16:10:28Z</time>
      </trkpt>
      <trkpt lat="44.71131" lon="5.5285">
        <ele>656</ele>
        <time>2019-05-09T16:11:28Z</time>
      </trkpt>
      <trkpt lat="44.7103" lon="5.52826">
        <ele>651</ele>
        <time>2019-05-09T16:12:28Z</time>
      </trkpt>
      <trkpt lat="44.70961" lon="5.52817">
        <ele>642</ele>
        <time>2019-05-09T16:13:28Z</time>
      </trkpt>
      <trkpt lat="44.7089" lon="5.52741">
        <ele>655</ele>
        <time>2019-05-09T16:14:28Z</time>
      </trkpt>
      <trkpt lat="44.70806" lon="5.52756">
        <ele>640</ele>
        <time>2019-05-09T16:15:28Z</time>
      </trkpt>
      <trkpt lat="44.70659" lon="5.52717">
        <ele>648</ele>
        <time>2019-05-09T16:16:28Z</time>
      </trkpt>
      <trkpt lat="44.70566" lon="5.52756">
        <ele>635</ele>
        <time>2019-05-09T16:17:28Z</time>
      </trkpt>
      <trkpt lat="44.70517" lon="5.52774">
        <ele>630</ele>
        <time>2019-05-09T16:18:28Z</time>
      </trkpt>
      <trkpt lat="44.70383" lon="5.52735">
        <ele>630</ele>
        <time>2019-05-09T16:19:28Z</time>
      </trkpt>
      <trkpt lat="44.70314" lon="5.52668">
        <ele>636</ele>
        <time>2019-05-09T16:20:28Z</time>
      </trkpt>
      <trkpt lat="44.70223" lon="5.52647">
        <ele>628</ele>
        <time>2019-05-09T16:21:28Z</time>
      </trkpt>
      <trkpt lat="44.70079" lon="5.52544">
        <ele>631</ele>
        <time>2019-05-09T16:22:28Z</time>
      </trkpt>
      <trkpt lat="44.69971" lon="5.52444">
        <ele>628</ele>
        <time>2019-05-09T16:23:28Z</time>
      </trkpt>
      <trkpt lat="44.69917" lon="5.52401">
        <ele>628</ele>
        <time>2019-05-09T16:24:28Z</time>
      </trkpt>
      <trkpt lat="44.69855" lon="5.52334">
        <ele>627</ele>
        <time>2019-05-09T16:25:28Z</time>
      </trkpt>
      <trkpt lat="44.69732" lon="5.52295">
        <ele>624</ele>
        <time>2019-05-09T16:26:28Z</time>
      </trkpt>
      <trkpt lat="44.69656" lon="5.52307">
        <ele>616</ele>
        <time>2019-05-09T16:27:28Z</time>
      </trkpt>
      <trkpt lat="44.69596" lon="5.52283">
        <ele>617</ele>
        <time>2019-05-09T16:28:28Z</time>
      </trkpt>
      <trkpt lat="44.6954" lon="5.52292">
        <ele>614</ele>
        <time>2019-05-09T16:29:28Z</time>
      </trkpt>
      <trkpt lat="44.6943" lon="5.52195">
        <ele>618</ele>
        <time>2019-05-09T16:30:28Z</time>
      </trkpt>
      <trkpt lat="44.69348" lon="5.52195">
        <ele>611</ele>
        <time>2019-05-09T16:31:28Z</time>
      </trkpt>
      <trkpt lat="44.69274" lon="5.5208">
        <ele>615</ele>
        <time>2019-05-09T16:32:28Z</time>
      </trkpt>
      <trkpt lat="44.69138" lon="5.51976">
        <ele>614</ele>
        <time>2019-05-09T16:33:28Z</time>
      </trkpt>
      <trkpt lat="44.69048" lon="5.51934">
        <ele>613</ele>
        <time>2019-05-09T16:34:28Z</time>
      </trkpt>
      <trkpt lat="44.68964" lon="5.51913">
        <ele>606</ele>
        <time>2019-05-09T16:35:28Z</time>
      </trkpt>
      <trkpt lat="44.68884" lon="5.51843">
        <ele>611</ele>
        <time>2019-05-09T16:36:28Z</time>
      </trkpt>
      <trkpt lat="44.68821" lon="5.51758">
        <ele>604</ele>
        <time>2019-05-09T16:37:28Z</time>
      </trkpt>
      <trkpt lat="44.68787" lon="5.51549">
        <ele>601</ele>
        <time>2019-05-09T16:38:28Z</time>
      </trkpt>
      <trkpt lat="44.68867" lon="5.51424">
        <ele>608</ele>
        <time>2019-05-09T16:39:28Z</time>
      </trkpt>
      <trkpt lat="44.68901" lon="5.51254">
        <ele>601</ele>
        <time>2019-05-09T16:40:28Z</time>
      </trkpt>
      <trkpt lat="44.68977" lon="5.51154">
        <ele>602</ele>
        <time>2019-05-09T16:41:28Z</time>
      </trkpt>
      <trkpt lat="44.68998" lon="5.51081">
        <ele>593</ele>
        <time>2019-05-09T16:42:28Z</time>
      </trkpt>
      <trkpt lat="44.69069" lon="5.50993">
        <ele>601</ele>
        <time>2019-05-09T16:43:28Z</time>
      </trkpt>
      <trkpt lat="44.69069" lon="5.50908">
        <ele>592</ele>
        <time>2019-05-09T16:44:28Z</time>
      </trkpt>
      <trkpt lat="44.6911" lon="5.50726">
        <ele>589</ele>
        <time>2019-05-09T16:45:28Z</time>
      </trkpt>
      <trkpt lat="44.69164" lon="5.50596">
        <ele>595</ele>
        <time>2019-05-09T16:46:28Z</time>
      </trkpt>
      <trkpt lat="44.6919" lon="5.50462">
        <ele>596</ele>
        <time>2019-05-09T16:47:28Z</time>
      </trkpt>
      <trkpt lat="44.69214" lon="5.5038">
        <ele>600</ele>
        <time>2019-05-09T16:48:28Z</time>
      </trkpt>
      <trkpt lat="44.69197" lon="5.50265">
        <ele>593</ele>
        <time>2019-05-09T16:49:28Z</time>
      </trkpt>
      <trkpt lat="44.69227" lon="5.50137">
        <ele>602</ele>
        <time>2019-05-09T16:50:28Z</time>
      </trkpt>
      <trkpt lat="44.6921" lon="5.49949">
        <ele>590</ele>
        <time>2019-05-09T16:51:28Z</time>
      </trkpt>
      <trkpt lat="44.69352" lon="5.49643">
        <ele>588</ele>
        <time>2019-05-09T16:52:28Z</time>
      </trkpt>
      <trkpt lat="44.6941" lon="5.49042">
        <ele>569</ele>
        <time>2019-05-09T16:53:28Z</time>
      </trkpt>
      <trkpt lat="44.69434" lon="5.48975">
        <ele>569</ele>
        <time>2019-05-09T16:54:28Z</time>
      </trkpt>
      <trkpt lat="44.69501" lon="5.48872">
        <ele>576</ele>
        <time>2019-05-09T16:55:28Z</time>
      </trkpt>
      <trkpt lat="44.69522" lon="5.48717">
        <ele>582</ele>
        <time>2019-05-09T16:56:28Z</time>
      </trkpt>
      <trkpt lat="44.69514" lon="5.48499">
        <ele>588</ele>
        <time>2019-05-09T16:57:28Z</time>
      </trkpt>
      <trkpt lat="44.69425" lon="5.48508">
        <ele>575</ele>
        <time>2019-05-09T16:58:28Z</time>
      </trkpt>
      <trkpt lat="44.69438" lon="5.48754">
        <ele>566</ele>
        <time>2019-05-09T16:59:28Z</time>
      </trkpt>
      <trkpt lat="44.69443" lon="5.48948">
        <ele>570</ele>
        <time>2019-05-09T17:00:28Z</time>
      </trkpt>
      <trkpt lat="44.69354" lon="5.49072">
        <ele>567</ele>
        <time>2019-05-09T17:01:28Z</time>
      </trkpt>
      <trkpt lat="44.69296" lon="5.49063">
        <ele>568</ele>
        <time>2019-05-09T17:02:28Z</time>
      </trkpt>
      <trkpt lat="44.69233" lon="5.49081">
        <ele>571</ele>
        <time>2019-05-09T17:03:28Z</time>
      </trkpt>
      <trkpt lat="44.69186" lon="5.49191">
        <ele>565</ele>
        <time>2019-05-09T17:04:28Z</time>
      </trkpt>
      <trkpt lat="44.69162" lon="5.49409">
        <ele>569</ele>
        <time>2019-05-09T17:05:28Z</time>
      </trkpt>
      <trkpt lat="44.69125" lon="5.49531">
        <ele>570</ele>
        <time>2019-05-09T17:06:28Z</time>
      </trkpt>
      <trkpt lat="44.69048" lon="5.49734">
        <ele>574</ele>
        <time>2019-05-09T17:07:28Z</time>
      </trkpt>
      <trkpt lat="44.68968" lon="5.49907">
        <ele>579</ele>
        <time>2019-05-09T17:08:28Z</time>
      </trkpt>
      <trkpt lat="44.68851" lon="5.5011">
        <ele>584</ele>
        <time>2019-05-09T17:09:28Z</time>
      </trkpt>
      <trkpt lat="44.68757" lon="5.50283">
        <ele>589</ele>
        <time>2019-05-09T17:10:28Z</time>
      </trkpt>
      <trkpt lat="44.68713" lon="5.50389">
        <ele>604</ele>
        <time>2019-05-09T17:11:28Z</time>
      </trkpt>
      <trkpt lat="44.68793" lon="5.50605">
        <ele>600</ele>
        <time>2019-05-09T17:12:28Z</time>
      </trkpt>
      <trkpt lat="44.68832" lon="5.50996">
        <ele>604</ele>
        <time>2019-05-09T17:13:28Z</time>
      </trkpt>
      <trkpt lat="44.68735" lon="5.51242">
        <ele>616</ele>
        <time>2019-05-09T17:14:28Z</time>
      </trkpt>
      <trkpt lat="44.687" lon="5.51385">
        <ele>609</ele>
        <time>2019-05-09T17:15:28Z</time>
      </trkpt>
      <trkpt lat="44.68629" lon="5.51439">
        <ele>624</ele>
        <time>2019-05-09T17:16:28Z</time>
      </trkpt>
      <trkpt lat="44.68599" lon="5.51542">
        <ele>609</ele>
        <time>2019-05-09T17:17:28Z</time>
      </trkpt>
      <trkpt lat="44.68517" lon="5.51649">
        <ele>603</ele>
        <time>2019-05-09T17:18:28Z</time>
      </trkpt>
      <trkpt lat="44.68422" lon="5.51767">
        <ele>597</ele>
        <time>2019-05-09T17:19:28Z</time>
      </trkpt>
      <trkpt lat="44.68306" lon="5.51931">
        <ele>606</ele>
        <time>2019-05-09T17:20:28Z</time>
      </trkpt>
      <trkpt lat="44.68094" lon="5.52119">
        <ele>619</ele>
        <time>2019-05-09T17:21:28Z</time>
      </trkpt>
      <trkpt lat="44.68116" lon="5.52259">
        <ele>621</ele>
        <time>2019-05-09T17:22:28Z</time>
      </trkpt>
      <trkpt lat="44.68045" lon="5.52435">
        <ele>623</ele>
        <time>2019-05-09T17:23:28Z</time>
      </trkpt>
      <trkpt lat="44.68062" lon="5.52571">
        <ele>632</ele>
        <time>2019-05-09T17:24:28Z</time>
      </trkpt>
      <trkpt lat="44.67971" lon="5.52732">
        <ele>632</ele>
        <time>2019-05-09T17:25:28Z</time>
      </trkpt>
      <trkpt lat="44.67865" lon="5.52941">
        <ele>635</ele>
        <time>2019-05-09T17:26:28Z</time>
      </trkpt>
      <trkpt lat="44.67758" lon="5.53087">
        <ele>636</ele>
        <time>2019-05-09T17:27:28Z</time>
      </trkpt>
      <trkpt lat="44.67619" lon="5.5319">
        <ele>647</ele>
        <time>2019-05-09T17:28:28Z</time>
      </trkpt>
      <trkpt lat="44.67589" lon="5.53287">
        <ele>648</ele>
        <time>2019-05-09T17:29:28Z</time>
      </trkpt>
      <trkpt lat="44.67542" lon="5.53412">
        <ele>648</ele>
        <time>2019-05-09T17:30:28Z</time>
      </trkpt>
      <trkpt lat="44.67512" lon="5.53539">
        <ele>658</ele>
        <time>2019-05-09T17:31:28Z</time>
      </trkpt>
      <trkpt lat="44.6744" lon="5.53597">
        <ele>668</ele>
        <time>2019-05-09T17:32:28Z</time>
      </trkpt>
      <trkpt lat="44.67382" lon="5.53594">
        <ele>659</ele>
        <time>2019-05-09T17:33:28Z</time>
      </trkpt>
      <trkpt lat="44.67276" lon="5.53533">
        <ele>648</ele>
        <time>2019-05-09T17:34:28Z</time>
      </trkpt>
      <trkpt lat="44.67248" lon="5.53536">
        <ele>648</ele>
        <time>2019-05-09T17:35:28Z</time>
      </trkpt>
      <trkpt lat="44.67244" lon="5.53624">
        <ele>656</ele>
        <time>2019-05-09T17:36:28Z</time>
      </trkpt>
      <trkpt lat="44.6716" lon="5.53824">
        <ele>654</ele>
        <time>2019-05-09T17:37:28Z</time>
      </trkpt>
      <trkpt lat="44.66838" lon="5.5424">
        <ele>665</ele>
        <time>2019-05-09T17:38:28Z</time>
      </trkpt>
      <trkpt lat="44.66799" lon="5.54337">
        <ele>674</ele>
        <time>2019-05-09T17:39:28Z</time>
      </trkpt>
      <trkpt lat="44.66834" lon="5.54425">
        <ele>670</ele>
        <time>2019-05-09T17:40:28Z</time>
      </trkpt>
      <trkpt lat="44.66812" lon="5.5451">
        <ele>692</ele>
        <time>2019-05-09T17:41:28Z</time>
      </trkpt>
      <trkpt lat="44.66752" lon="5.54562">
        <ele>687</ele>
        <time>2019-05-09T17:42:28Z</time>
      </trkpt>
      <trkpt lat="44.66689" lon="5.54629">
        <ele>702</ele>
        <time>2019-05-09T17:43:28Z</time>
      </trkpt>
      <trkpt lat="44.6661" lon="5.54665">
        <ele>687</ele>
        <time>2019-05-09T17:44:28Z</time>
      </trkpt>
      <trkpt lat="44.66616" lon="5.54765">
        <ele>693</ele>
        <time>2019-05-09T17:45:28Z</time>
      </trkpt>
      <trkpt lat="44.66668" lon="5.54917">
        <ele>681</ele>
        <time>2019-05-09T17:46:28Z</time>
      </trkpt>
      <trkpt lat="44.66774" lon="5.55151">
        <ele>699</ele>
        <time>2019-05-09T17:47:28Z</time>
      </trkpt>
      <trkpt lat="44.66873" lon="5.5536">
        <ele>706</ele>
        <time>2019-05-09T17:48:28Z</time>
      </trkpt>
      <trkpt lat="44.66985" lon="5.555">
        <ele>703</ele>
        <time>2019-05-09T17:49:28Z</time>
      </trkpt>
      <trkpt lat="44.67067" lon="5.55615">
        <ele>711</ele>
        <time>2019-05-09T17:50:28Z</time>
      </trkpt>
      <trkpt lat="44.67173" lon="5.55648">
        <ele>718</ele>
        <time>2019-05-09T17:51:28Z</time>
      </trkpt>
      <trkpt lat="44.67203" lon="5.55791">
        <ele>708</ele>
        <time>2019-05-09T17:52:28Z</time>
      </trkpt>
      <trkpt lat="44.67291" lon="5.55845">
        <ele>728</ele>
        <time>2019-05-09T17:53:28Z</time>
      </trkpt>
      <trkpt lat="44.67335" lon="5.55937">
        <ele>710</ele>
        <time>2019-05-09T17:54:28Z</time>
      </trkpt>
      <trkpt lat="44.67384" lon="5.55991">
        <ele>725</ele>
        <time>2019-05-09T17:55:28Z</time>
      </trkpt>
      <trkpt lat="44.67395" lon="5.56131">
        <ele>730</ele>
        <time>2019-05-09T17:56:28Z</time>
      </trkpt>
      <trkpt lat="44.6743" lon="5.56185">
        <ele>726</ele>
        <time>2019-05-09T17:57:28Z</time>
      </trkpt>
      <trkpt lat="44.6754" lon="5.56194">
        <ele>740</ele>
        <time>2019-05-09T17:58:28Z</time>
      </trkpt>
      <trkpt lat="44.67632" lon="5.56188">
        <ele>742</ele>
        <time>2019-05-09T17:59:28Z</time>
      </trkpt>
      <trkpt lat="44.67708" lon="5.5624">
        <ele>736</ele>
        <time>2019-05-09T18:00:28Z</time>
      </trkpt>
      <trkpt lat="44.67678" lon="5.56328">
        <ele>736</ele>
        <time>2019-05-09T18:01:28Z</time>
      </trkpt>
      <trkpt lat="44.67753" lon="5.56434">
        <ele>736</ele>
        <time>2019-05-09T18:02:28Z</time>
      </trkpt>
      <trkpt lat="44.6784" lon="5.56477">
        <ele>764</ele>
        <time>2019-05-09T18:03:28Z</time>
      </trkpt>
      <trkpt lat="44.67861" lon="5.56571">
        <ele>751</ele>
        <time>2019-05-09T18:04:28Z</time>
      </trkpt>
      <trkpt lat="44.67883" lon="5.56631">
        <ele>754</ele>
        <time>2019-05-09T18:05:28Z</time>
      </trkpt>
      <trkpt lat="44.67883" lon="5.56689">
        <ele>746</ele>
        <time>2019-05-09T18:06:28Z</time>
      </trkpt>
      <trkpt lat="44.67943" lon="5.56735">
        <ele>741</ele>
        <time>2019-05-09T18:07:28Z</time>
      </trkpt>
      <trkpt lat="44.68101" lon="5.57032">
        <ele>756</ele>
        <time>2019-05-09T18:08:28Z</time>
      </trkpt>
      <trkpt lat="44.68198" lon="5.57056">
        <ele>778</ele>
        <time>2019-05-09T18:09:28Z</time>
      </trkpt>
      <trkpt lat="44.6823" lon="5.57166">
        <ele>766</ele>
        <time>2019-05-09T18:10:28Z</time>
      </trkpt>
      <trkpt lat="44.68299" lon="5.57296">
        <ele>775</ele>
        <time>2019-05-09T18:11:28Z</time>
      </trkpt>
      <trkpt lat="44.68323" lon="5.57357">
        <ele>770</ele>
        <time>2019-05-09T18:12:28Z</time>
      </trkpt>
      <trkpt lat="44.68565" lon="5.57524">
        <ele>818</ele>
        <time>2019-05-09T18:13:28Z</time>
      </trkpt>
      <trkpt lat="44.68675" lon="5.57514">
        <ele>811</ele>
        <time>2019-05-09T18:14:28Z</time>
      </trkpt>
      <trkpt lat="44.68748" lon="5.5756">
        <ele>819</ele>
        <time>2019-05-09T18:15:28Z</time>
      </trkpt>
      <trkpt lat="44.68813" lon="5.57727">
        <ele>861</ele>
        <time>2019-05-09T18:16:28Z</time>
      </trkpt>
      <trkpt lat="44.68867" lon="5.57812">
        <ele>839</ele>
        <time>2019-05-09T18:17:28Z</time>
      </trkpt>
      <trkpt lat="44.68871" lon="5.5793">
        <ele>790</ele>
        <time>2019-05-09T18:18:28Z</time>
      </trkpt>
      <trkpt lat="44.68992" lon="5.57991">
        <ele>817</ele>
        <time>2019-05-09T18:19:28Z</time>
      </trkpt>
      <trkpt lat="44.69005" lon="5.58073">
        <ele>791</ele>
        <time>2019-05-09T18:20:28Z</time>
      </trkpt>
      <trkpt lat="44.68921" lon="5.57985">
        <ele>785</ele>
        <time>2019-05-09T18:21:28Z</time>
      </trkpt>
      <trkpt lat="44.68843" lon="5.57982">
        <ele>792</ele>
        <time>2019-05-09T18:22:28Z</time>
      </trkpt>
      <trkpt lat="44.68793" lon="5.58058">
        <ele>813</ele>
        <time>2019-05-09T18:23:28Z</time>
      </trkpt>
      <trkpt lat="44.68765" lon="5.58161">
        <ele>802</ele>
        <time>2019-05-09T18:24:28Z</time>
      </trkpt>
      <trkpt lat="44.68761" lon="5.58279">
        <ele>793</ele>
        <time>2019-05-09T18:25:28Z</time>
      </trkpt>
      <trkpt lat="44.68798" lon="5.5834">
        <ele>800</ele>
        <time>2019-05-09T18:26:28Z</time>
      </trkpt>
      <trkpt lat="44.6883" lon="5.58425">
        <ele>812</ele>
        <time>2019-05-09T18:27:28Z</time>
      </trkpt>
      <trkpt lat="44.68735" lon="5.58558">
        <ele>823</ele>
        <time>2019-05-09T18:28:28Z</time>
      </trkpt>
      <trkpt lat="44.68705" lon="5.58616">
        <ele>837</ele>
        <time>2019-05-09T18:29:28Z</time>
      </trkpt>
      <trkpt lat="44.6864" lon="5.58701">
        <ele>861</ele>
        <time>2019-05-09T18:30:28Z</time>
      </trkpt>
      <trkpt lat="44.68571" lon="5.5878">
        <ele>896</ele>
        <time>2019-05-09T18:31:28Z</time>
      </trkpt>
      <trkpt lat="44.68513" lon="5.58828">
        <ele>917</ele>
        <time>2019-05-09T18:32:28Z</time>
      </trkpt>
      <trkpt lat="44.68485" lon="5.58962">
        <ele>879</ele>
        <time>2019-05-09T18:33:28Z</time>
      </trkpt>
      <trkpt lat="44.6845" lon="5.59199">
        <ele>878</ele>
        <time>2019-05-09T18:34:28Z</time>
      </trkpt>
      <trkpt lat="44.68426" lon="5.59296">
        <ele>866</ele>
        <time>2019-05-09T18:35:28Z</time>
      </trkpt>
      <trkpt lat="44.68398" lon="5.59366">
        <ele>867</ele>
        <time>2019-05-09T18:36:28Z</time>
      </trkpt>
      <trkpt lat="44.68411" lon="5.59444">
        <ele>860</ele>
        <time>2019-05-09T18:37:28Z</time>
      </trkpt>
      <trkpt lat="44.68496" lon="5.59499">
        <ele>852</ele>
        <time>2019-05-09T18:38:28Z</time>
      </trkpt>
      <trkpt lat="44.68599" lon="5.59602">
        <ele>856</ele>
        <time>2019-05-09T18:39:28Z</time>
      </trkpt>
      <trkpt lat="44.68759" lon="5.59687">
        <ele>864</ele>
        <time>2019-05-09T18:40:28Z</time>
      </trkpt>
      <trkpt lat="44.68782" lon="5.59784">
        <ele>868</ele>
        <time>2019-05-09T18:41:28Z</time>
      </trkpt>
      <trkpt lat="44.68862" lon="5.59775">
        <ele>875</ele>
        <time>2019-05-09T18:42:28Z</time>
      </trkpt>
      <trkpt lat="44.68929" lon="5.59705">
        <ele>875</ele>
        <time>2019-05-09T18:43:28Z</time>
      </trkpt>
      <trkpt lat="44.69067" lon="5.59745">
        <ele>886</ele>
        <time>2019-05-09T18:44:28Z</time>
      </trkpt>
      <trkpt lat="44.69106" lon="5.5986">
        <ele>900</ele>
        <time>2019-05-09T18:45:28Z</time>
      </trkpt>
      <trkpt lat="44.69121" lon="5.59933">
        <ele>906</ele>
        <time>2019-05-09T18:46:28Z</time>
      </trkpt>
      <trkpt lat="44.69238" lon="5.59957">
        <ele>909</ele>
        <time>2019-05-09T18:47:28Z</time>
      </trkpt>
      <trkpt lat="44.69253" lon="5.601">
        <ele>898</ele>
        <time>2019-05-09T18:48:28Z</time>
      </trkpt>
      <trkpt lat="44.69324" lon="5.60224">
        <ele>914</ele>
        <time>2019-05-09T18:49:28Z</time>
      </trkpt>
      <trkpt lat="44.69322" lon="5.60288">
        <ele>912</ele>
        <time>2019-05-09T18:50:28Z</time>
      </trkpt>
      <trkpt lat="44.69343" lon="5.60385">
        <ele>915</ele>
        <time>2019-05-09T18:51:28Z</time>
      </trkpt>
      <trkpt lat="44.69356" lon="5.60582">
        <ele>911</ele>
        <time>2019-05-09T18:52:28Z</time>
      </trkpt>
      <trkpt lat="44.69425" lon="5.60707">
        <ele>922</ele>
        <time>2019-05-09T18:53:28Z</time>
      </trkpt>
      <trkpt lat="44.69436" lon="5.6091">
        <ele>939</ele>
        <time>2019-05-09T18:54:28Z</time>
      </trkpt>
      <trkpt lat="44.69425" lon="5.60992">
        <ele>933</ele>
        <time>2019-05-09T18:55:28Z</time>
      </trkpt>
      <trkpt lat="44.69468" lon="5.61153">
        <ele>934</ele>
        <time>2019-05-09T18:56:28Z</time>
      </trkpt>
      <trkpt lat="44.69522" lon="5.61265">
        <ele>933</ele>
        <time>2019-05-09T18:57:28Z</time>
      </trkpt>
      <trkpt lat="44.69624" lon="5.6132">
        <ele>947</ele>
        <time>2019-05-09T18:58:28Z</time>
      </trkpt>
      <trkpt lat="44.69723" lon="5.6162">
        <ele>954</ele>
        <time>2019-05-09T18:59:28Z</time>
      </trkpt>
      <trkpt lat="44.69967" lon="5.61669">
        <ele>977</ele>
        <time>2019-05-09T19:00:28Z</time>
      </trkpt>
      <trkpt lat="44.70029" lon="5.61705">
        <ele>986</ele>
        <time>2019-05-09T19:01:28Z</time>
      </trkpt>
      <trkpt lat="44.70103" lon="5.61684">
        <ele>1002</ele>
        <time>2019-05-09T19:02:28Z</time>
      </trkpt>
      <trkpt lat="44.70141" lon="5.61772">
        <ele>995</ele>
        <time>2019-05-09T19:03:28Z</time>
      </trkpt>
      <trkpt lat="44.70148" lon="5.61857">
        <ele>1003</ele>
        <time>2019-05-09T19:04:28Z</time>
      </trkpt>
      <trkpt lat="44.70116" lon="5.61878">
        <ele>1015</ele>
        <time>2019-05-09T19:05:28Z</time>
      </trkpt>
      <trkpt lat="44.70083" lon="5.61802">
        <ele>998</ele>
        <time>2019-05-09T19:06:28Z</time>
      </trkpt>
      <trkpt lat="44.69958" lon="5.61793">
        <ele>998</ele>
        <time>2019-05-09T19:07:28Z</time>
      </trkpt>
      <trkpt lat="44.69917" lon="5.61842">
        <ele>1016</ele>
        <time>2019-05-09T19:08:28Z</time>
      </trkpt>
      <trkpt lat="44.69777" lon="5.61927">
        <ele>1018</ele>
        <time>2019-05-09T19:09:28Z</time>
      </trkpt>
      <trkpt lat="44.6974" lon="5.62033">
        <ele>1038</ele>
        <time>2019-05-09T19:10:28Z</time>
      </trkpt>
      <trkpt lat="44.69648" lon="5.62124">
        <ele>1026</ele>
        <time>2019-05-09T19:11:28Z</time>
      </trkpt>
      <trkpt lat="44.69589" lon="5.62215">
        <ele>1031</ele>
        <time>2019-05-09T19:12:28Z</time>
      </trkpt>
      <trkpt lat="44.69548" lon="5.62358">
        <ele>1034</ele>
        <time>2019-05-09T19:13:28Z</time>
      </trkpt>
      <trkpt lat="44.69635" lon="5.62443">
        <ele>1067</ele>
        <time>2019-05-09T19:14:28Z</time>
      </trkpt>
      <trkpt lat="44.6965" lon="5.62628">
        <ele>1080</ele>
        <time>2019-05-09T19:15:28Z</time>
      </trkpt>
      <trkpt lat="44.69594" lon="5.6271">
        <ele>1061</ele>
        <time>2019-05-09T19:16:28Z</time>
      </trkpt>
      <trkpt lat="44.69546" lon="5.62934">
        <ele>1073</ele>
        <time>2019-05-09T19:17:28Z</time>
      </trkpt>
      <trkpt lat="44.6957" lon="5.63013">
        <ele>1081</ele>
        <time>2019-05-09T19:18:28Z</time>
      </trkpt>
      <trkpt lat="44.69594" lon="5.63065">
        <ele>1081</ele>
        <time>2019-05-09T19:19:28Z</time>
      </trkpt>
      <trkpt lat="44.69656" lon="5.63059">
        <ele>1104</ele>
        <time>2019-05-09T19:20:28Z</time>
      </trkpt>
      <trkpt lat="44.69648" lon="5.63186">
        <ele>1101</ele>
        <time>2019-05-09T19:21:28Z</time>
      </trkpt>
      <trkpt lat="44.69622" lon="5.63298">
        <ele>1097</ele>
        <time>2019-05-09T19:22:28Z</time>
      </trkpt>
      <trkpt lat="44.69648" lon="5.63417">
        <ele>1113</ele>
        <time>2019-05-09T19:23:28Z</time>
      </trkpt>
      <trkpt lat="44.69559" lon="5.63523">
        <ele>1105</ele>
        <time>2019-05-09T19:24:28Z</time>
      </trkpt>
      <trkpt lat="44.69641" lon="5.63781">
        <ele>1127</ele>
        <time>2019-05-09T19:25:28Z</time>
      </trkpt>
      <trkpt lat="44.69645" lon="5.63881">
        <ele>1132</ele>
        <time>2019-05-09T19:26:28Z</time>
      </trkpt>
      <trkpt lat="44.69641" lon="5.6403">
        <ele>1139</ele>
        <time>2019-05-09T19:27:28Z</time>
      </trkpt>
      <trkpt lat="44.69676" lon="5.64218">
        <ele>1148</ele>
        <time>2019-05-09T19:28:28Z</time>
      </trkpt>
      <trkpt lat="44.69656" lon="5.64403">
        <ele>1160</ele>
        <time>2019-05-09T19:29:28Z</time>
      </trkpt>
      <trkpt lat="44.69665" lon="5.64509">
        <ele>1165</ele>
        <time>2019-05-09T19:30:28Z</time>
      </trkpt>
      <trkpt lat="44.69684" lon="5.64388">
        <ele>1165</ele>
        <time>2019-05-09T19:31:28Z</time>
      </trkpt>
      <trkpt lat="44.69699" lon="5.64315">
        <ele>1163</ele>
        <time>2019-05-09T19:32:28Z</time>
      </trkpt>
      <trkpt lat="44.69745" lon="5.64254">
        <ele>1173</ele>
        <time>2019-05-09T19:33:28Z</time>
      </trkpt>
      <trkpt lat="44.69719" lon="5.64145">
        <ele>1167</ele>
        <time>2019-05-09T19:34:28Z</time>
      </trkpt>
      <trkpt lat="44.69723" lon="5.6396">
        <ele>1168</ele>
        <time>2019-05-09T19:35:28Z</time>
      </trkpt>
      <trkpt lat="44.69747" lon="5.63881">
        <ele>1176</ele>
        <time>2019-05-09T19:36:28Z</time>
      </trkpt>
      <trkpt lat="44.69755" lon="5.63805">
        <ele>1177</ele>
        <time>2019-05-09T19:37:28Z</time>
      </trkpt>
      <trkpt lat="44.69827" lon="5.63702">
        <ele>1197</ele>
        <time>2019-05-09T19:38:28Z</time>
      </trkpt>
      <trkpt lat="44.69829" lon="5.6359">
        <ele>1194</ele>
        <time>2019-05-09T19:39:28Z</time>
      </trkpt>
      <trkpt lat="44.69889" lon="5.63474">
        <ele>1208</ele>
        <time>2019-05-09T19:40:28Z</time>
      </trkpt>
      <trkpt lat="44.69889" lon="5.63332">
        <ele>1208</ele>
        <time>2019-05-09T19:41:28Z</time>
      </trkpt>
      <trkpt lat="44.69915" lon="5.63405">
        <ele>1219</ele>
        <time>2019-05-09T19:42:28Z</time>
      </trkpt>
      <trkpt lat="44.69932" lon="5.63496">
        <ele>1226</ele>
        <time>2019-05-09T19:43:28Z</time>
      </trkpt>
      <trkpt lat="44.69891" lon="5.6359">
        <ele>1223</ele>
        <time>2019-05-09T19:44:28Z</time>
      </trkpt>
      <trkpt lat="44.6988" lon="5.63669">
        <ele>1225</ele>
        <time>2019-05-09T19:45:28Z</time>
      </trkpt>
      <trkpt lat="44.69913" lon="5.63754">
        <ele>1236</ele>
        <time>2019-05-09T19:46:28Z</time>
      </trkpt>
      <trkpt lat="44.69945" lon="5.6386">
        <ele>1242</ele>
        <time>2019-05-09T19:47:28Z</time>
      </trkpt>
      <trkpt lat="44.6996" lon="5.63996">
        <ele>1247</ele>
        <time>2019-05-09T19:48:28Z</time>
      </trkpt>
      <trkpt lat="44.6998" lon="5.64148">
        <ele>1251</ele>
        <time>2019-05-09T19:49:28Z</time>
      </trkpt>
      <trkpt lat="44.70027" lon="5.64306">
        <ele>1260</ele>
        <time>2019-05-09T19:50:28Z</time>
      </trkpt>
      <trkpt lat="44.70034" lon="5.64409">
        <ele>1264</ele>
        <time>2019-05-09T19:51:28Z</time>
      </trkpt>
      <trkpt lat="44.7007" lon="5.64536">
        <ele>1274</ele>
        <time>2019-05-09T19:52:28Z</time>
      </trkpt>
      <trkpt lat="44.70053" lon="5.64618">
        <ele>1273</ele>
        <time>2019-05-09T19:53:28Z</time>
      </trkpt>
      <trkpt lat="44.70047" lon="5.64716">
        <ele>1276</ele>
        <time>2019-05-09T19:54:28Z</time>
      </trkpt>
      <trkpt lat="44.70062" lon="5.64776">
        <ele>1279</ele>
        <time>2019-05-09T19:55:28Z</time>
      </trkpt>
      <trkpt lat="44.70135" lon="5.6484">
        <ele>1293</ele>
        <time>2019-05-09T19:56:28Z</time>
      </trkpt>
      <trkpt lat="44.70133" lon="5.64901">
        <ele>1297</ele>
        <time>2019-05-09T19:57:28Z</time>
      </trkpt>
      <trkpt lat="44.70077" lon="5.64925">
        <ele>1290</ele>
        <time>2019-05-09T19:58:28Z</time>
      </trkpt>
      <trkpt lat="44.70014" lon="5.6501">
        <ele>1300</ele>
        <time>2019-05-09T19:59:28Z</time>
      </trkpt>
      <trkpt lat="44.69945" lon="5.65022">
        <ele>1296</ele>
        <time>2019-05-09T20:00:28Z</time>
      </trkpt>
      <trkpt lat="44.69846" lon="5.65074">
        <ele>1303</ele>
        <time>2019-05-09T20:01:28Z</time>
      </trkpt>
      <trkpt lat="44.69749" lon="5.65089">
        <ele>1308</ele>
        <time>2019-05-09T20:02:28Z</time>
      </trkpt>
      <trkpt lat="44.6968" lon="5.65095">
        <ele>1302</ele>
        <time>2019-05-09T20:03:28Z</time>
      </trkpt>
      <trkpt lat="44.69624" lon="5.65189">
        <ele>1319</ele>
        <time>2019-05-09T20:04:28Z</time>
      </trkpt>
      <trkpt lat="44.69445" lon="5.65289">
        <ele>1319</ele>
        <time>2019-05-09T20:05:28Z</time>
      </trkpt>
      <trkpt lat="44.69333" lon="5.65341">
        <ele>1320</ele>
        <time>2019-05-09T20:06:28Z</time>
      </trkpt>
      <trkpt lat="44.6922" lon="5.65368">
        <ele>1319</ele>
        <time>2019-05-09T20:07:28Z</time>
      </trkpt>
      <trkpt lat="44.69132" lon="5.65413">
        <ele>1318</ele>
        <time>2019-05-09T20:08:28Z</time>
      </trkpt>
      <trkpt lat="44.69108" lon="5.65535">
        <ele>1315</ele>
        <time>2019-05-09T20:09:28Z</time>
      </trkpt>
      <trkpt lat="44.69026" lon="5.65696">
        <ele>1305</ele>
        <time>2019-05-09T20:10:28Z</time>
      </trkpt>
      <trkpt lat="44.68951" lon="5.6585">
        <ele>1300</ele>
        <time>2019-05-09T20:11:28Z</time>
      </trkpt>
      <trkpt lat="44.68867" lon="5.65999">
        <ele>1280</ele>
        <time>2019-05-09T20:12:28Z</time>
      </trkpt>
      <trkpt lat="44.68826" lon="5.66184">
        <ele>1276</ele>
        <time>2019-05-09T20:13:28Z</time>
      </trkpt>
      <trkpt lat="44.68843" lon="5.66339">
        <ele>1263</ele>
        <time>2019-05-09T20:14:28Z</time>
      </trkpt>
      <trkpt lat="44.68912" lon="5.66378">
        <ele>1288</ele>
        <time>2019-05-09T20:15:28Z</time>
      </trkpt>
      <trkpt lat="44.68914" lon="5.66451">
        <ele>1274</ele>
        <time>2019-05-09T20:16:28Z</time>
      </trkpt>
      <trkpt lat="44.68901" lon="5.66539">
        <ele>1265</ele>
        <time>2019-05-09T20:17:28Z</time>
      </trkpt>
      <trkpt lat="44.68869" lon="5.66624">
        <ele>1249</ele>
        <time>2019-05-09T20:18:28Z</time>
      </trkpt>
      <trkpt lat="44.68843" lon="5.66673">
        <ele>1236</ele>
        <time>2019-05-09T20:19:28Z</time>
      </trkpt>
      <trkpt lat="44.68828" lon="5.66746">
        <ele>1222</ele>
        <time>2019-05-09T20:20:28Z</time>
      </trkpt>
      <trkpt lat="44.68944" lon="5.66776">
        <ele>1255</ele>
        <time>2019-05-09T20:21:28Z</time>
      </trkpt>
      <trkpt lat="44.68953" lon="5.66843">
        <ele>1244</ele>
        <time>2019-05-09T20:22:28Z</time>
      </trkpt>
      <trkpt lat="44.6889" lon="5.67092">
        <ele>1206</ele>
        <time>2019-05-09T20:23:28Z</time>
      </trkpt>
      <trkpt lat="44.68884" lon="5.67143">
        <ele>1191</ele>
        <time>2019-05-09T20:24:28Z</time>
      </trkpt>
      <trkpt lat="44.68935" lon="5.67144">
        <ele>1211</ele>
        <time>2019-05-09T20:25:28Z</time>
      </trkpt>
      <trkpt lat="44.6899" lon="5.67135">
        <ele>1214</ele>
        <time>2019-05-09T20:26:28Z</time>
      </trkpt>
      <trkpt lat="44.69049" lon="5.67081">
        <ele>1230</ele>
        <time>2019-05-09T20:27:28Z</time>
      </trkpt>
      <trkpt lat="44.69116" lon="5.67036">
        <ele>1241</ele>
        <time>2019-05-09T20:28:28Z</time>
      </trkpt>
      <trkpt lat="44.69157" lon="5.66998">
        <ele>1246</ele>
        <time>2019-05-09T20:29:28Z</time>
      </trkpt>
      <trkpt lat="44.69296" lon="5.66893">
        <ele>1268</ele>
        <time>2019-05-09T20:30:28Z</time>
      </trkpt>
      <trkpt lat="44.69343" lon="5.6685">
        <ele>1278</ele>
        <time>2019-05-09T20:31:28Z</time>
      </trkpt>
      <trkpt lat="44.69389" lon="5.66844">
        <ele>1279</ele>
        <time>2019-05-09T20:32:28Z</time>
      </trkpt>
      <trkpt lat="44.69422" lon="5.66824">
        <ele>1283</ele>
        <time>2019-05-09T20:33:28Z</time>
      </trkpt>
      <trkpt lat="44.69439" lon="5.66875">
        <ele>1287</ele>
        <time>2019-05-09T20:34:28Z</time>
      </trkpt>
      <trkpt lat="44.69425" lon="5.66947">
        <ele>1279</ele>
        <time>2019-05-09T20:35:28Z</time>
      </trkpt>
      <trkpt lat="44.69423" lon="5.67063">
        <ele>1294</ele>
        <time>2019-05-09T20:36:28Z</time>
      </trkpt>
      <trkpt lat="44.69403" lon="5.67187">
        <ele>1302</ele>
        <time>2019-05-09T20:37:28Z</time>
      </trkpt>
      <trkpt lat="44.69386" lon="5.67265">
        <ele>1304</ele>
        <time>2019-05-09T20:38:28Z</time>
      </trkpt>
      <trkpt lat="44.69386" lon="5.67313">
        <ele>1314</ele>
        <time>2019-05-09T20:39:28Z</time>
      </trkpt>
      <trkpt lat="44.69372" lon="5.67389">
        <ele>1319</ele>
        <time>2019-05-09T20:40:28Z</time>
      </trkpt>
      <trkpt lat="44.6933" lon="5.67501">
        <ele>1317</ele>
        <time>2019-05-09T20:41:28Z</time>
      </trkpt>
      <trkpt lat="44.69367" lon="5.67552">
        <ele>1319</ele>
        <time>2019-05-09T20:42:28Z</time>
      </trkpt>
      <trkpt lat="44.6943" lon="5.67514">
        <ele>1336</ele>
        <time>2019-05-09T20:43:28Z</time>
      </trkpt>
      <trkpt lat="44.6952" lon="5.67512">
        <ele>1339</ele>
        <time>2019-05-09T20:44:28Z</time>
      </trkpt>
      <trkpt lat="44.69597" lon="5.67496">
        <ele>1344</ele>
        <time>2019-05-09T20:45:28Z</time>
      </trkpt>
      <trkpt lat="44.69639" lon="5.67474">
        <ele>1342</ele>
        <time>2019-05-09T20:46:28Z</time>
      </trkpt>
      <trkpt lat="44.69736" lon="5.67375">
        <ele>1352</ele>
        <time>2019-05-09T20:47:28Z</time>
      </trkpt>
      <trkpt lat="44.69797" lon="5.67335">
        <ele>1354</ele>
        <time>2019-05-09T20:48:28Z</time>
      </trkpt>
      <trkpt lat="44.69876" lon="5.67335">
        <ele>1344</ele>
        <time>2019-05-09T20:49:28Z</time>
      </trkpt>
      <trkpt lat="44.69965" lon="5.67297">
        <ele>1345</ele>
        <time>2019-05-09T20:50:28Z</time>
      </trkpt>
      <trkpt lat="44.70108" lon="5.672">
        <ele>1352</ele>
        <time>2019-05-09T20:51:28Z</time>
      </trkpt>
      <trkpt lat="44.70179" lon="5.67115">
        <ele>1368</ele>
        <time>2019-05-09T20:52:28Z</time>
      </trkpt>
      <trkpt lat="44.70302" lon="5.67055">
        <ele>1365</ele>
        <time>2019-05-09T20:53:28Z</time>
      </trkpt>
      <trkpt lat="44.7038" lon="5.66963">
        <ele>1366</ele>
        <time>2019-05-09T20:54:28Z</time>
      </trkpt>
      <trkpt lat="44.7042" lon="5.66882">
        <ele>1366</ele>
        <time>2019-05-09T20:55:28Z</time>
      </trkpt>
      <trkpt lat="44.70365" lon="5.66808">
        <ele>1381</ele>
        <time>2019-05-09T20:56:28Z</time>
      </trkpt>
      <trkpt lat="44.70434" lon="5.66731">
        <ele>1374</ele>
        <time>2019-05-09T20:57:28Z</time>
      </trkpt>
      <trkpt lat="44.70566" lon="5.66646">
        <ele>1376</ele>
        <time>2019-05-09T20:58:28Z</time>
      </trkpt>
      <trkpt lat="44.70598" lon="5.66725">
        <ele>1366</ele>
        <time>2019-05-09T20:59:28Z</time>
      </trkpt>
      <trkpt lat="44.70592" lon="5.66772">
        <ele>1355</ele>
        <time>2019-05-09T21:00:28Z</time>
      </trkpt>
      <trkpt lat="44.70635" lon="5.66823">
        <ele>1362</ele>
        <time>2019-05-09T21:01:28Z</time>
      </trkpt>
      <trkpt lat="44.70641" lon="5.66862">
        <ele>1349</ele>
        <time>2019-05-09T21:02:28Z</time>
      </trkpt>
      <trkpt lat="44.70851" lon="5.66915">
        <ele>1377</ele>
        <time>2019-05-09T21:03:28Z</time>
      </trkpt>
      <trkpt lat="44.70855" lon="5.66958">
        <ele>1368</ele>
        <time>2019-05-09T21:04:28Z</time>
      </trkpt>
      <trkpt lat="44.70818" lon="5.67028">
        <ele>1344</ele>
        <time>2019-05-09T21:05:28Z</time>
      </trkpt>
      <trkpt lat="44.71016" lon="5.67027">
        <ele>1361</ele>
        <time>2019-05-09T21:06:28Z</time>
      </trkpt>
      <trkpt lat="44.71102" lon="5.67036">
        <ele>1351</ele>
        <time>2019-05-09T21:07:28Z</time>
      </trkpt>
      <trkpt lat="44.71114" lon="5.66994">
        <ele>1365</ele>
        <time>2019-05-09T21:08:28Z</time>
      </trkpt>
      <trkpt lat="44.712" lon="5.66897">
        <ele>1357</ele>
        <time>2019-05-09T21:09:28Z</time>
      </trkpt>
      <trkpt lat="44.71201" lon="5.66839">
        <ele>1369</ele>
        <time>2019-05-09T21:10:28Z</time>
      </trkpt>
      <trkpt lat="44.71236" lon="5.66745">
        <ele>1369</ele>
        <time>2019-05-09T21:11:28Z</time>
      </trkpt>
      <trkpt lat="44.71266" lon="5.66666">
        <ele>1373</ele>
        <time>2019-05-09T21:12:28Z</time>
      </trkpt>
      <trkpt lat="44.71348" lon="5.66534">
        <ele>1382</ele>
        <time>2019-05-09T21:13:28Z</time>
      </trkpt>
      <trkpt lat="44.71357" lon="5.66482">
        <ele>1396</ele>
        <time>2019-05-09T21:14:28Z</time>
      </trkpt>
      <trkpt lat="44.71432" lon="5.66547">
        <ele>1390</ele>
        <time>2019-05-09T21:15:28Z</time>
      </trkpt>
      <trkpt lat="44.71445" lon="5.66698">
        <ele>1373</ele>
        <time>2019-05-09T21:16:28Z</time>
      </trkpt>
      <trkpt lat="44.71493" lon="5.66801">
        <ele>1382</ele>
        <time>2019-05-09T21:17:28Z</time>
      </trkpt>
      <trkpt lat="44.71509" lon="5.66855">
        <ele>1376</ele>
        <time>2019-05-09T21:18:28Z</time>
      </trkpt>
      <trkpt lat="44.715" lon="5.66897">
        <ele>1366</ele>
        <time>2019-05-09T21:19:28Z</time>
      </trkpt>
      <trkpt lat="44.71482" lon="5.66949">
        <ele>1343</ele>
        <time>2019-05-09T21:20:28Z</time>
      </trkpt>
      <trkpt lat="44.71539" lon="5.66969">
        <ele>1356</ele>
        <time>2019-05-09T21:21:28Z</time>
      </trkpt>
      <trkpt lat="44.71687" lon="5.67039">
        <ele>1338</ele>
        <time>2019-05-09T21:22:28Z</time>
      </trkpt>
      <trkpt lat="44.71752" lon="5.67057">
        <ele>1332</ele>
        <time>2019-05-09T21:23:28Z</time>
      </trkpt>
      <trkpt lat="44.71825" lon="5.67023">
        <ele>1333</ele>
        <time>2019-05-09T21:24:28Z</time>
      </trkpt>
      <trkpt lat="44.71942" lon="5.67068">
        <ele>1311</ele>
        <time>2019-05-09T21:25:28Z</time>
      </trkpt>
      <trkpt lat="44.72001" lon="5.67124">
        <ele>1299</ele>
        <time>2019-05-09T21:26:28Z</time>
      </trkpt>
      <trkpt lat="44.72061" lon="5.67169">
        <ele>1288</ele>
        <time>2019-05-09T21:27:28Z</time>
      </trkpt>
      <trkpt lat="44.72122" lon="5.67175">
        <ele>1285</ele>
        <time>2019-05-09T21:28:28Z</time>
      </trkpt>
      <trkpt lat="44.72186" lon="5.67164">
        <ele>1287</ele>
        <time>2019-05-09T21:29:28Z</time>
      </trkpt>
      <trkpt lat="44.72254" lon="5.6729">
        <ele>1254</ele>
        <time>2019-05-09T21:30:28Z</time>
      </trkpt>
      <trkpt lat="44.72307" lon="5.67312">
        <ele>1249</ele>
        <time>2019-05-09T21:31:28Z</time>
      </trkpt>
      <trkpt lat="44.724" lon="5.67276">
        <ele>1257</ele>
        <time>2019-05-09T21:32:28Z</time>
      </trkpt>
      <trkpt lat="44.72461" lon="5.67348">
        <ele>1238</ele>
        <time>2019-05-09T21:33:28Z</time>
      </trkpt>
      <trkpt lat="44.72551" lon="5.67371">
        <ele>1238</ele>
        <time>2019-05-09T21:34:28Z</time>
      </trkpt>
      <trkpt lat="44.72632" lon="5.67424">
        <ele>1232</ele>
        <time>2019-05-09T21:35:28Z</time>
      </trkpt>
      <trkpt lat="44.72706" lon="5.67503">
        <ele>1222</ele>
        <time>2019-05-09T21:36:28Z</time>
      </trkpt>
      <trkpt lat="44.72787" lon="5.67575">
        <ele>1215</ele>
        <time>2019-05-09T21:37:28Z</time>
      </trkpt>
      <trkpt lat="44.72848" lon="5.67633">
        <ele>1209</ele>
        <time>2019-05-09T21:38:28Z</time>
      </trkpt>
      <trkpt lat="44.72892" lon="5.67656">
        <ele>1209</ele>
        <time>2019-05-09T21:39:28Z</time>
      </trkpt>
      <trkpt lat="44.72854" lon="5.67664">
        <ele>1199</ele>
        <time>2019-05-09T21:40:28Z</time>
      </trkpt>
      <trkpt lat="44.72746" lon="5.67626">
        <ele>1193</ele>
        <time>2019-05-09T21:41:28Z</time>
      </trkpt>
      <trkpt lat="44.72672" lon="5.6762">
        <ele>1188</ele>
        <time>2019-05-09T21:42:28Z</time>
      </trkpt>
      <trkpt lat="44.72615" lon="5.6764">
        <ele>1184</ele>
        <time>2019-05-09T21:43:28Z</time>
      </trkpt>
      <trkpt lat="44.72551" lon="5.67674">
        <ele>1178</ele>
        <time>2019-05-09T21:44:28Z</time>
      </trkpt>
      <trkpt lat="44.72489" lon="5.67718">
        <ele>1176</ele>
        <time>2019-05-09T21:45:28Z</time>
      </trkpt>
      <trkpt lat="44.72448" lon="5.67759">
        <ele>1175</ele>
        <time>2019-05-09T21:46:28Z</time>
      </trkpt>
      <trkpt lat="44.72573" lon="5.67772">
        <ele>1171</ele>
        <time>2019-05-09T21:47:28Z</time>
      </trkpt>
      <trkpt lat="44.72802" lon="5.67811">
        <ele>1158</ele>
        <time>2019-05-09T21:48:28Z</time>
      </trkpt>
      <trkpt lat="44.72897" lon="5.67864">
        <ele>1152</ele>
        <time>2019-05-09T21:49:28Z</time>
      </trkpt>
      <trkpt lat="44.73004" lon="5.67961">
        <ele>1145</ele>
        <time>2019-05-09T21:50:28Z</time>
      </trkpt>
      <trkpt lat="44.73152" lon="5.6805">
        <ele>1134</ele>
        <time>2019-05-09T21:51:28Z</time>
      </trkpt>
      <trkpt lat="44.73251" lon="5.67956">
        <ele>1151</ele>
        <time>2019-05-09T21:52:28Z</time>
      </trkpt>
      <trkpt lat="44.73279" lon="5.68048">
        <ele>1127</ele>
        <time>2019-05-09T21:53:28Z</time>
      </trkpt>
      <trkpt lat="44.73338" lon="5.6808">
        <ele>1120</ele>
        <time>2019-05-09T21:54:28Z</time>
      </trkpt>
      <trkpt lat="44.73457" lon="5.68113">
        <ele>1115</ele>
        <time>2019-05-09T21:55:28Z</time>
      </trkpt>
      <trkpt lat="44.73519" lon="5.68122">
        <ele>1109</ele>
        <time>2019-05-09T21:56:28Z</time>
      </trkpt>
      <trkpt lat="44.73659" lon="5.68024">
        <ele>1111</ele>
        <time>2019-05-09T21:57:28Z</time>
      </trkpt>
      <trkpt lat="44.73773" lon="5.68017">
        <ele>1085</ele>
        <time>2019-05-09T21:58:28Z</time>
      </trkpt>
      <trkpt lat="44.73797" lon="5.67967">
        <ele>1089</ele>
        <time>2019-05-09T21:59:28Z</time>
      </trkpt>
      <trkpt lat="44.73797" lon="5.67896">
        <ele>1099</ele>
        <time>2019-05-09T22:00:28Z</time>
      </trkpt>
      <trkpt lat="44.73883" lon="5.67761">
        <ele>1094</ele>
        <time>2019-05-09T22:01:28Z</time>
      </trkpt>
      <trkpt lat="44.7393" lon="5.67848">
        <ele>1076</ele>
        <time>2019-05-09T22:02:28Z</time>
      </trkpt>
      <trkpt lat="44.73965" lon="5.67985">
        <ele>1058</ele>
        <time>2019-05-09T22:03:28Z</time>
      </trkpt>
      <trkpt lat="44.74043" lon="5.6805">
        <ele>1050</ele>
        <time>2019-05-09T22:04:28Z</time>
      </trkpt>
      <trkpt lat="44.74139" lon="5.68093">
        <ele>1045</ele>
        <time>2019-05-09T22:05:28Z</time>
      </trkpt>
      <trkpt lat="44.74246" lon="5.68102">
        <ele>1042</ele>
        <time>2019-05-09T22:06:28Z</time>
      </trkpt>
      <trkpt lat="44.74366" lon="5.68134">
        <ele>1029</ele>
        <time>2019-05-09T22:07:28Z</time>
      </trkpt>
      <trkpt lat="44.74411" lon="5.68138">
        <ele>1026</ele>
        <time>2019-05-09T22:08:28Z</time>
      </trkpt>
      <trkpt lat="44.74476" lon="5.68069">
        <ele>1027</ele>
        <time>2019-05-09T22:09:28Z</time>
      </trkpt>
      <trkpt lat="44.74553" lon="5.68012">
        <ele>1017</ele>
        <time>2019-05-09T22:10:28Z</time>
      </trkpt>
      <trkpt lat="44.74626" lon="5.67893">
        <ele>1028</ele>
        <time>2019-05-09T22:11:28Z</time>
      </trkpt>
      <trkpt lat="44.74734" lon="5.67853">
        <ele>1007</ele>
        <time>2019-05-09T22:12:28Z</time>
      </trkpt>
      <trkpt lat="44.74799" lon="5.67783">
        <ele>1010</ele>
        <time>2019-05-09T22:13:28Z</time>
      </trkpt>
      <trkpt lat="44.74902" lon="5.67629">
        <ele>998</ele>
        <time>2019-05-09T22:14:28Z</time>
      </trkpt>
      <trkpt lat="44.74961" lon="5.67499">
        <ele>1000</ele>
        <time>2019-05-09T22:15:28Z</time>
      </trkpt>
      <trkpt lat="44.75046" lon="5.67405">
        <ele>978</ele>
        <time>2019-05-09T22:16:28Z</time>
      </trkpt>
      <trkpt lat="44.75145" lon="5.67256">
        <ele>964</ele>
        <time>2019-05-09T22:17:28Z</time>
      </trkpt>
      <trkpt lat="44.75236" lon="5.67144">
        <ele>956</ele>
        <time>2019-05-09T22:18:28Z</time>
      </trkpt>
      <trkpt lat="44.75298" lon="5.67075">
        <ele>949</ele>
        <time>2019-05-09T22:19:28Z</time>
      </trkpt>
      <trkpt lat="44.75349" lon="5.67007">
        <ele>945</ele>
        <time>2019-05-09T22:20:28Z</time>
      </trkpt>
      <trkpt lat="44.75366" lon="5.66947">
        <ele>942</ele>
        <time>2019-05-09T22:21:28Z</time>
      </trkpt>
      <trkpt lat="44.75373" lon="5.66888">
        <ele>940</ele>
        <time>2019-05-09T22:22:28Z</time>
      </trkpt>
      <trkpt lat="44.75382" lon="5.66908">
        <ele>938</ele>
        <time>2019-05-09T22:23:28Z</time>
      </trkpt>
      <trkpt lat="44.75388" lon="5.66945">
        <ele>936</ele>
        <time>2019-05-09T22:24:28Z</time>
      </trkpt>
      <trkpt lat="44.75387" lon="5.6701">
        <ele>934</ele>
        <time>2019-05-09T22:25:28Z</time>
      </trkpt>
      <trkpt lat="44.75381" lon="5.67081">
        <ele>929</ele>
        <time>2019-05-09T22:26:28Z</time>
      </trkpt>
      <trkpt lat="44.75375" lon="5.67119">
        <ele>926</ele>
        <time>2019-05-09T22:27:28Z</time>
      </trkpt>
      <trkpt lat="44.75343" lon="5.67237">
        <ele>922</ele>
        <time>2019-05-09T22:28:28Z</time>
      </trkpt>
      <trkpt lat="44.75315" lon="5.67306">
        <ele>921</ele>
        <time>2019-05-09T22:29:28Z</time>
      </trkpt>
      <trkpt lat="44.75254" lon="5.67487">
        <ele>910</ele>
        <time>2019-05-09T22:30:28Z</time>
      </trkpt>
      <trkpt lat="44.752" lon="5.67624">
        <ele>901</ele>
        <time>2019-05-09T22:31:28Z</time>
      </trkpt>
      <trkpt lat="44.7518" lon="5.67649">
        <ele>900</ele>
        <time>2019-05-09T22:32:28Z</time>
      </trkpt>
      <trkpt lat="44.75133" lon="5.67686">
        <ele>899</ele>
        <time>2019-05-09T22:33:28Z</time>
      </trkpt>
      <trkpt lat="44.75131" lon="5.67701">
        <ele>896</ele>
        <time>2019-05-09T22:34:28Z</time>
      </trkpt>
      <trkpt lat="44.75153" lon="5.67705">
        <ele>893</ele>
        <time>2019-05-09T22:35:28Z</time>
      </trkpt>
      <trkpt lat="44.75304" lon="5.67651">
        <ele>879</ele>
        <time>2019-05-09T22:36:28Z</time>
      </trkpt>
      <trkpt lat="44.75423" lon="5.67575">
        <ele>872</ele>
        <time>2019-05-09T22:37:28Z</time>
      </trkpt>
      <trkpt lat="44.75472" lon="5.67483">
        <ele>873</ele>
        <time>2019-05-09T22:38:28Z</time>
      </trkpt>
      <trkpt lat="44.75517" lon="5.6746">
        <ele>871</ele>
        <time>2019-05-09T22:39:28Z</time>
      </trkpt>
      <trkpt lat="44.75627" lon="5.6759">
        <ele>851</ele>
        <time>2019-05-09T22:40:28Z</time>
      </trkpt>
      <trkpt lat="44.75797" lon="5.67615">
        <ele>845</ele>
        <time>2019-05-09T22:41:28Z</time>
      </trkpt>
      <trkpt lat="44.75783" lon="5.67833">
        <ele>833</ele>
        <time>2019-05-09T22:42:28Z</time>
      </trkpt>
      <trkpt lat="44.75699" lon="5.6801">
        <ele>827</ele>
        <time>2019-05-09T22:43:28Z</time>
      </trkpt>
      <trkpt lat="44.75656" lon="5.68039">
        <ele>821</ele>
        <time>2019-05-09T22:44:28Z</time>
      </trkpt>
      <trkpt lat="44.75571" lon="5.68015">
        <ele>820</ele>
        <time>2019-05-09T22:45:28Z</time>
      </trkpt>
      <trkpt lat="44.75508" lon="5.68032">
        <ele>815</ele>
        <time>2019-05-09T22:46:28Z</time>
      </trkpt>
      <trkpt lat="44.75439" lon="5.6799">
        <ele>818</ele>
        <time>2019-05-09T22:47:28Z</time>
      </trkpt>
      <trkpt lat="44.75394" lon="5.68005">
        <ele>815</ele>
        <time>2019-05-09T22:48:28Z</time>
      </trkpt>
      <trkpt lat="44.75399" lon="5.68066">
        <ele>814</ele>
        <time>2019-05-09T22:49:28Z</time>
      </trkpt>
      <trkpt lat="44.755" lon="5.68169">
        <ele>817</ele>
        <time>2019-05-09T22:50:28Z</time>
      </trkpt>
      <trkpt lat="44.7567" lon="5.68259">
        <ele>810</ele>
        <time>2019-05-09T22:51:28Z</time>
      </trkpt>
      <trkpt lat="44.75717" lon="5.6836">
        <ele>820</ele>
        <time>2019-05-09T22:52:28Z</time>
      </trkpt>
      <trkpt lat="44.75827" lon="5.68427">
        <ele>811</ele>
        <time>2019-05-09T22:53:28Z</time>
      </trkpt>
      <trkpt lat="44.7591" lon="5.68596">
        <ele>809</ele>
        <time>2019-05-09T22:54:28Z</time>
      </trkpt>
      <trkpt lat="44.75914" lon="5.68743">
        <ele>814</ele>
        <time>2019-05-09T22:55:28Z</time>
      </trkpt>
      <trkpt lat="44.75955" lon="5.68941">
        <ele>809</ele>
        <time>2019-05-09T22:56:28Z</time>
      </trkpt>
      <trkpt lat="44.7602" lon="5.6913">
        <ele>809</ele>
        <time>2019-05-09T22:57:28Z</time>
      </trkpt>
      <trkpt lat="44.76092" lon="5.6921">
        <ele>806</ele>
        <time>2019-05-09T22:58:28Z</time>
      </trkpt>
      <trkpt lat="44.76148" lon="5.69387">
        <ele>810</ele>
        <time>2019-05-09T22:59:28Z</time>
      </trkpt>
      <trkpt lat="44.76171" lon="5.69434">
        <ele>809</ele>
        <time>2019-05-09T23:00:28Z</time>
      </trkpt>
      <trkpt lat="44.76356" lon="5.69618">
        <ele>806</ele>
        <time>2019-05-09T23:01:28Z</time>
      </trkpt>
      <trkpt lat="44.76455" lon="5.69757">
        <ele>805</ele>
        <time>2019-05-09T23:02:28Z</time>
      </trkpt>
      <trkpt lat="44.76512" lon="5.69785">
        <ele>801</ele>
        <time>2019-05-09T23:03:28Z</time>
      </trkpt>
      <trkpt lat="44.76798" lon="5.69784">
        <ele>794</ele>
        <time>2019-05-09T23:04:28Z</time>
      </trkpt>
      <trkpt lat="44.76971" lon="5.69881">
        <ele>789</ele>
        <time>2019-05-09T23:05:28Z</time>
      </trkpt>
      <trkpt lat="44.76986" lon="5.69997">
        <ele>788</ele>
        <time>2019-05-09T23:06:28Z</time>
      </trkpt>
      <trkpt lat="44.76989" lon="5.70092">
        <ele>788</ele>
        <time>2019-05-09T23:07:28Z</time>
      </trkpt>
      <trkpt lat="44.77026" lon="5.70271">
        <ele>790</ele>
        <time>2019-05-09T23:08:28Z</time>
      </trkpt>
      <trkpt lat="44.77027" lon="5.70354">
        <ele>790</ele>
        <time>2019-05-09T23:09:28Z</time>
      </trkpt>
      <trkpt lat="44.77021" lon="5.70455">
        <ele>787</ele>
        <time>2019-05-09T23:10:28Z</time>
      </trkpt>
      <trkpt lat="44.77025" lon="5.70657">
        <ele>781</ele>
        <time>2019-05-09T23:11:28Z</time>
      </trkpt>
      <trkpt lat="44.7699" lon="5.70778">
        <ele>778</ele>
        <time>2019-05-09T23:12:28Z</time>
      </trkpt>
      <trkpt lat="44.77002" lon="5.70935">
        <ele>764</ele>
        <time>2019-05-09T23:13:28Z</time>
      </trkpt>
      <trkpt lat="44.76995" lon="5.71148">
        <ele>754</ele>
        <time>2019-05-09T23:14:28Z</time>
      </trkpt>
      <trkpt lat="44.77026" lon="5.71182">
        <ele>746</ele>
        <time>2019-05-09T23:15:28Z</time>
      </trkpt>
      <trkpt lat="44.77082" lon="5.71157">
        <ele>740</ele>
        <time>2019-05-09T23:16:28Z</time>
      </trkpt>
      <trkpt lat="44.77159" lon="5.71106">
        <ele>734</ele>
        <time>2019-05-09T23:17:28Z</time>
      </trkpt>
      <trkpt lat="44.7723" lon="5.71171">
        <ele>737</ele>
        <time>2019-05-09T23:18:28Z</time>
      </trkpt>
      <trkpt lat="44.77199" lon="5.71254">
        <ele>742</ele>
        <time>2019-05-09T23:19:28Z</time>
      </trkpt>
      <trkpt lat="44.77141" lon="5.7131">
        <ele>741</ele>
        <time>2019-05-09T23:20:28Z</time>
      </trkpt>
      <trkpt lat="44.77128" lon="5.71348">
        <ele>743</ele>
        <time>2019-05-09T23:21:28Z</time>
      </trkpt>
      <trkpt lat="44.77123" lon="5.71462">
        <ele>756</ele>
        <time>2019-05-09T23:22:28Z</time>
      </trkpt>
      <trkpt lat="44.77107" lon="5.71552">
        <ele>759</ele>
        <time>2019-05-09T23:23:28Z</time>
      </trkpt>
      <trkpt lat="44.77087" lon="5.71613">
        <ele>759</ele>
        <time>2019-05-09T23:24:28Z</time>
      </trkpt>
      <trkpt lat="44.77081" lon="5.7166">
        <ele>761</ele>
        <time>2019-05-09T23:25:28Z</time>
      </trkpt>
      <trkpt lat="44.7708" lon="5.71759">
        <ele>766</ele>
        <time>2019-05-09T23:26:28Z</time>
      </trkpt>
      <trkpt lat="44.77102" lon="5.71729">
        <ele>770</ele>
        <time>2019-05-09T23:27:28Z</time>
      </trkpt>
      <trkpt lat="44.7711" lon="5.71653">
        <ele>769</ele>
        <time>2019-05-09T23:28:28Z</time>
      </trkpt>
      <trkpt lat="44.77157" lon="5.71579">
        <ele>778</ele>
        <time>2019-05-09T23:29:28Z</time>
      </trkpt>
      <trkpt lat="44.77186" lon="5.715">
        <ele>778</ele>
        <time>2019-05-09T23:30:28Z</time>
      </trkpt>
      <trkpt lat="44.77221" lon="5.71485">
        <ele>783</ele>
        <time>2019-05-09T23:31:28Z</time>
      </trkpt>
      <trkpt lat="44.77207" lon="5.71565">
        <ele>788</ele>
        <time>2019-05-09T23:32:28Z</time>
      </trkpt>
      <trkpt lat="44.77207" lon="5.71664">
        <ele>798</ele>
        <time>2019-05-09T23:33:28Z</time>
      </trkpt>
      <trkpt lat="44.77204" lon="5.71729">
        <ele>799</ele>
        <time>2019-05-09T23:34:28Z</time>
      </trkpt>
      <trkpt lat="44.77216" lon="5.7179">
        <ele>800</ele>
        <time>2019-05-09T23:35:28Z</time>
      </trkpt>
      <trkpt lat="44.77263" lon="5.71821">
        <ele>810</ele>
        <time>2019-05-09T23:36:28Z</time>
      </trkpt>
      <trkpt lat="44.77278" lon="5.71915">
        <ele>812</ele>
        <time>2019-05-09T23:37:28Z</time>
      </trkpt>
      <trkpt lat="44.77258" lon="5.72059">
        <ele>818</ele>
        <time>2019-05-09T23:38:28Z</time>
      </trkpt>
      <trkpt lat="44.77233" lon="5.72118">
        <ele>818</ele>
        <time>2019-05-09T23:39:28Z</time>
      </trkpt>
      <trkpt lat="44.77204" lon="5.72178">
        <ele>818</ele>
        <time>2019-05-09T23:40:28Z</time>
      </trkpt>
      <trkpt lat="44.77213" lon="5.72292">
        <ele>827</ele>
        <time>2019-05-09T23:41:28Z</time>
      </trkpt>
      <trkpt lat="44.772" lon="5.72378">
        <ele>829</ele>
        <time>2019-05-09T23:42:28Z</time>
      </trkpt>
      <trkpt lat="44.77278" lon="5.72579">
        <ele>848</ele>
        <time>2019-05-09T23:43:28Z</time>
      </trkpt>
      <trkpt lat="44.77304" lon="5.72741">
        <ele>854</ele>
        <time>2019-05-09T23:44:28Z</time>
      </trkpt>
      <trkpt lat="44.77315" lon="5.72844">
        <ele>864</ele>
        <time>2019-05-09T23:45:28Z</time>
      </trkpt>
      <trkpt lat="44.77297" lon="5.72934">
        <ele>867</ele>
        <time>2019-05-09T23:46:28Z</time>
      </trkpt>
      <trkpt lat="44.77283" lon="5.72981">
        <ele>871</ele>
        <time>2019-05-09T23:47:28Z</time>
      </trkpt>
      <trkpt lat="44.77251" lon="5.73037">
        <ele>875</ele>
        <time>2019-05-09T23:48:28Z</time>
      </trkpt>
      <trkpt lat="44.77217" lon="5.73064">
        <ele>877</ele>
        <time>2019-05-09T23:49:28Z</time>
      </trkpt>
      <trkpt lat="44.77185" lon="5.731">
        <ele>881</ele>
        <time>2019-05-09T23:50:28Z</time>
      </trkpt>
      <trkpt lat="44.77269" lon="5.73095">
        <ele>888</ele>
        <time>2019-05-09T23:51:28Z</time>
      </trkpt>
      <trkpt lat="44.77323" lon="5.73071">
        <ele>892</ele>
        <time>2019-05-09T23:52:28Z</time>
      </trkpt>
      <trkpt lat="44.7741" lon="5.72985">
        <ele>897</ele>
        <time>2019-05-09T23:53:28Z</time>
      </trkpt>
      <trkpt lat="44.77454" lon="5.7295">
        <ele>897</ele>
        <time>2019-05-09T23:54:28Z</time>
      </trkpt>
      <trkpt lat="44.77472" lon="5.73004">
        <ele>897</ele>
        <time>2019-05-09T23:55:28Z</time>
      </trkpt>
      <trkpt lat="44.77482" lon="5.73084">
        <ele>895</ele>
        <time>2019-05-09T23:56:28Z</time>
      </trkpt>
      <trkpt lat="44.77509" lon="5.73152">
        <ele>894</ele>
        <time>2019-05-09T23:57:28Z</time>
      </trkpt>
      <trkpt lat="44.77556" lon="5.73228">
        <ele>883</ele>
        <time>2019-05-09T23:58:28Z</time>
      </trkpt>
      <trkpt lat="44.77572" lon="5.73277">
        <ele>878</ele>
        <time>2019-05-09T23:59:28Z</time>
      </trkpt>
      <trkpt lat="44.77555" lon="5.73409">
        <ele>878</ele>
        <time>2019-05-10T00:00:28Z</time>
      </trkpt>
      <trkpt lat="44.77643" lon="5.73663">
        <ele>860</ele>
        <time>2019-05-10T00:01:28Z</time>
      </trkpt>
      <trkpt lat="44.77747" lon="5.73818">
        <ele>845</ele>
        <time>2019-05-10T00:02:28Z</time>
      </trkpt>
      <trkpt lat="44.77753" lon="5.73852">
        <ele>844</ele>
        <time>2019-05-10T00:03:28Z</time>
      </trkpt>
      <trkpt lat="44.77752" lon="5.73893">
        <ele>845</ele>
        <time>2019-05-10T00:04:28Z</time>
      </trkpt>
      <trkpt lat="44.77866" lon="5.74013">
        <ele>830</ele>
        <time>2019-05-10T00:05:28Z</time>
      </trkpt>
      <trkpt lat="44.77933" lon="5.74127">
        <ele>830</ele>
        <time>2019-05-10T00:06:28Z</time>
      </trkpt>
      <trkpt lat="44.78102" lon="5.74165">
        <ele>843</ele>
        <time>2019-05-10T00:07:28Z</time>
      </trkpt>
      <trkpt lat="44.78239" lon="5.74062">
        <ele>849</ele>
        <time>2019-05-10T00:08:28Z</time>
      </trkpt>
      <trkpt lat="44.78275" lon="5.74009">
        <ele>849</ele>
        <time>2019-05-10T00:09:28Z</time>
      </trkpt>
      <trkpt lat="44.78309" lon="5.74226">
        <ele>854</ele>
        <time>2019-05-10T00:10:28Z</time>
      </trkpt>
      <trkpt lat="44.7835" lon="5.74583">
        <ele>852</ele>
        <time>2019-05-10T00:11:28Z</time>
      </trkpt>
      <trkpt lat="44.78343" lon="5.74664">
        <ele>851</ele>
        <time>2019-05-10T00:12:28Z</time>
      </trkpt>
      <trkpt lat="44.78317" lon="5.74733">
        <ele>848</ele>
        <time>2019-05-10T00:13:28Z</time>
      </trkpt>
      <trkpt lat="44.78208" lon="5.74895">
        <ele>852</ele>
        <time>2019-05-10T00:14:28Z</time>
      </trkpt>
      <trkpt lat="44.78202" lon="5.74933">
        <ele>852</ele>
        <time>2019-05-10T00:15:28Z</time>
      </trkpt>
      <trkpt lat="44.78235" lon="5.75029">
        <ele>849</ele>
        <time>2019-05-10T00:16:28Z</time>
      </trkpt>
      <trkpt lat="44.78279" lon="5.75143">
        <ele>846</ele>
        <time>2019-05-10T00:17:28Z</time>
      </trkpt>
      <trkpt lat="44.78325" lon="5.75233">
        <ele>845</ele>
        <time>2019-05-10T00:18:28Z</time>
      </trkpt>
      <trkpt lat="44.78317" lon="5.75309">
        <ele>849</ele>
        <time>2019-05-10T00:19:28Z</time>
      </trkpt>
      <trkpt lat="44.78409" lon="5.75314">
        <ele>845</ele>
        <time>2019-05-10T00:20:28Z</time>
      </trkpt>
      <trkpt lat="44.78501" lon="5.75265">
        <ele>838</ele>
        <time>2019-05-10T00:21:28Z</time>
      </trkpt>
      <trkpt lat="44.78551" lon="5.7528">
        <ele>838</ele>
        <time>2019-05-10T00:22:28Z</time>
      </trkpt>
      <trkpt lat="44.786" lon="5.75401">
        <ele>841</ele>
        <time>2019-05-10T00:23:28Z</time>
      </trkpt>
      <trkpt lat="44.78701" lon="5.75476">
        <ele>832</ele>
        <time>2019-05-10T00:24:28Z</time>
      </trkpt>
      <trkpt lat="44.78813" lon="5.75567">
        <ele>826</ele>
        <time>2019-05-10T00:25:28Z</time>
      </trkpt>
      <trkpt lat="44.78801" lon="5.75644">
        <ele>827</ele>
        <time>2019-05-10T00:26:28Z</time>
      </trkpt>
      <trkpt lat="44.78783" lon="5.75697">
        <ele>828</ele>
        <time>2019-05-10T00:27:28Z</time>
      </trkpt>
      <trkpt lat="44.78729" lon="5.75832">
        <ele>826</ele>
        <time>2019-05-10T00:28:28Z</time>
      </trkpt>
      <trkpt lat="44.7881" lon="5.75814">
        <ele>812</ele>
        <time>2019-05-10T00:29:28Z</time>
      </trkpt>
      <trkpt lat="44.78848" lon="5.75765">
        <ele>814</ele>
        <time>2019-05-10T00:30:28Z</time>
      </trkpt>
      <trkpt lat="44.78902" lon="5.75722">
        <ele>808</ele>
        <time>2019-05-10T00:31:28Z</time>
      </trkpt>
      <trkpt lat="44.78904" lon="5.7576">
        <ele>804</ele>
        <time>2019-05-10T00:32:28Z</time>
      </trkpt>
      <trkpt lat="44.78864" lon="5.75796">
        <ele>806</ele>
        <time>2019-05-10T00:33:28Z</time>
      </trkpt>
      <trkpt lat="44.78824" lon="5.75863">
        <ele>805</ele>
        <time>2019-05-10T00:34:28Z</time>
      </trkpt>
      <trkpt lat="44.78837" lon="5.75909">
        <ele>801</ele>
        <time>2019-05-10T00:35:28Z</time>
      </trkpt>
      <trkpt lat="44.7898" lon="5.75943">
        <ele>805</ele>
        <time>2019-05-10T00:36:28Z</time>
      </trkpt>
      <trkpt lat="44.79058" lon="5.75913">
        <ele>804</ele>
        <time>2019-05-10T00:37:28Z</time>
      </trkpt>
      <trkpt lat="44.79234" lon="5.75971">
        <ele>819</ele>
        <time>2019-05-10T00:38:28Z</time>
      </trkpt>
      <trkpt lat="44.79327" lon="5.75931">
        <ele>828</ele>
        <time>2019-05-10T00:39:28Z</time>
      </trkpt>
      <trkpt lat="44.79456" lon="5.75804">
        <ele>828</ele>
        <time>2019-05-10T00:40:28Z</time>
      </trkpt>
      <trkpt lat="44.79527" lon="5.7571">
        <ele>819</ele>
        <time>2019-05-10T00:41:28Z</time>
      </trkpt>
      <trkpt lat="44.79624" lon="5.75661">
        <ele>818</ele>
        <time>2019-05-10T00:42:28Z</time>
      </trkpt>
      <trkpt lat="44.79676" lon="5.75579">
        <ele>812</ele>
        <time>2019-05-10T00:43:28Z</time>
      </trkpt>
      <trkpt lat="44.79768" lon="5.75506">
        <ele>805</ele>
        <time>2019-05-10T00:44:28Z</time>
      </trkpt>
      <trkpt lat="44.80029" lon="5.75464">
        <ele>803</ele>
        <time>2019-05-10T00:45:28Z</time>
      </trkpt>
      <trkpt lat="44.80145" lon="5.7547">
        <ele>796</ele>
        <time>2019-05-10T00:46:28Z</time>
      </trkpt>
      <trkpt lat="44.80216" lon="5.75418">
        <ele>794</ele>
        <time>2019-05-10T00:47:28Z</time>
      </trkpt>
      <trkpt lat="44.80281" lon="5.75355">
        <ele>801</ele>
        <time>2019-05-10T00:48:28Z</time>
      </trkpt>
      <trkpt lat="44.80324" lon="5.75242">
        <ele>803</ele>
        <time>2019-05-10T00:49:28Z</time>
      </trkpt>
      <trkpt lat="44.80363" lon="5.75158">
        <ele>805</ele>
        <time>2019-05-10T00:50:28Z</time>
      </trkpt>
      <trkpt lat="44.80408" lon="5.75097">
        <ele>810</ele>
        <time>2019-05-10T00:51:28Z</time>
      </trkpt>
      <trkpt lat="44.80462" lon="5.75006">
        <ele>810</ele>
        <time>2019-05-10T00:52:28Z</time>
      </trkpt>
      <trkpt lat="44.80576" lon="5.74985">
        <ele>818</ele>
        <time>2019-05-10T00:53:28Z</time>
      </trkpt>
      <trkpt lat="44.80709" lon="5.74875">
        <ele>816</ele>
        <time>2019-05-10T00:54:28Z</time>
      </trkpt>
      <trkpt lat="44.80808" lon="5.74836">
        <ele>812</ele>
        <time>2019-05-10T00:55:28Z</time>
      </trkpt>
      <trkpt lat="44.80916" lon="5.74818">
        <ele>806</ele>
        <time>2019-05-10T00:56:28Z</time>
      </trkpt>
      <trkpt lat="44.81073" lon="5.74918">
        <ele>798</ele>
        <time>2019-05-10T00:57:28Z</time>
      </trkpt>
      <trkpt lat="44.8126" lon="5.74821">
        <ele>787</ele>
        <time>2019-05-10T00:58:28Z</time>
      </trkpt>
      <trkpt lat="44.81366" lon="5.75079">
        <ele>779</ele>
        <time>2019-05-10T00:59:28Z</time>
      </trkpt>
      <trkpt lat="44.81435" lon="5.75103">
        <ele>775</ele>
        <time>2019-05-10T01:00:28Z</time>
      </trkpt>
      <trkpt lat="44.81695" lon="5.75063">
        <ele>778</ele>
        <time>2019-05-10T01:01:28Z</time>
      </trkpt>
      <trkpt lat="44.8171" lon="5.75142">
        <ele>780</ele>
        <time>2019-05-10T01:02:28Z</time>
      </trkpt>
    </trkseg>
  </trk>
  <trk>
    <name><![CDATA[20190510164004-MpfnD]]></name>
    <trkseg>
      <trkpt lat="44.8172" lon="5.75169">
        <ele>781</ele>
        <time>2019-05-10T14:53:14Z</time>
      </trkpt>
      <trkpt lat="44.81749" lon="5.75296">
        <ele>784</ele>
        <time>2019-05-10T14:54:14Z</time>
      </trkpt>
      <trkpt lat="44.81807" lon="5.75408">
        <ele>787</ele>
        <time>2019-05-10T14:55:14Z</time>
      </trkpt>
      <trkpt lat="44.81778" lon="5.75659">
        <ele>793</ele>
        <time>2019-05-10T14:56:14Z</time>
      </trkpt>
      <trkpt lat="44.81883" lon="5.75715">
        <ele>793</ele>
        <time>2019-05-10T14:57:14Z</time>
      </trkpt>
      <trkpt lat="44.82422" lon="5.76312">
        <ele>812</ele>
        <time>2019-05-10T14:58:14Z</time>
      </trkpt>
      <trkpt lat="44.83121" lon="5.77072">
        <ele>843</ele>
        <time>2019-05-10T14:59:14Z</time>
      </trkpt>
      <trkpt lat="44.83291" lon="5.77098">
        <ele>855</ele>
        <time>2019-05-10T15:00:14Z</time>
      </trkpt>
      <trkpt lat="44.83544" lon="5.77496">
        <ele>890</ele>
        <time>2019-05-10T15:01:14Z</time>
      </trkpt>
      <trkpt lat="44.83537" lon="5.77572">
        <ele>886</ele>
        <time>2019-05-10T15:02:14Z</time>
      </trkpt>
      <trkpt lat="44.8358" lon="5.7768">
        <ele>895</ele>
        <time>2019-05-10T15:03:14Z</time>
      </trkpt>
      <trkpt lat="44.8366" lon="5.77761">
        <ele>907</ele>
        <time>2019-05-10T15:04:14Z</time>
      </trkpt>
      <trkpt lat="44.83747" lon="5.77981">
        <ele>915</ele>
        <time>2019-05-10T15:05:14Z</time>
      </trkpt>
      <trkpt lat="44.83877" lon="5.77986">
        <ele>930</ele>
        <time>2019-05-10T15:06:14Z</time>
      </trkpt>
      <trkpt lat="44.84098" lon="5.78159">
        <ele>952</ele>
        <time>2019-05-10T15:07:14Z</time>
      </trkpt>
      <trkpt lat="44.84221" lon="5.78266">
        <ele>967</ele>
        <time>2019-05-10T15:08:14Z</time>
      </trkpt>
      <trkpt lat="44.84232" lon="5.78389">
        <ele>971</ele>
        <time>2019-05-10T15:09:14Z</time>
      </trkpt>
      <trkpt lat="44.84178" lon="5.78476">
        <ele>976</ele>
        <time>2019-05-10T15:10:14Z</time>
      </trkpt>
      <trkpt lat="44.84105" lon="5.78511">
        <ele>968</ele>
        <time>2019-05-10T15:11:14Z</time>
      </trkpt>
      <trkpt lat="44.84156" lon="5.78665">
        <ele>988</ele>
        <time>2019-05-10T15:12:14Z</time>
      </trkpt>
      <trkpt lat="44.84214" lon="5.78761">
        <ele>989</ele>
        <time>2019-05-10T15:13:14Z</time>
      </trkpt>
      <trkpt lat="44.84221" lon="5.78955">
        <ele>984</ele>
        <time>2019-05-10T15:14:14Z</time>
      </trkpt>
      <trkpt lat="44.84163" lon="5.79109">
        <ele>976</ele>
        <time>2019-05-10T15:15:14Z</time>
      </trkpt>
      <trkpt lat="44.84087" lon="5.79257">
        <ele>965</ele>
        <time>2019-05-10T15:16:14Z</time>
      </trkpt>
      <trkpt lat="44.83993" lon="5.79394">
        <ele>957</ele>
        <time>2019-05-10T15:17:14Z</time>
      </trkpt>
      <trkpt lat="44.83899" lon="5.79563">
        <ele>948</ele>
        <time>2019-05-10T15:18:14Z</time>
      </trkpt>
      <trkpt lat="44.83856" lon="5.79808">
        <ele>936</ele>
        <time>2019-05-10T15:19:14Z</time>
      </trkpt>
      <trkpt lat="44.83924" lon="5.799">
        <ele>925</ele>
        <time>2019-05-10T15:20:14Z</time>
      </trkpt>
      <trkpt lat="44.83935" lon="5.79971">
        <ele>927</ele>
        <time>2019-05-10T15:21:14Z</time>
      </trkpt>
      <trkpt lat="44.84217" lon="5.80252">
        <ele>909</ele>
        <time>2019-05-10T15:22:14Z</time>
      </trkpt>
      <trkpt lat="44.84311" lon="5.80405">
        <ele>907</ele>
        <time>2019-05-10T15:23:14Z</time>
      </trkpt>
      <trkpt lat="44.84366" lon="5.80614">
        <ele>904</ele>
        <time>2019-05-10T15:24:14Z</time>
      </trkpt>
      <trkpt lat="44.84402" lon="5.81002">
        <ele>899</ele>
        <time>2019-05-10T15:25:14Z</time>
      </trkpt>
      <trkpt lat="44.84435" lon="5.81165">
        <ele>899</ele>
        <time>2019-05-10T15:26:14Z</time>
      </trkpt>
      <trkpt lat="44.84377" lon="5.81625">
        <ele>900</ele>
        <time>2019-05-10T15:27:14Z</time>
      </trkpt>
      <trkpt lat="44.84402" lon="5.81798">
        <ele>899</ele>
        <time>2019-05-10T15:28:14Z</time>
      </trkpt>
      <trkpt lat="44.84359" lon="5.8212">
        <ele>893</ele>
        <time>2019-05-10T15:29:14Z</time>
      </trkpt>
      <trkpt lat="44.84315" lon="5.82314">
        <ele>890</ele>
        <time>2019-05-10T15:30:14Z</time>
      </trkpt>
      <trkpt lat="44.84196" lon="5.82513">
        <ele>893</ele>
        <time>2019-05-10T15:31:14Z</time>
      </trkpt>
      <trkpt lat="44.84109" lon="5.82625">
        <ele>889</ele>
        <time>2019-05-10T15:32:14Z</time>
      </trkpt>
      <trkpt lat="44.84004" lon="5.82742">
        <ele>888</ele>
        <time>2019-05-10T15:33:14Z</time>
      </trkpt>
      <trkpt lat="44.83856" lon="5.83054">
        <ele>889</ele>
        <time>2019-05-10T15:34:14Z</time>
      </trkpt>
      <trkpt lat="44.83685" lon="5.83171">
        <ele>884</ele>
        <time>2019-05-10T15:35:14Z</time>
      </trkpt>
      <trkpt lat="44.8349" lon="5.83447">
        <ele>881</ele>
        <time>2019-05-10T15:36:14Z</time>
      </trkpt>
      <trkpt lat="44.83215" lon="5.83712">
        <ele>882</ele>
        <time>2019-05-10T15:37:14Z</time>
      </trkpt>
      <trkpt lat="44.83027" lon="5.83651">
        <ele>890</ele>
        <time>2019-05-10T15:38:14Z</time>
      </trkpt>
      <trkpt lat="44.82991" lon="5.83656">
        <ele>893</ele>
        <time>2019-05-10T15:39:14Z</time>
      </trkpt>
      <trkpt lat="44.83001" lon="5.83773">
        <ele>892</ele>
        <time>2019-05-10T15:40:14Z</time>
      </trkpt>
      <trkpt lat="44.82936" lon="5.83834">
        <ele>897</ele>
        <time>2019-05-10T15:41:14Z</time>
      </trkpt>
      <trkpt lat="44.82828" lon="5.83906">
        <ele>901</ele>
        <time>2019-05-10T15:42:14Z</time>
      </trkpt>
      <trkpt lat="44.82683" lon="5.84181">
        <ele>903</ele>
        <time>2019-05-10T15:43:14Z</time>
      </trkpt>
      <trkpt lat="44.82744" lon="5.84493">
        <ele>912</ele>
        <time>2019-05-10T15:44:14Z</time>
      </trkpt>
      <trkpt lat="44.82607" lon="5.84702">
        <ele>924</ele>
        <time>2019-05-10T15:45:14Z</time>
      </trkpt>
      <trkpt lat="44.82473" lon="5.84947">
        <ele>937</ele>
        <time>2019-05-10T15:46:14Z</time>
      </trkpt>
      <trkpt lat="44.82386" lon="5.8512">
        <ele>927</ele>
        <time>2019-05-10T15:47:14Z</time>
      </trkpt>
      <trkpt lat="44.82288" lon="5.85146">
        <ele>942</ele>
        <time>2019-05-10T15:48:14Z</time>
      </trkpt>
      <trkpt lat="44.8222" lon="5.85314">
        <ele>942</ele>
        <time>2019-05-10T15:49:14Z</time>
      </trkpt>
      <trkpt lat="44.82129" lon="5.85411">
        <ele>952</ele>
        <time>2019-05-10T15:50:14Z</time>
      </trkpt>
      <trkpt lat="44.82039" lon="5.85616">
        <ele>945</ele>
        <time>2019-05-10T15:51:14Z</time>
      </trkpt>
      <trkpt lat="44.81992" lon="5.85636">
        <ele>956</ele>
        <time>2019-05-10T15:52:14Z</time>
      </trkpt>
      <trkpt lat="44.81887" lon="5.8606">
        <ele>946</ele>
        <time>2019-05-10T15:53:14Z</time>
      </trkpt>
      <trkpt lat="44.81829" lon="5.86044">
        <ele>944</ele>
        <time>2019-05-10T15:54:14Z</time>
      </trkpt>
      <trkpt lat="44.81753" lon="5.85988">
        <ele>939</ele>
        <time>2019-05-10T15:55:14Z</time>
      </trkpt>
      <trkpt lat="44.81687" lon="5.85906">
        <ele>945</ele>
        <time>2019-05-10T15:56:14Z</time>
      </trkpt>
      <trkpt lat="44.81619" lon="5.86065">
        <ele>921</ele>
        <time>2019-05-10T15:57:14Z</time>
      </trkpt>
      <trkpt lat="44.8155" lon="5.86116">
        <ele>914</ele>
        <time>2019-05-10T15:58:14Z</time>
      </trkpt>
      <trkpt lat="44.81463" lon="5.86116">
        <ele>912</ele>
        <time>2019-05-10T15:59:14Z</time>
      </trkpt>
      <trkpt lat="44.81329" lon="5.86202">
        <ele>899</ele>
        <time>2019-05-10T16:00:14Z</time>
      </trkpt>
      <trkpt lat="44.81271" lon="5.86356">
        <ele>883</ele>
        <time>2019-05-10T16:01:14Z</time>
      </trkpt>
      <trkpt lat="44.8121" lon="5.86417">
        <ele>881</ele>
        <time>2019-05-10T16:02:14Z</time>
      </trkpt>
      <trkpt lat="44.81217" lon="5.86478">
        <ele>884</ele>
        <time>2019-05-10T16:03:14Z</time>
      </trkpt>
      <trkpt lat="44.81307" lon="5.86555">
        <ele>891</ele>
        <time>2019-05-10T16:04:14Z</time>
      </trkpt>
      <trkpt lat="44.81459" lon="5.86544">
        <ele>896</ele>
        <time>2019-05-10T16:05:14Z</time>
      </trkpt>
      <trkpt lat="44.81545" lon="5.86521">
        <ele>895</ele>
        <time>2019-05-10T16:06:14Z</time>
      </trkpt>
      <trkpt lat="44.81612" lon="5.86574">
        <ele>903</ele>
        <time>2019-05-10T16:07:14Z</time>
      </trkpt>
      <trkpt lat="44.81724" lon="5.86626">
        <ele>899</ele>
        <time>2019-05-10T16:08:14Z</time>
      </trkpt>
      <trkpt lat="44.81731" lon="5.86684">
        <ele>905</ele>
        <time>2019-05-10T16:09:14Z</time>
      </trkpt>
      <trkpt lat="44.81699" lon="5.86746">
        <ele>906</ele>
        <time>2019-05-10T16:10:14Z</time>
      </trkpt>
      <trkpt lat="44.81235" lon="5.86967">
        <ele>915</ele>
        <time>2019-05-10T16:11:14Z</time>
      </trkpt>
      <trkpt lat="44.81189" lon="5.86969">
        <ele>907</ele>
        <time>2019-05-10T16:12:14Z</time>
      </trkpt>
      <trkpt lat="44.81143" lon="5.86897">
        <ele>914</ele>
        <time>2019-05-10T16:13:14Z</time>
      </trkpt>
      <trkpt lat="44.80951" lon="5.8685">
        <ele>918</ele>
        <time>2019-05-10T16:14:14Z</time>
      </trkpt>
      <trkpt lat="44.80874" lon="5.86894">
        <ele>901</ele>
        <time>2019-05-10T16:15:14Z</time>
      </trkpt>
      <trkpt lat="44.80787" lon="5.86908">
        <ele>903</ele>
        <time>2019-05-10T16:16:14Z</time>
      </trkpt>
      <trkpt lat="44.80751" lon="5.8694">
        <ele>899</ele>
        <time>2019-05-10T16:17:14Z</time>
      </trkpt>
      <trkpt lat="44.80669" lon="5.86966">
        <ele>894</ele>
        <time>2019-05-10T16:18:14Z</time>
      </trkpt>
      <trkpt lat="44.807" lon="5.87027">
        <ele>897</ele>
        <time>2019-05-10T16:19:14Z</time>
      </trkpt>
      <trkpt lat="44.80815" lon="5.87042">
        <ele>894</ele>
        <time>2019-05-10T16:20:14Z</time>
      </trkpt>
      <trkpt lat="44.80905" lon="5.8706">
        <ele>885</ele>
        <time>2019-05-10T16:21:14Z</time>
      </trkpt>
      <trkpt lat="44.80979" lon="5.87197">
        <ele>903</ele>
        <time>2019-05-10T16:22:14Z</time>
      </trkpt>
      <trkpt lat="44.81074" lon="5.87272">
        <ele>895</ele>
        <time>2019-05-10T16:23:14Z</time>
      </trkpt>
      <trkpt lat="44.81097" lon="5.8763">
        <ele>905</ele>
        <time>2019-05-10T16:24:14Z</time>
      </trkpt>
      <trkpt lat="44.81074" lon="5.87792">
        <ele>916</ele>
        <time>2019-05-10T16:25:14Z</time>
      </trkpt>
      <trkpt lat="44.81217" lon="5.88142">
        <ele>907</ele>
        <time>2019-05-10T16:26:14Z</time>
      </trkpt>
      <trkpt lat="44.81174" lon="5.88326">
        <ele>909</ele>
        <time>2019-05-10T16:27:14Z</time>
      </trkpt>
      <trkpt lat="44.81076" lon="5.88561">
        <ele>904</ele>
        <time>2019-05-10T16:28:14Z</time>
      </trkpt>
      <trkpt lat="44.81039" lon="5.88623">
        <ele>908</ele>
        <time>2019-05-10T16:29:14Z</time>
      </trkpt>
      <trkpt lat="44.81011" lon="5.88683">
        <ele>907</ele>
        <time>2019-05-10T16:30:14Z</time>
      </trkpt>
      <trkpt lat="44.80973" lon="5.88729">
        <ele>910</ele>
        <time>2019-05-10T16:31:14Z</time>
      </trkpt>
      <trkpt lat="44.80927" lon="5.88815">
        <ele>912</ele>
        <time>2019-05-10T16:32:14Z</time>
      </trkpt>
      <trkpt lat="44.80779" lon="5.89117">
        <ele>917</ele>
        <time>2019-05-10T16:33:14Z</time>
      </trkpt>
      <trkpt lat="44.80695" lon="5.8934">
        <ele>917</ele>
        <time>2019-05-10T16:34:14Z</time>
      </trkpt>
      <trkpt lat="44.80631" lon="5.89409">
        <ele>919</ele>
        <time>2019-05-10T16:35:14Z</time>
      </trkpt>
      <trkpt lat="44.80564" lon="5.89524">
        <ele>920</ele>
        <time>2019-05-10T16:36:14Z</time>
      </trkpt>
      <trkpt lat="44.80372" lon="5.89766">
        <ele>918</ele>
        <time>2019-05-10T16:37:14Z</time>
      </trkpt>
      <trkpt lat="44.8027" lon="5.89954">
        <ele>922</ele>
        <time>2019-05-10T16:38:14Z</time>
      </trkpt>
      <trkpt lat="44.80213" lon="5.90102">
        <ele>933</ele>
        <time>2019-05-10T16:39:14Z</time>
      </trkpt>
      <trkpt lat="44.80096" lon="5.90239">
        <ele>941</ele>
        <time>2019-05-10T16:40:14Z</time>
      </trkpt>
      <trkpt lat="44.80021" lon="5.9039">
        <ele>945</ele>
        <time>2019-05-10T16:41:14Z</time>
      </trkpt>
      <trkpt lat="44.7995" lon="5.90564">
        <ele>949</ele>
        <time>2019-05-10T16:42:14Z</time>
      </trkpt>
      <trkpt lat="44.79901" lon="5.90629">
        <ele>943</ele>
        <time>2019-05-10T16:43:14Z</time>
      </trkpt>
      <trkpt lat="44.79886" lon="5.90676">
        <ele>937</ele>
        <time>2019-05-10T16:44:14Z</time>
      </trkpt>
      <trkpt lat="44.79776" lon="5.90676">
        <ele>928</ele>
        <time>2019-05-10T16:45:14Z</time>
      </trkpt>
      <trkpt lat="44.79648" lon="5.91062">
        <ele>924</ele>
        <time>2019-05-10T16:46:14Z</time>
      </trkpt>
      <trkpt lat="44.79084" lon="5.90986">
        <ele>934</ele>
        <time>2019-05-10T16:47:14Z</time>
      </trkpt>
      <trkpt lat="44.78672" lon="5.90921">
        <ele>936</ele>
        <time>2019-05-10T16:48:14Z</time>
      </trkpt>
      <trkpt lat="44.78072" lon="5.90791">
        <ele>947</ele>
        <time>2019-05-10T16:49:14Z</time>
      </trkpt>
      <trkpt lat="44.78065" lon="5.90946">
        <ele>938</ele>
        <time>2019-05-10T16:50:14Z</time>
      </trkpt>
      <trkpt lat="44.78134" lon="5.90953">
        <ele>937</ele>
        <time>2019-05-10T16:51:14Z</time>
      </trkpt>
      <trkpt lat="44.78213" lon="5.91033">
        <ele>930</ele>
        <time>2019-05-10T16:52:14Z</time>
      </trkpt>
      <trkpt lat="44.78244" lon="5.91148">
        <ele>923</ele>
        <time>2019-05-10T16:53:14Z</time>
      </trkpt>
      <trkpt lat="44.78239" lon="5.91289">
        <ele>900</ele>
        <time>2019-05-10T16:54:14Z</time>
      </trkpt>
      <trkpt lat="44.78279" lon="5.91319">
        <ele>898</ele>
        <time>2019-05-10T16:55:14Z</time>
      </trkpt>
      <trkpt lat="44.78336" lon="5.91275">
        <ele>910</ele>
        <time>2019-05-10T16:56:14Z</time>
      </trkpt>
      <trkpt lat="44.78372" lon="5.9128">
        <ele>898</ele>
        <time>2019-05-10T16:57:14Z</time>
      </trkpt>
      <trkpt lat="44.78395" lon="5.91294">
        <ele>889</ele>
        <time>2019-05-10T16:58:14Z</time>
      </trkpt>
      <trkpt lat="44.78382" lon="5.91303">
        <ele>891</ele>
        <time>2019-05-10T16:59:14Z</time>
      </trkpt>
      <trkpt lat="44.78355" lon="5.91298">
        <ele>899</ele>
        <time>2019-05-10T17:00:14Z</time>
      </trkpt>
      <trkpt lat="44.78331" lon="5.91323">
        <ele>899</ele>
        <time>2019-05-10T17:01:14Z</time>
      </trkpt>
      <trkpt lat="44.78312" lon="5.91378">
        <ele>884</ele>
        <time>2019-05-10T17:02:14Z</time>
      </trkpt>
      <trkpt lat="44.78321" lon="5.91427">
        <ele>872</ele>
        <time>2019-05-10T17:03:14Z</time>
      </trkpt>
      <trkpt lat="44.78308" lon="5.91431">
        <ele>870</ele>
        <time>2019-05-10T17:04:14Z</time>
      </trkpt>
      <trkpt lat="44.78291" lon="5.91418">
        <ele>872</ele>
        <time>2019-05-10T17:05:14Z</time>
      </trkpt>
      <trkpt lat="44.78248" lon="5.91418">
        <ele>868</ele>
        <time>2019-05-10T17:06:14Z</time>
      </trkpt>
      <trkpt lat="44.78236" lon="5.91393">
        <ele>874</ele>
        <time>2019-05-10T17:07:14Z</time>
      </trkpt>
      <trkpt lat="44.78202" lon="5.91384">
        <ele>870</ele>
        <time>2019-05-10T17:08:14Z</time>
      </trkpt>
      <trkpt lat="44.78177" lon="5.91381">
        <ele>866</ele>
        <time>2019-05-10T17:09:14Z</time>
      </trkpt>
      <trkpt lat="44.7814" lon="5.91397">
        <ele>855</ele>
        <time>2019-05-10T17:10:14Z</time>
      </trkpt>
      <trkpt lat="44.78124" lon="5.9144">
        <ele>844</ele>
        <time>2019-05-10T17:11:14Z</time>
      </trkpt>
      <trkpt lat="44.78097" lon="5.91421">
        <ele>843</ele>
        <time>2019-05-10T17:12:14Z</time>
      </trkpt>
      <trkpt lat="44.78095" lon="5.91395">
        <ele>845</ele>
        <time>2019-05-10T17:13:14Z</time>
      </trkpt>
      <trkpt lat="44.78102" lon="5.91322">
        <ele>855</ele>
        <time>2019-05-10T17:14:14Z</time>
      </trkpt>
      <trkpt lat="44.78094" lon="5.91299">
        <ele>856</ele>
        <time>2019-05-10T17:15:14Z</time>
      </trkpt>
      <trkpt lat="44.7808" lon="5.91282">
        <ele>855</ele>
        <time>2019-05-10T17:16:14Z</time>
      </trkpt>
      <trkpt lat="44.78061" lon="5.91275">
        <ele>852</ele>
        <time>2019-05-10T17:17:14Z</time>
      </trkpt>
      <trkpt lat="44.78033" lon="5.91282">
        <ele>843</ele>
        <time>2019-05-10T17:18:14Z</time>
      </trkpt>
      <trkpt lat="44.78015" lon="5.9128">
        <ele>839</ele>
        <time>2019-05-10T17:19:14Z</time>
      </trkpt>
      <trkpt lat="44.77987" lon="5.91244">
        <ele>844</ele>
        <time>2019-05-10T17:20:14Z</time>
      </trkpt>
      <trkpt lat="44.77969" lon="5.91225">
        <ele>847</ele>
        <time>2019-05-10T17:21:14Z</time>
      </trkpt>
      <trkpt lat="44.77947" lon="5.91211">
        <ele>849</ele>
        <time>2019-05-10T17:22:14Z</time>
      </trkpt>
      <trkpt lat="44.77932" lon="5.91215">
        <ele>847</ele>
        <time>2019-05-10T17:23:14Z</time>
      </trkpt>
      <trkpt lat="44.77927" lon="5.91234">
        <ele>841</ele>
        <time>2019-05-10T17:24:14Z</time>
      </trkpt>
      <trkpt lat="44.77966" lon="5.91257">
        <ele>838</ele>
        <time>2019-05-10T17:25:14Z</time>
      </trkpt>
      <trkpt lat="44.77993" lon="5.91288">
        <ele>833</ele>
        <time>2019-05-10T17:26:14Z</time>
      </trkpt>
      <trkpt lat="44.78004" lon="5.91333">
        <ele>823</ele>
        <time>2019-05-10T17:27:14Z</time>
      </trkpt>
      <trkpt lat="44.78026" lon="5.91359">
        <ele>826</ele>
        <time>2019-05-10T17:28:14Z</time>
      </trkpt>
      <trkpt lat="44.78025" lon="5.91411">
        <ele>818</ele>
        <time>2019-05-10T17:29:14Z</time>
      </trkpt>
      <trkpt lat="44.78058" lon="5.9147">
        <ele>822</ele>
        <time>2019-05-10T17:30:14Z</time>
      </trkpt>
      <trkpt lat="44.78061" lon="5.91522">
        <ele>816</ele>
        <time>2019-05-10T17:31:14Z</time>
      </trkpt>
      <trkpt lat="44.78056" lon="5.91587">
        <ele>810</ele>
        <time>2019-05-10T17:32:14Z</time>
      </trkpt>
      <trkpt lat="44.78049" lon="5.91631">
        <ele>811</ele>
        <time>2019-05-10T17:33:14Z</time>
      </trkpt>
      <trkpt lat="44.78016" lon="5.91704">
        <ele>803</ele>
        <time>2019-05-10T17:34:14Z</time>
      </trkpt>
      <trkpt lat="44.77985" lon="5.91732">
        <ele>798</ele>
        <time>2019-05-10T17:35:14Z</time>
      </trkpt>
      <trkpt lat="44.77989" lon="5.91758">
        <ele>798</ele>
        <time>2019-05-10T17:36:14Z</time>
      </trkpt>
      <trkpt lat="44.78008" lon="5.91778">
        <ele>798</ele>
        <time>2019-05-10T17:37:14Z</time>
      </trkpt>
      <trkpt lat="44.78008" lon="5.91829">
        <ele>790</ele>
        <time>2019-05-10T17:38:14Z</time>
      </trkpt>
      <trkpt lat="44.78027" lon="5.91848">
        <ele>787</ele>
        <time>2019-05-10T17:39:14Z</time>
      </trkpt>
      <trkpt lat="44.78056" lon="5.91837">
        <ele>788</ele>
        <time>2019-05-10T17:40:14Z</time>
      </trkpt>
      <trkpt lat="44.78095" lon="5.91762">
        <ele>802</ele>
        <time>2019-05-10T17:41:14Z</time>
      </trkpt>
      <trkpt lat="44.7814" lon="5.91729">
        <ele>795</ele>
        <time>2019-05-10T17:42:14Z</time>
      </trkpt>
      <trkpt lat="44.78159" lon="5.91703">
        <ele>794</ele>
        <time>2019-05-10T17:43:14Z</time>
      </trkpt>
      <trkpt lat="44.7817" lon="5.91677">
        <ele>798</ele>
        <time>2019-05-10T17:44:14Z</time>
      </trkpt>
      <trkpt lat="44.78194" lon="5.91678">
        <ele>797</ele>
        <time>2019-05-10T17:45:14Z</time>
      </trkpt>
      <trkpt lat="44.78193" lon="5.91704">
        <ele>791</ele>
        <time>2019-05-10T17:46:14Z</time>
      </trkpt>
      <trkpt lat="44.78138" lon="5.91747">
        <ele>792</ele>
        <time>2019-05-10T17:47:14Z</time>
      </trkpt>
      <trkpt lat="44.78095" lon="5.91815">
        <ele>789</ele>
        <time>2019-05-10T17:48:14Z</time>
      </trkpt>
      <trkpt lat="44.78099" lon="5.91864">
        <ele>780</ele>
        <time>2019-05-10T17:49:14Z</time>
      </trkpt>
      <trkpt lat="44.78122" lon="5.91935">
        <ele>777</ele>
        <time>2019-05-10T17:50:14Z</time>
      </trkpt>
      <trkpt lat="44.78158" lon="5.92013">
        <ele>786</ele>
        <time>2019-05-10T17:51:14Z</time>
      </trkpt>
      <trkpt lat="44.78177" lon="5.92028">
        <ele>788</ele>
        <time>2019-05-10T17:52:14Z</time>
      </trkpt>
      <trkpt lat="44.78236" lon="5.92023">
        <ele>786</ele>
        <time>2019-05-10T17:53:14Z</time>
      </trkpt>
      <trkpt lat="44.78256" lon="5.92048">
        <ele>789</ele>
        <time>2019-05-10T17:54:14Z</time>
      </trkpt>
      <trkpt lat="44.78262" lon="5.92082">
        <ele>794</ele>
        <time>2019-05-10T17:55:14Z</time>
      </trkpt>
      <trkpt lat="44.78252" lon="5.92092">
        <ele>798</ele>
        <time>2019-05-10T17:56:14Z</time>
      </trkpt>
      <trkpt lat="44.78234" lon="5.92063">
        <ele>793</ele>
        <time>2019-05-10T17:57:14Z</time>
      </trkpt>
      <trkpt lat="44.78218" lon="5.9205">
        <ele>791</ele>
        <time>2019-05-10T17:58:14Z</time>
      </trkpt>
      <trkpt lat="44.78206" lon="5.92055">
        <ele>792</ele>
        <time>2019-05-10T17:59:14Z</time>
      </trkpt>
      <trkpt lat="44.78202" lon="5.92075">
        <ele>796</ele>
        <time>2019-05-10T18:00:14Z</time>
      </trkpt>
      <trkpt lat="44.78213" lon="5.9214">
        <ele>805</ele>
        <time>2019-05-10T18:01:14Z</time>
      </trkpt>
      <trkpt lat="44.78211" lon="5.92209">
        <ele>815</ele>
        <time>2019-05-10T18:02:14Z</time>
      </trkpt>
      <trkpt lat="44.78197" lon="5.92251">
        <ele>822</ele>
        <time>2019-05-10T18:03:14Z</time>
      </trkpt>
      <trkpt lat="44.78181" lon="5.92267">
        <ele>824</ele>
        <time>2019-05-10T18:04:14Z</time>
      </trkpt>
      <trkpt lat="44.78152" lon="5.92261">
        <ele>826</ele>
        <time>2019-05-10T18:05:14Z</time>
      </trkpt>
      <trkpt lat="44.78116" lon="5.9222">
        <ele>829</ele>
        <time>2019-05-10T18:06:14Z</time>
      </trkpt>
      <trkpt lat="44.78047" lon="5.92158">
        <ele>834</ele>
        <time>2019-05-10T18:07:14Z</time>
      </trkpt>
      <trkpt lat="44.77984" lon="5.92109">
        <ele>837</ele>
        <time>2019-05-10T18:08:14Z</time>
      </trkpt>
      <trkpt lat="44.77924" lon="5.92054">
        <ele>844</ele>
        <time>2019-05-10T18:09:14Z</time>
      </trkpt>
      <trkpt lat="44.77869" lon="5.9199">
        <ele>843</ele>
        <time>2019-05-10T18:10:14Z</time>
      </trkpt>
      <trkpt lat="44.77805" lon="5.91978">
        <ele>858</ele>
        <time>2019-05-10T18:11:14Z</time>
      </trkpt>
      <trkpt lat="44.77751" lon="5.9194">
        <ele>865</ele>
        <time>2019-05-10T18:12:14Z</time>
      </trkpt>
      <trkpt lat="44.77722" lon="5.91907">
        <ele>864</ele>
        <time>2019-05-10T18:13:14Z</time>
      </trkpt>
      <trkpt lat="44.77689" lon="5.91897">
        <ele>866</ele>
        <time>2019-05-10T18:14:14Z</time>
      </trkpt>
      <trkpt lat="44.77729" lon="5.92001">
        <ele>880</ele>
        <time>2019-05-10T18:15:14Z</time>
      </trkpt>
      <trkpt lat="44.77785" lon="5.92073">
        <ele>889</ele>
        <time>2019-05-10T18:16:14Z</time>
      </trkpt>
      <trkpt lat="44.77852" lon="5.92131">
        <ele>884</ele>
        <time>2019-05-10T18:17:14Z</time>
      </trkpt>
      <trkpt lat="44.77865" lon="5.92216">
        <ele>892</ele>
        <time>2019-05-10T18:18:14Z</time>
      </trkpt>
      <trkpt lat="44.77814" lon="5.92149">
        <ele>899</ele>
        <time>2019-05-10T18:19:14Z</time>
      </trkpt>
      <trkpt lat="44.7774" lon="5.92103">
        <ele>906</ele>
        <time>2019-05-10T18:20:14Z</time>
      </trkpt>
      <trkpt lat="44.77669" lon="5.92096">
        <ele>917</ele>
        <time>2019-05-10T18:21:14Z</time>
      </trkpt>
      <trkpt lat="44.77613" lon="5.92101">
        <ele>919</ele>
        <time>2019-05-10T18:22:14Z</time>
      </trkpt>
      <trkpt lat="44.77535" lon="5.92139">
        <ele>932</ele>
        <time>2019-05-10T18:23:14Z</time>
      </trkpt>
      <trkpt lat="44.77474" lon="5.92124">
        <ele>937</ele>
        <time>2019-05-10T18:24:14Z</time>
      </trkpt>
      <trkpt lat="44.77507" lon="5.9217">
        <ele>942</ele>
        <time>2019-05-10T18:25:14Z</time>
      </trkpt>
      <trkpt lat="44.77543" lon="5.92167">
        <ele>939</ele>
        <time>2019-05-10T18:26:14Z</time>
      </trkpt>
      <trkpt lat="44.77677" lon="5.92188">
        <ele>939</ele>
        <time>2019-05-10T18:27:14Z</time>
      </trkpt>
      <trkpt lat="44.77707" lon="5.92241">
        <ele>942</ele>
        <time>2019-05-10T18:28:14Z</time>
      </trkpt>
      <trkpt lat="44.77698" lon="5.92416">
        <ele>952</ele>
        <time>2019-05-10T18:29:14Z</time>
      </trkpt>
      <trkpt lat="44.77679" lon="5.92486">
        <ele>960</ele>
        <time>2019-05-10T18:30:14Z</time>
      </trkpt>
      <trkpt lat="44.77678" lon="5.92525">
        <ele>963</ele>
        <time>2019-05-10T18:31:14Z</time>
      </trkpt>
      <trkpt lat="44.7772" lon="5.92545">
        <ele>955</ele>
        <time>2019-05-10T18:32:14Z</time>
      </trkpt>
      <trkpt lat="44.77718" lon="5.92619">
        <ele>963</ele>
        <time>2019-05-10T18:33:14Z</time>
      </trkpt>
      <trkpt lat="44.7776" lon="5.92657">
        <ele>958</ele>
        <time>2019-05-10T18:34:14Z</time>
      </trkpt>
      <trkpt lat="44.7785" lon="5.92601">
        <ele>944</ele>
        <time>2019-05-10T18:35:14Z</time>
      </trkpt>
      <trkpt lat="44.77881" lon="5.92647">
        <ele>942</ele>
        <time>2019-05-10T18:36:14Z</time>
      </trkpt>
      <trkpt lat="44.77861" lon="5.92846">
        <ele>951</ele>
        <time>2019-05-10T18:37:14Z</time>
      </trkpt>
      <trkpt lat="44.77887" lon="5.92882">
        <ele>955</ele>
        <time>2019-05-10T18:38:14Z</time>
      </trkpt>
      <trkpt lat="44.77964" lon="5.92862">
        <ele>945</ele>
        <time>2019-05-10T18:39:14Z</time>
      </trkpt>
      <trkpt lat="44.78102" lon="5.9273">
        <ele>910</ele>
        <time>2019-05-10T18:40:14Z</time>
      </trkpt>
      <trkpt lat="44.78165" lon="5.92788">
        <ele>921</ele>
        <time>2019-05-10T18:41:14Z</time>
      </trkpt>
      <trkpt lat="44.78195" lon="5.92856">
        <ele>937</ele>
        <time>2019-05-10T18:42:14Z</time>
      </trkpt>
      <trkpt lat="44.7823" lon="5.92842">
        <ele>934</ele>
        <time>2019-05-10T18:43:14Z</time>
      </trkpt>
      <trkpt lat="44.78258" lon="5.92671">
        <ele>915</ele>
        <time>2019-05-10T18:44:14Z</time>
      </trkpt>
      <trkpt lat="44.78291" lon="5.9255">
        <ele>907</ele>
        <time>2019-05-10T18:45:14Z</time>
      </trkpt>
      <trkpt lat="44.78399" lon="5.92491">
        <ele>915</ele>
        <time>2019-05-10T18:46:14Z</time>
      </trkpt>
      <trkpt lat="44.78522" lon="5.92491">
        <ele>923</ele>
        <time>2019-05-10T18:47:14Z</time>
      </trkpt>
      <trkpt lat="44.78662" lon="5.92532">
        <ele>930</ele>
        <time>2019-05-10T18:48:14Z</time>
      </trkpt>
      <trkpt lat="44.78745" lon="5.92611">
        <ele>934</ele>
        <time>2019-05-10T18:49:14Z</time>
      </trkpt>
      <trkpt lat="44.7876" lon="5.92698">
        <ele>943</ele>
        <time>2019-05-10T18:50:14Z</time>
      </trkpt>
      <trkpt lat="44.78767" lon="5.9281">
        <ele>964</ele>
        <time>2019-05-10T18:51:14Z</time>
      </trkpt>
      <trkpt lat="44.78839" lon="5.92795">
        <ele>945</ele>
        <time>2019-05-10T18:52:14Z</time>
      </trkpt>
      <trkpt lat="44.78892" lon="5.92739">
        <ele>932</ele>
        <time>2019-05-10T18:53:14Z</time>
      </trkpt>
      <trkpt lat="44.7897" lon="5.92708">
        <ele>930</ele>
        <time>2019-05-10T18:54:14Z</time>
      </trkpt>
      <trkpt lat="44.79086" lon="5.92723">
        <ele>935</ele>
        <time>2019-05-10T18:55:14Z</time>
      </trkpt>
      <trkpt lat="44.79209" lon="5.92746">
        <ele>935</ele>
        <time>2019-05-10T18:56:14Z</time>
      </trkpt>
      <trkpt lat="44.79294" lon="5.92787">
        <ele>939</ele>
        <time>2019-05-10T18:57:14Z</time>
      </trkpt>
      <trkpt lat="44.7952" lon="5.92764">
        <ele>920</ele>
        <time>2019-05-10T18:58:14Z</time>
      </trkpt>
      <trkpt lat="44.79622" lon="5.92828">
        <ele>922</ele>
        <time>2019-05-10T18:59:14Z</time>
      </trkpt>
      <trkpt lat="44.79723" lon="5.92917">
        <ele>922</ele>
        <time>2019-05-10T19:00:14Z</time>
      </trkpt>
      <trkpt lat="44.79834" lon="5.92968">
        <ele>919</ele>
        <time>2019-05-10T19:01:14Z</time>
      </trkpt>
      <trkpt lat="44.80156" lon="5.93096">
        <ele>911</ele>
        <time>2019-05-10T19:02:14Z</time>
      </trkpt>
      <trkpt lat="44.80257" lon="5.93088">
        <ele>912</ele>
        <time>2019-05-10T19:03:14Z</time>
      </trkpt>
      <trkpt lat="44.80322" lon="5.93009">
        <ele>906</ele>
        <time>2019-05-10T19:04:14Z</time>
      </trkpt>
      <trkpt lat="44.80353" lon="5.92915">
        <ele>895</ele>
        <time>2019-05-10T19:05:14Z</time>
      </trkpt>
      <trkpt lat="44.80458" lon="5.92884">
        <ele>893</ele>
        <time>2019-05-10T19:06:14Z</time>
      </trkpt>
      <trkpt lat="44.80497" lon="5.93017">
        <ele>907</ele>
        <time>2019-05-10T19:07:14Z</time>
      </trkpt>
      <trkpt lat="44.80541" lon="5.93029">
        <ele>906</ele>
        <time>2019-05-10T19:08:14Z</time>
      </trkpt>
      <trkpt lat="44.80552" lon="5.93065">
        <ele>904</ele>
        <time>2019-05-10T19:09:14Z</time>
      </trkpt>
      <trkpt lat="44.8059" lon="5.93047">
        <ele>902</ele>
        <time>2019-05-10T19:10:14Z</time>
      </trkpt>
      <trkpt lat="44.80626" lon="5.93023">
        <ele>904</ele>
        <time>2019-05-10T19:11:14Z</time>
      </trkpt>
      <trkpt lat="44.80684" lon="5.93056">
        <ele>889</ele>
        <time>2019-05-10T19:12:14Z</time>
      </trkpt>
      <trkpt lat="44.80716" lon="5.93039">
        <ele>886</ele>
        <time>2019-05-10T19:13:14Z</time>
      </trkpt>
      <trkpt lat="44.80763" lon="5.92979">
        <ele>885</ele>
        <time>2019-05-10T19:14:14Z</time>
      </trkpt>
      <trkpt lat="44.80787" lon="5.92936">
        <ele>885</ele>
        <time>2019-05-10T19:15:14Z</time>
      </trkpt>
      <trkpt lat="44.80818" lon="5.92903">
        <ele>877</ele>
        <time>2019-05-10T19:16:14Z</time>
      </trkpt>
      <trkpt lat="44.80842" lon="5.92873">
        <ele>869</ele>
        <time>2019-05-10T19:17:14Z</time>
      </trkpt>
      <trkpt lat="44.80833" lon="5.92835">
        <ele>871</ele>
        <time>2019-05-10T19:18:14Z</time>
      </trkpt>
      <trkpt lat="44.8085" lon="5.92841">
        <ele>866</ele>
        <time>2019-05-10T19:19:14Z</time>
      </trkpt>
      <trkpt lat="44.80856" lon="5.92872">
        <ele>865</ele>
        <time>2019-05-10T19:20:14Z</time>
      </trkpt>
      <trkpt lat="44.80881" lon="5.92889">
        <ele>856</ele>
        <time>2019-05-10T19:21:14Z</time>
      </trkpt>
      <trkpt lat="44.80877" lon="5.92903">
        <ele>857</ele>
        <time>2019-05-10T19:22:14Z</time>
      </trkpt>
      <trkpt lat="44.80847" lon="5.92913">
        <ele>868</ele>
        <time>2019-05-10T19:23:14Z</time>
      </trkpt>
      <trkpt lat="44.80828" lon="5.92923">
        <ele>874</ele>
        <time>2019-05-10T19:24:14Z</time>
      </trkpt>
      <trkpt lat="44.80819" lon="5.9295">
        <ele>872</ele>
        <time>2019-05-10T19:25:14Z</time>
      </trkpt>
      <trkpt lat="44.80818" lon="5.92993">
        <ele>864</ele>
        <time>2019-05-10T19:26:14Z</time>
      </trkpt>
      <trkpt lat="44.8082" lon="5.93031">
        <ele>858</ele>
        <time>2019-05-10T19:27:14Z</time>
      </trkpt>
      <trkpt lat="44.80809" lon="5.93072">
        <ele>856</ele>
        <time>2019-05-10T19:28:14Z</time>
      </trkpt>
      <trkpt lat="44.80777" lon="5.93088">
        <ele>863</ele>
        <time>2019-05-10T19:29:14Z</time>
      </trkpt>
      <trkpt lat="44.80767" lon="5.93115">
        <ele>861</ele>
        <time>2019-05-10T19:30:14Z</time>
      </trkpt>
      <trkpt lat="44.8077" lon="5.93157">
        <ele>854</ele>
        <time>2019-05-10T19:31:14Z</time>
      </trkpt>
      <trkpt lat="44.80747" lon="5.9322">
        <ele>849</ele>
        <time>2019-05-10T19:32:14Z</time>
      </trkpt>
      <trkpt lat="44.80701" lon="5.93241">
        <ele>853</ele>
        <time>2019-05-10T19:33:14Z</time>
      </trkpt>
      <trkpt lat="44.80665" lon="5.93294">
        <ele>859</ele>
        <time>2019-05-10T19:34:14Z</time>
      </trkpt>
      <trkpt lat="44.80673" lon="5.93316">
        <ele>858</ele>
        <time>2019-05-10T19:35:14Z</time>
      </trkpt>
      <trkpt lat="44.80717" lon="5.93328">
        <ele>847</ele>
        <time>2019-05-10T19:36:14Z</time>
      </trkpt>
      <trkpt lat="44.80768" lon="5.93402">
        <ele>838</ele>
        <time>2019-05-10T19:37:14Z</time>
      </trkpt>
      <trkpt lat="44.80793" lon="5.93464">
        <ele>830</ele>
        <time>2019-05-10T19:38:14Z</time>
      </trkpt>
      <trkpt lat="44.80778" lon="5.935">
        <ele>834</ele>
        <time>2019-05-10T19:39:14Z</time>
      </trkpt>
      <trkpt lat="44.80791" lon="5.93566">
        <ele>826</ele>
        <time>2019-05-10T19:40:14Z</time>
      </trkpt>
      <trkpt lat="44.8075" lon="5.93728">
        <ele>824</ele>
        <time>2019-05-10T19:41:14Z</time>
      </trkpt>
      <trkpt lat="44.80767" lon="5.93806">
        <ele>808</ele>
        <time>2019-05-10T19:42:14Z</time>
      </trkpt>
      <trkpt lat="44.80771" lon="5.93849">
        <ele>800</ele>
        <time>2019-05-10T19:43:14Z</time>
      </trkpt>
      <trkpt lat="44.80761" lon="5.93883">
        <ele>799</ele>
        <time>2019-05-10T19:44:14Z</time>
      </trkpt>
      <trkpt lat="44.80734" lon="5.93894">
        <ele>806</ele>
        <time>2019-05-10T19:45:14Z</time>
      </trkpt>
      <trkpt lat="44.80715" lon="5.93883">
        <ele>812</ele>
        <time>2019-05-10T19:46:14Z</time>
      </trkpt>
      <trkpt lat="44.80694" lon="5.9388">
        <ele>818</ele>
        <time>2019-05-10T19:47:14Z</time>
      </trkpt>
      <trkpt lat="44.80677" lon="5.93893">
        <ele>820</ele>
        <time>2019-05-10T19:48:14Z</time>
      </trkpt>
      <trkpt lat="44.80679" lon="5.9394">
        <ele>813</ele>
        <time>2019-05-10T19:49:14Z</time>
      </trkpt>
      <trkpt lat="44.80704" lon="5.93962">
        <ele>801</ele>
        <time>2019-05-10T19:50:14Z</time>
      </trkpt>
      <trkpt lat="44.80706" lon="5.9399">
        <ele>795</ele>
        <time>2019-05-10T19:51:14Z</time>
      </trkpt>
      <trkpt lat="44.80694" lon="5.94027">
        <ele>791</ele>
        <time>2019-05-10T19:52:14Z</time>
      </trkpt>
      <trkpt lat="44.80637" lon="5.94054">
        <ele>800</ele>
        <time>2019-05-10T19:53:14Z</time>
      </trkpt>
      <trkpt lat="44.80623" lon="5.94077">
        <ele>796</ele>
        <time>2019-05-10T19:54:14Z</time>
      </trkpt>
      <trkpt lat="44.80518" lon="5.94136">
        <ele>807</ele>
        <time>2019-05-10T19:55:14Z</time>
      </trkpt>
      <trkpt lat="44.80439" lon="5.94283">
        <ele>815</ele>
        <time>2019-05-10T19:56:14Z</time>
      </trkpt>
      <trkpt lat="44.80421" lon="5.94288">
        <ele>823</ele>
        <time>2019-05-10T19:57:14Z</time>
      </trkpt>
      <trkpt lat="44.80422" lon="5.94357">
        <ele>817</ele>
        <time>2019-05-10T19:58:14Z</time>
      </trkpt>
      <trkpt lat="44.80417" lon="5.94389">
        <ele>821</ele>
        <time>2019-05-10T19:59:14Z</time>
      </trkpt>
      <trkpt lat="44.80426" lon="5.9449">
        <ele>817</ele>
        <time>2019-05-10T20:00:14Z</time>
      </trkpt>
      <trkpt lat="44.80413" lon="5.94533">
        <ele>818</ele>
        <time>2019-05-10T20:01:14Z</time>
      </trkpt>
      <trkpt lat="44.80377" lon="5.94581">
        <ele>824</ele>
        <time>2019-05-10T20:02:14Z</time>
      </trkpt>
      <trkpt lat="44.8032" lon="5.9462">
        <ele>833</ele>
        <time>2019-05-10T20:03:14Z</time>
      </trkpt>
      <trkpt lat="44.80277" lon="5.94635">
        <ele>838</ele>
        <time>2019-05-10T20:04:14Z</time>
      </trkpt>
      <trkpt lat="44.80237" lon="5.94633">
        <ele>845</ele>
        <time>2019-05-10T20:05:14Z</time>
      </trkpt>
      <trkpt lat="44.80203" lon="5.94619">
        <ele>850</ele>
        <time>2019-05-10T20:06:14Z</time>
      </trkpt>
      <trkpt lat="44.8016" lon="5.94619">
        <ele>850</ele>
        <time>2019-05-10T20:07:14Z</time>
      </trkpt>
      <trkpt lat="44.80132" lon="5.94616">
        <ele>846</ele>
        <time>2019-05-10T20:08:14Z</time>
      </trkpt>
      <trkpt lat="44.80075" lon="5.9457">
        <ele>854</ele>
        <time>2019-05-10T20:09:14Z</time>
      </trkpt>
      <trkpt lat="44.80044" lon="5.94549">
        <ele>862</ele>
        <time>2019-05-10T20:10:14Z</time>
      </trkpt>
      <trkpt lat="44.79984" lon="5.94533">
        <ele>867</ele>
        <time>2019-05-10T20:11:14Z</time>
      </trkpt>
      <trkpt lat="44.79939" lon="5.94531">
        <ele>871</ele>
        <time>2019-05-10T20:12:14Z</time>
      </trkpt>
      <trkpt lat="44.79898" lon="5.94555">
        <ele>869</ele>
        <time>2019-05-10T20:13:14Z</time>
      </trkpt>
      <trkpt lat="44.79864" lon="5.94597">
        <ele>874</ele>
        <time>2019-05-10T20:14:14Z</time>
      </trkpt>
      <trkpt lat="44.7987" lon="5.9462">
        <ele>875</ele>
        <time>2019-05-10T20:15:14Z</time>
      </trkpt>
      <trkpt lat="44.79945" lon="5.94718">
        <ele>851</ele>
        <time>2019-05-10T20:16:14Z</time>
      </trkpt>
      <trkpt lat="44.79947" lon="5.94755">
        <ele>852</ele>
        <time>2019-05-10T20:17:14Z</time>
      </trkpt>
      <trkpt lat="44.79896" lon="5.94862">
        <ele>865</ele>
        <time>2019-05-10T20:18:14Z</time>
      </trkpt>
      <trkpt lat="44.79827" lon="5.95038">
        <ele>852</ele>
        <time>2019-05-10T20:19:14Z</time>
      </trkpt>
      <trkpt lat="44.79768" lon="5.95204">
        <ele>852</ele>
        <time>2019-05-10T20:20:14Z</time>
      </trkpt>
      <trkpt lat="44.79742" lon="5.95367">
        <ele>850</ele>
        <time>2019-05-10T20:21:14Z</time>
      </trkpt>
      <trkpt lat="44.79824" lon="5.95728">
        <ele>814</ele>
        <time>2019-05-10T20:22:14Z</time>
      </trkpt>
      <trkpt lat="44.79791" lon="5.95858">
        <ele>801</ele>
        <time>2019-05-10T20:23:14Z</time>
      </trkpt>
      <trkpt lat="44.79753" lon="5.95861">
        <ele>806</ele>
        <time>2019-05-10T20:24:14Z</time>
      </trkpt>
      <trkpt lat="44.79676" lon="5.95818">
        <ele>823</ele>
        <time>2019-05-10T20:25:14Z</time>
      </trkpt>
      <trkpt lat="44.79583" lon="5.95832">
        <ele>828</ele>
        <time>2019-05-10T20:26:14Z</time>
      </trkpt>
      <trkpt lat="44.7953" lon="5.9593">
        <ele>807</ele>
        <time>2019-05-10T20:27:14Z</time>
      </trkpt>
      <trkpt lat="44.79468" lon="5.95973">
        <ele>816</ele>
        <time>2019-05-10T20:28:14Z</time>
      </trkpt>
      <trkpt lat="44.79496" lon="5.96071">
        <ele>796</ele>
        <time>2019-05-10T20:29:14Z</time>
      </trkpt>
      <trkpt lat="44.79476" lon="5.96226">
        <ele>802</ele>
        <time>2019-05-10T20:30:14Z</time>
      </trkpt>
      <trkpt lat="44.79473" lon="5.96413">
        <ele>797</ele>
        <time>2019-05-10T20:31:14Z</time>
      </trkpt>
      <trkpt lat="44.79453" lon="5.96511">
        <ele>798</ele>
        <time>2019-05-10T20:32:14Z</time>
      </trkpt>
      <trkpt lat="44.79422" lon="5.96634">
        <ele>800</ele>
        <time>2019-05-10T20:33:14Z</time>
      </trkpt>
      <trkpt lat="44.79433" lon="5.96667">
        <ele>794</ele>
        <time>2019-05-10T20:34:14Z</time>
      </trkpt>
      <trkpt lat="44.79426" lon="5.96711">
        <ele>796</ele>
        <time>2019-05-10T20:35:14Z</time>
      </trkpt>
      <trkpt lat="44.79431" lon="5.9676">
        <ele>793</ele>
        <time>2019-05-10T20:36:14Z</time>
      </trkpt>
      <trkpt lat="44.79424" lon="5.96797">
        <ele>796</ele>
        <time>2019-05-10T20:37:14Z</time>
      </trkpt>
      <trkpt lat="44.79442" lon="5.96825">
        <ele>791</ele>
        <time>2019-05-10T20:38:14Z</time>
      </trkpt>
      <trkpt lat="44.7947" lon="5.96836">
        <ele>783</ele>
        <time>2019-05-10T20:39:14Z</time>
      </trkpt>
      <trkpt lat="44.79514" lon="5.96823">
        <ele>778</ele>
        <time>2019-05-10T20:40:14Z</time>
      </trkpt>
      <trkpt lat="44.79535" lon="5.96841">
        <ele>786</ele>
        <time>2019-05-10T20:41:14Z</time>
      </trkpt>
      <trkpt lat="44.79573" lon="5.96904">
        <ele>799</ele>
        <time>2019-05-10T20:42:14Z</time>
      </trkpt>
      <trkpt lat="44.79564" lon="5.96926">
        <ele>799</ele>
        <time>2019-05-10T20:43:14Z</time>
      </trkpt>
      <trkpt lat="44.79541" lon="5.96929">
        <ele>794</ele>
        <time>2019-05-10T20:44:14Z</time>
      </trkpt>
      <trkpt lat="44.79512" lon="5.9692">
        <ele>783</ele>
        <time>2019-05-10T20:45:14Z</time>
      </trkpt>
      <trkpt lat="44.795" lon="5.96937">
        <ele>785</ele>
        <time>2019-05-10T20:46:14Z</time>
      </trkpt>
      <trkpt lat="44.79482" lon="5.97035">
        <ele>808</ele>
        <time>2019-05-10T20:47:14Z</time>
      </trkpt>
      <trkpt lat="44.79461" lon="5.97054">
        <ele>805</ele>
        <time>2019-05-10T20:48:14Z</time>
      </trkpt>
      <trkpt lat="44.79426" lon="5.97071">
        <ele>796</ele>
        <time>2019-05-10T20:49:14Z</time>
      </trkpt>
      <trkpt lat="44.79409" lon="5.97097">
        <ele>796</ele>
        <time>2019-05-10T20:50:14Z</time>
      </trkpt>
      <trkpt lat="44.79404" lon="5.97136">
        <ele>797</ele>
        <time>2019-05-10T20:51:14Z</time>
      </trkpt>
      <trkpt lat="44.79422" lon="5.97167">
        <ele>798</ele>
        <time>2019-05-10T20:52:14Z</time>
      </trkpt>
      <trkpt lat="44.79482" lon="5.972">
        <ele>807</ele>
        <time>2019-05-10T20:53:14Z</time>
      </trkpt>
      <trkpt lat="44.79519" lon="5.97266">
        <ele>808</ele>
        <time>2019-05-10T20:54:14Z</time>
      </trkpt>
      <trkpt lat="44.79527" lon="5.97314">
        <ele>809</ele>
        <time>2019-05-10T20:55:14Z</time>
      </trkpt>
      <trkpt lat="44.79521" lon="5.97383">
        <ele>810</ele>
        <time>2019-05-10T20:56:14Z</time>
      </trkpt>
      <trkpt lat="44.79503" lon="5.97455">
        <ele>808</ele>
        <time>2019-05-10T20:57:14Z</time>
      </trkpt>
      <trkpt lat="44.79493" lon="5.97511">
        <ele>805</ele>
        <time>2019-05-10T20:58:14Z</time>
      </trkpt>
      <trkpt lat="44.79478" lon="5.97552">
        <ele>803</ele>
        <time>2019-05-10T20:59:14Z</time>
      </trkpt>
      <trkpt lat="44.79453" lon="5.97584">
        <ele>800</ele>
        <time>2019-05-10T21:00:14Z</time>
      </trkpt>
      <trkpt lat="44.7943" lon="5.97601">
        <ele>798</ele>
        <time>2019-05-10T21:01:14Z</time>
      </trkpt>
      <trkpt lat="44.79337" lon="5.97732">
        <ele>791</ele>
        <time>2019-05-10T21:02:14Z</time>
      </trkpt>
      <trkpt lat="44.7931" lon="5.97782">
        <ele>791</ele>
        <time>2019-05-10T21:03:14Z</time>
      </trkpt>
      <trkpt lat="44.79256" lon="5.97893">
        <ele>788</ele>
        <time>2019-05-10T21:04:14Z</time>
      </trkpt>
      <trkpt lat="44.79245" lon="5.97954">
        <ele>790</ele>
        <time>2019-05-10T21:05:14Z</time>
      </trkpt>
      <trkpt lat="44.79438" lon="5.97755">
        <ele>826</ele>
        <time>2019-05-10T21:06:14Z</time>
      </trkpt>
      <trkpt lat="44.79694" lon="5.97772">
        <ele>852</ele>
        <time>2019-05-10T21:07:14Z</time>
      </trkpt>
      <trkpt lat="44.79792" lon="5.97497">
        <ele>872</ele>
        <time>2019-05-10T21:08:14Z</time>
      </trkpt>
      <trkpt lat="44.80023" lon="5.97412">
        <ele>908</ele>
        <time>2019-05-10T21:09:14Z</time>
      </trkpt>
      <trkpt lat="44.79962" lon="5.97068">
        <ele>907</ele>
        <time>2019-05-10T21:10:14Z</time>
      </trkpt>
      <trkpt lat="44.80127" lon="5.96596">
        <ele>921</ele>
        <time>2019-05-10T21:11:14Z</time>
      </trkpt>
      <trkpt lat="44.80285" lon="5.96159">
        <ele>954</ele>
        <time>2019-05-10T21:12:14Z</time>
      </trkpt>
      <trkpt lat="44.80346" lon="5.95738">
        <ele>934</ele>
        <time>2019-05-10T21:13:14Z</time>
      </trkpt>
      <trkpt lat="44.80553" lon="5.95498">
        <ele>925</ele>
        <time>2019-05-10T21:14:14Z</time>
      </trkpt>
      <trkpt lat="44.80675" lon="5.95317">
        <ele>909</ele>
        <time>2019-05-10T21:15:14Z</time>
      </trkpt>
      <trkpt lat="44.80821" lon="5.95086">
        <ele>923</ele>
        <time>2019-05-10T21:16:14Z</time>
      </trkpt>
      <trkpt lat="44.81121" lon="5.9496">
        <ele>936</ele>
        <time>2019-05-10T21:17:14Z</time>
      </trkpt>
      <trkpt lat="44.8137" lon="5.94729">
        <ele>911</ele>
        <time>2019-05-10T21:18:14Z</time>
      </trkpt>
      <trkpt lat="44.81723" lon="5.94814">
        <ele>943</ele>
        <time>2019-05-10T21:19:14Z</time>
      </trkpt>
      <trkpt lat="44.8205" lon="5.9468">
        <ele>920</ele>
        <time>2019-05-10T21:20:14Z</time>
      </trkpt>
      <trkpt lat="44.82292" lon="5.95227">
        <ele>897</ele>
        <time>2019-05-10T21:21:14Z</time>
      </trkpt>
      <trkpt lat="44.82298" lon="5.94876">
        <ele>889</ele>
        <time>2019-05-10T21:22:14Z</time>
      </trkpt>
      <trkpt lat="44.82345" lon="5.94737">
        <ele>894</ele>
        <time>2019-05-10T21:23:14Z</time>
      </trkpt>
      <trkpt lat="44.82444" lon="5.9453">
        <ele>899</ele>
        <time>2019-05-10T21:24:14Z</time>
      </trkpt>
      <trkpt lat="44.82487" lon="5.9447">
        <ele>906</ele>
        <time>2019-05-10T21:25:14Z</time>
      </trkpt>
      <trkpt lat="44.8249" lon="5.94403">
        <ele>906</ele>
        <time>2019-05-10T21:26:14Z</time>
      </trkpt>
      <trkpt lat="44.82483" lon="5.94318">
        <ele>904</ele>
        <time>2019-05-10T21:27:14Z</time>
      </trkpt>
      <trkpt lat="44.82533" lon="5.94239">
        <ele>910</ele>
        <time>2019-05-10T21:28:14Z</time>
      </trkpt>
      <trkpt lat="44.82627" lon="5.94178">
        <ele>927</ele>
        <time>2019-05-10T21:29:14Z</time>
      </trkpt>
      <trkpt lat="44.82692" lon="5.94108">
        <ele>936</ele>
        <time>2019-05-10T21:30:14Z</time>
      </trkpt>
      <trkpt lat="44.82761" lon="5.93929">
        <ele>940</ele>
        <time>2019-05-10T21:31:14Z</time>
      </trkpt>
      <trkpt lat="44.82772" lon="5.93738">
        <ele>949</ele>
        <time>2019-05-10T21:32:14Z</time>
      </trkpt>
      <trkpt lat="44.82772" lon="5.9352">
        <ele>947</ele>
        <time>2019-05-10T21:33:14Z</time>
      </trkpt>
      <trkpt lat="44.82901" lon="5.93489">
        <ele>958</ele>
        <time>2019-05-10T21:34:14Z</time>
      </trkpt>
      <trkpt lat="44.82932" lon="5.93538">
        <ele>963</ele>
        <time>2019-05-10T21:35:14Z</time>
      </trkpt>
      <trkpt lat="44.82924" lon="5.93628">
        <ele>973</ele>
        <time>2019-05-10T21:36:14Z</time>
      </trkpt>
      <trkpt lat="44.82945" lon="5.93765">
        <ele>982</ele>
        <time>2019-05-10T21:37:14Z</time>
      </trkpt>
      <trkpt lat="44.83014" lon="5.93926">
        <ele>998</ele>
        <time>2019-05-10T21:38:14Z</time>
      </trkpt>
      <trkpt lat="44.83097" lon="5.94011">
        <ele>1002</ele>
        <time>2019-05-10T21:39:14Z</time>
      </trkpt>
      <trkpt lat="44.83151" lon="5.94078">
        <ele>1012</ele>
        <time>2019-05-10T21:40:14Z</time>
      </trkpt>
      <trkpt lat="44.83322" lon="5.94033">
        <ele>1000</ele>
        <time>2019-05-10T21:41:14Z</time>
      </trkpt>
      <trkpt lat="44.83365" lon="5.93973">
        <ele>1003</ele>
        <time>2019-05-10T21:42:14Z</time>
      </trkpt>
      <trkpt lat="44.83406" lon="5.93959">
        <ele>1013</ele>
        <time>2019-05-10T21:43:14Z</time>
      </trkpt>
      <trkpt lat="44.83398" lon="5.93921">
        <ele>1016</ele>
        <time>2019-05-10T21:44:14Z</time>
      </trkpt>
      <trkpt lat="44.83306" lon="5.93854">
        <ele>1008</ele>
        <time>2019-05-10T21:45:14Z</time>
      </trkpt>
      <trkpt lat="44.83265" lon="5.93834">
        <ele>1003</ele>
        <time>2019-05-10T21:46:14Z</time>
      </trkpt>
      <trkpt lat="44.83249" lon="5.93805">
        <ele>1003</ele>
        <time>2019-05-10T21:47:14Z</time>
      </trkpt>
      <trkpt lat="44.83239" lon="5.93708">
        <ele>1005</ele>
        <time>2019-05-10T21:48:14Z</time>
      </trkpt>
      <trkpt lat="44.83266" lon="5.93627">
        <ele>1005</ele>
        <time>2019-05-10T21:49:14Z</time>
      </trkpt>
      <trkpt lat="44.83353" lon="5.93488">
        <ele>1015</ele>
        <time>2019-05-10T21:50:14Z</time>
      </trkpt>
      <trkpt lat="44.83358" lon="5.93448">
        <ele>1015</ele>
        <time>2019-05-10T21:51:14Z</time>
      </trkpt>
      <trkpt lat="44.83322" lon="5.93363">
        <ele>1007</ele>
        <time>2019-05-10T21:52:14Z</time>
      </trkpt>
      <trkpt lat="44.8332" lon="5.93304">
        <ele>1010</ele>
        <time>2019-05-10T21:53:14Z</time>
      </trkpt>
      <trkpt lat="44.83326" lon="5.93233">
        <ele>1017</ele>
        <time>2019-05-10T21:54:14Z</time>
      </trkpt>
      <trkpt lat="44.83317" lon="5.93161">
        <ele>1021</ele>
        <time>2019-05-10T21:55:14Z</time>
      </trkpt>
      <trkpt lat="44.83278" lon="5.93103">
        <ele>1016</ele>
        <time>2019-05-10T21:56:14Z</time>
      </trkpt>
      <trkpt lat="44.83244" lon="5.93017">
        <ele>1019</ele>
        <time>2019-05-10T21:57:14Z</time>
      </trkpt>
      <trkpt lat="44.83228" lon="5.9295">
        <ele>1019</ele>
        <time>2019-05-10T21:58:14Z</time>
      </trkpt>
      <trkpt lat="44.83235" lon="5.92881">
        <ele>1022</ele>
        <time>2019-05-10T21:59:14Z</time>
      </trkpt>
      <trkpt lat="44.83266" lon="5.92802">
        <ele>1029</ele>
        <time>2019-05-10T22:00:14Z</time>
      </trkpt>
      <trkpt lat="44.83324" lon="5.92697">
        <ele>1036</ele>
        <time>2019-05-10T22:01:14Z</time>
      </trkpt>
      <trkpt lat="44.8337" lon="5.92631">
        <ele>1038</ele>
        <time>2019-05-10T22:02:14Z</time>
      </trkpt>
      <trkpt lat="44.83421" lon="5.92584">
        <ele>1042</ele>
        <time>2019-05-10T22:03:14Z</time>
      </trkpt>
      <trkpt lat="44.83468" lon="5.92571">
        <ele>1045</ele>
        <time>2019-05-10T22:04:14Z</time>
      </trkpt>
      <trkpt lat="44.83521" lon="5.92603">
        <ele>1061</ele>
        <time>2019-05-10T22:05:14Z</time>
      </trkpt>
      <trkpt lat="44.83553" lon="5.92575">
        <ele>1063</ele>
        <time>2019-05-10T22:06:14Z</time>
      </trkpt>
      <trkpt lat="44.83569" lon="5.92515">
        <ele>1055</ele>
        <time>2019-05-10T22:07:14Z</time>
      </trkpt>
      <trkpt lat="44.83748" lon="5.92452">
        <ele>1068</ele>
        <time>2019-05-10T22:08:14Z</time>
      </trkpt>
      <trkpt lat="44.8382" lon="5.92468">
        <ele>1078</ele>
        <time>2019-05-10T22:09:14Z</time>
      </trkpt>
      <trkpt lat="44.8397" lon="5.92405">
        <ele>1086</ele>
        <time>2019-05-10T22:10:14Z</time>
      </trkpt>
      <trkpt lat="44.84089" lon="5.92365">
        <ele>1096</ele>
        <time>2019-05-10T22:11:14Z</time>
      </trkpt>
      <trkpt lat="44.84144" lon="5.92336">
        <ele>1096</ele>
        <time>2019-05-10T22:12:14Z</time>
      </trkpt>
      <trkpt lat="44.84164" lon="5.92284">
        <ele>1086</ele>
        <time>2019-05-10T22:13:14Z</time>
      </trkpt>
      <trkpt lat="44.84277" lon="5.92214">
        <ele>1096</ele>
        <time>2019-05-10T22:14:14Z</time>
      </trkpt>
      <trkpt lat="44.84336" lon="5.92243">
        <ele>1109</ele>
        <time>2019-05-10T22:15:14Z</time>
      </trkpt>
      <trkpt lat="44.84331" lon="5.92188">
        <ele>1110</ele>
        <time>2019-05-10T22:16:14Z</time>
      </trkpt>
      <trkpt lat="44.84295" lon="5.92109">
        <ele>1115</ele>
        <time>2019-05-10T22:17:14Z</time>
      </trkpt>
      <trkpt lat="44.84191" lon="5.92035">
        <ele>1104</ele>
        <time>2019-05-10T22:18:14Z</time>
      </trkpt>
      <trkpt lat="44.84168" lon="5.92006">
        <ele>1105</ele>
        <time>2019-05-10T22:19:14Z</time>
      </trkpt>
      <trkpt lat="44.84158" lon="5.91958">
        <ele>1105</ele>
        <time>2019-05-10T22:20:14Z</time>
      </trkpt>
      <trkpt lat="44.84175" lon="5.91881">
        <ele>1114</ele>
        <time>2019-05-10T22:21:14Z</time>
      </trkpt>
      <trkpt lat="44.84194" lon="5.91769">
        <ele>1122</ele>
        <time>2019-05-10T22:22:14Z</time>
      </trkpt>
      <trkpt lat="44.84179" lon="5.91693">
        <ele>1114</ele>
        <time>2019-05-10T22:23:14Z</time>
      </trkpt>
      <trkpt lat="44.84192" lon="5.91629">
        <ele>1101</ele>
        <time>2019-05-10T22:24:14Z</time>
      </trkpt>
      <trkpt lat="44.84302" lon="5.91666">
        <ele>1128</ele>
        <time>2019-05-10T22:25:14Z</time>
      </trkpt>
      <trkpt lat="44.84435" lon="5.91611">
        <ele>1127</ele>
        <time>2019-05-10T22:26:14Z</time>
      </trkpt>
      <trkpt lat="44.84577" lon="5.91508">
        <ele>1131</ele>
        <time>2019-05-10T22:27:14Z</time>
      </trkpt>
      <trkpt lat="44.84654" lon="5.91377">
        <ele>1126</ele>
        <time>2019-05-10T22:28:14Z</time>
      </trkpt>
      <trkpt lat="44.84743" lon="5.91301">
        <ele>1129</ele>
        <time>2019-05-10T22:29:14Z</time>
      </trkpt>
      <trkpt lat="44.84906" lon="5.91295">
        <ele>1136</ele>
        <time>2019-05-10T22:30:14Z</time>
      </trkpt>
      <trkpt lat="44.84988" lon="5.91119">
        <ele>1138</ele>
        <time>2019-05-10T22:31:14Z</time>
      </trkpt>
      <trkpt lat="44.85095" lon="5.91013">
        <ele>1151</ele>
        <time>2019-05-10T22:32:14Z</time>
      </trkpt>
      <trkpt lat="44.85132" lon="5.90886">
        <ele>1166</ele>
        <time>2019-05-10T22:33:14Z</time>
      </trkpt>
      <trkpt lat="44.85227" lon="5.90779">
        <ele>1180</ele>
        <time>2019-05-10T22:34:14Z</time>
      </trkpt>
      <trkpt lat="44.85321" lon="5.90685">
        <ele>1193</ele>
        <time>2019-05-10T22:35:14Z</time>
      </trkpt>
      <trkpt lat="44.85425" lon="5.90634">
        <ele>1201</ele>
        <time>2019-05-10T22:36:14Z</time>
      </trkpt>
      <trkpt lat="44.85534" lon="5.90461">
        <ele>1212</ele>
        <time>2019-05-10T22:37:14Z</time>
      </trkpt>
      <trkpt lat="44.85689" lon="5.90452">
        <ele>1203</ele>
        <time>2019-05-10T22:38:14Z</time>
      </trkpt>
      <trkpt lat="44.85861" lon="5.90403">
        <ele>1197</ele>
        <time>2019-05-10T22:39:14Z</time>
      </trkpt>
      <trkpt lat="44.8598" lon="5.90361">
        <ele>1194</ele>
        <time>2019-05-10T22:40:14Z</time>
      </trkpt>
      <trkpt lat="44.86057" lon="5.90312">
        <ele>1187</ele>
        <time>2019-05-10T22:41:14Z</time>
      </trkpt>
      <trkpt lat="44.86106" lon="5.90427">
        <ele>1199</ele>
        <time>2019-05-10T22:42:14Z</time>
      </trkpt>
      <trkpt lat="44.86106" lon="5.90519">
        <ele>1213</ele>
        <time>2019-05-10T22:43:14Z</time>
      </trkpt>
      <trkpt lat="44.86195" lon="5.90649">
        <ele>1208</ele>
        <time>2019-05-10T22:44:14Z</time>
      </trkpt>
      <trkpt lat="44.86244" lon="5.90849">
        <ele>1221</ele>
        <time>2019-05-10T22:45:14Z</time>
      </trkpt>
      <trkpt lat="44.86276" lon="5.90959">
        <ele>1227</ele>
        <time>2019-05-10T22:46:14Z</time>
      </trkpt>
      <trkpt lat="44.86334" lon="5.9104">
        <ele>1216</ele>
        <time>2019-05-10T22:47:14Z</time>
      </trkpt>
      <trkpt lat="44.86408" lon="5.91268">
        <ele>1219</ele>
        <time>2019-05-10T22:48:14Z</time>
      </trkpt>
      <trkpt lat="44.86457" lon="5.91396">
        <ele>1224</ele>
        <time>2019-05-10T22:49:14Z</time>
      </trkpt>
      <trkpt lat="44.86552" lon="5.91538">
        <ele>1220</ele>
        <time>2019-05-10T22:50:14Z</time>
      </trkpt>
      <trkpt lat="44.86636" lon="5.91608">
        <ele>1221</ele>
        <time>2019-05-10T22:51:14Z</time>
      </trkpt>
      <trkpt lat="44.86763" lon="5.91611">
        <ele>1226</ele>
        <time>2019-05-10T22:52:14Z</time>
      </trkpt>
      <trkpt lat="44.86739" lon="5.91568">
        <ele>1224</ele>
        <time>2019-05-10T22:53:14Z</time>
      </trkpt>
      <trkpt lat="44.86666" lon="5.91499">
        <ele>1215</ele>
        <time>2019-05-10T22:54:14Z</time>
      </trkpt>
      <trkpt lat="44.86625" lon="5.91429">
        <ele>1214</ele>
        <time>2019-05-10T22:55:14Z</time>
      </trkpt>
      <trkpt lat="44.86608" lon="5.91338">
        <ele>1215</ele>
        <time>2019-05-10T22:56:14Z</time>
      </trkpt>
      <trkpt lat="44.86582" lon="5.91256">
        <ele>1209</ele>
        <time>2019-05-10T22:57:14Z</time>
      </trkpt>
      <trkpt lat="44.86597" lon="5.91162">
        <ele>1213</ele>
        <time>2019-05-10T22:58:14Z</time>
      </trkpt>
      <trkpt lat="44.8661" lon="5.91016">
        <ele>1212</ele>
        <time>2019-05-10T22:59:14Z</time>
      </trkpt>
      <trkpt lat="44.86612" lon="5.90898">
        <ele>1208</ele>
        <time>2019-05-10T23:00:14Z</time>
      </trkpt>
      <trkpt lat="44.86642" lon="5.90831">
        <ele>1209</ele>
        <time>2019-05-10T23:01:14Z</time>
      </trkpt>
      <trkpt lat="44.86726" lon="5.90886">
        <ele>1223</ele>
        <time>2019-05-10T23:02:14Z</time>
      </trkpt>
      <trkpt lat="44.8684" lon="5.90934">
        <ele>1234</ele>
        <time>2019-05-10T23:03:14Z</time>
      </trkpt>
      <trkpt lat="44.86926" lon="5.91047">
        <ele>1247</ele>
        <time>2019-05-10T23:04:14Z</time>
      </trkpt>
      <trkpt lat="44.87014" lon="5.9108">
        <ele>1253</ele>
        <time>2019-05-10T23:05:14Z</time>
      </trkpt>
      <trkpt lat="44.87038" lon="5.91147">
        <ele>1259</ele>
        <time>2019-05-10T23:06:14Z</time>
      </trkpt>
      <trkpt lat="44.86978" lon="5.91235">
        <ele>1274</ele>
        <time>2019-05-10T23:07:14Z</time>
      </trkpt>
      <trkpt lat="44.8693" lon="5.9121">
        <ele>1275</ele>
        <time>2019-05-10T23:08:14Z</time>
      </trkpt>
      <trkpt lat="44.86853" lon="5.91198">
        <ele>1279</ele>
        <time>2019-05-10T23:09:14Z</time>
      </trkpt>
      <trkpt lat="44.8679" lon="5.91238">
        <ele>1281</ele>
        <time>2019-05-10T23:10:14Z</time>
      </trkpt>
      <trkpt lat="44.86808" lon="5.91359">
        <ele>1289</ele>
        <time>2019-05-10T23:11:14Z</time>
      </trkpt>
      <trkpt lat="44.8698" lon="5.91508">
        <ele>1303</ele>
        <time>2019-05-10T23:12:14Z</time>
      </trkpt>
      <trkpt lat="44.87137" lon="5.91629">
        <ele>1318</ele>
        <time>2019-05-10T23:13:14Z</time>
      </trkpt>
      <trkpt lat="44.87249" lon="5.91623">
        <ele>1339</ele>
        <time>2019-05-10T23:14:14Z</time>
      </trkpt>
      <trkpt lat="44.87356" lon="5.91638">
        <ele>1352</ele>
        <time>2019-05-10T23:15:14Z</time>
      </trkpt>
      <trkpt lat="44.87398" lon="5.91665">
        <ele>1362</ele>
        <time>2019-05-10T23:16:14Z</time>
      </trkpt>
      <trkpt lat="44.8744" lon="5.91656">
        <ele>1365</ele>
        <time>2019-05-10T23:17:14Z</time>
      </trkpt>
      <trkpt lat="44.87423" lon="5.91688">
        <ele>1368</ele>
        <time>2019-05-10T23:18:14Z</time>
      </trkpt>
      <trkpt lat="44.87337" lon="5.91747">
        <ele>1370</ele>
        <time>2019-05-10T23:19:14Z</time>
      </trkpt>
      <trkpt lat="44.87325" lon="5.91782">
        <ele>1368</ele>
        <time>2019-05-10T23:20:14Z</time>
      </trkpt>
      <trkpt lat="44.87359" lon="5.91883">
        <ele>1377</ele>
        <time>2019-05-10T23:21:14Z</time>
      </trkpt>
      <trkpt lat="44.87357" lon="5.91961">
        <ele>1372</ele>
        <time>2019-05-10T23:22:14Z</time>
      </trkpt>
      <trkpt lat="44.87413" lon="5.92036">
        <ele>1383</ele>
        <time>2019-05-10T23:23:14Z</time>
      </trkpt>
      <trkpt lat="44.87476" lon="5.92107">
        <ele>1383</ele>
        <time>2019-05-10T23:24:14Z</time>
      </trkpt>
      <trkpt lat="44.87524" lon="5.92192">
        <ele>1382</ele>
        <time>2019-05-10T23:25:14Z</time>
      </trkpt>
      <trkpt lat="44.87547" lon="5.92257">
        <ele>1380</ele>
        <time>2019-05-10T23:26:14Z</time>
      </trkpt>
      <trkpt lat="44.87575" lon="5.9229">
        <ele>1383</ele>
        <time>2019-05-10T23:27:14Z</time>
      </trkpt>
      <trkpt lat="44.87638" lon="5.92322">
        <ele>1375</ele>
        <time>2019-05-10T23:28:14Z</time>
      </trkpt>
      <trkpt lat="44.87651" lon="5.92386">
        <ele>1375</ele>
        <time>2019-05-10T23:29:14Z</time>
      </trkpt>
      <trkpt lat="44.87634" lon="5.92507">
        <ele>1392</ele>
        <time>2019-05-10T23:30:14Z</time>
      </trkpt>
      <trkpt lat="44.87609" lon="5.92502">
        <ele>1396</ele>
        <time>2019-05-10T23:31:14Z</time>
      </trkpt>
      <trkpt lat="44.87583" lon="5.92514">
        <ele>1405</ele>
        <time>2019-05-10T23:32:14Z</time>
      </trkpt>
      <trkpt lat="44.87601" lon="5.92539">
        <ele>1407</ele>
        <time>2019-05-10T23:33:14Z</time>
      </trkpt>
      <trkpt lat="44.87622" lon="5.92646">
        <ele>1425</ele>
        <time>2019-05-10T23:34:14Z</time>
      </trkpt>
      <trkpt lat="44.87613" lon="5.92715">
        <ele>1445</ele>
        <time>2019-05-10T23:35:14Z</time>
      </trkpt>
      <trkpt lat="44.87603" lon="5.92769">
        <ele>1458</ele>
        <time>2019-05-10T23:36:14Z</time>
      </trkpt>
      <trkpt lat="44.87616" lon="5.92779">
        <ele>1458</ele>
        <time>2019-05-10T23:37:14Z</time>
      </trkpt>
      <trkpt lat="44.87637" lon="5.92765">
        <ele>1452</ele>
        <time>2019-05-10T23:38:14Z</time>
      </trkpt>
      <trkpt lat="44.87665" lon="5.92732">
        <ele>1436</ele>
        <time>2019-05-10T23:39:14Z</time>
      </trkpt>
      <trkpt lat="44.8769" lon="5.92697">
        <ele>1420</ele>
        <time>2019-05-10T23:40:14Z</time>
      </trkpt>
      <trkpt lat="44.87709" lon="5.9269">
        <ele>1414</ele>
        <time>2019-05-10T23:41:14Z</time>
      </trkpt>
      <trkpt lat="44.87762" lon="5.92712">
        <ele>1409</ele>
        <time>2019-05-10T23:42:14Z</time>
      </trkpt>
      <trkpt lat="44.87776" lon="5.92751">
        <ele>1413</ele>
        <time>2019-05-10T23:43:14Z</time>
      </trkpt>
      <trkpt lat="44.87784" lon="5.92802">
        <ele>1411</ele>
        <time>2019-05-10T23:44:14Z</time>
      </trkpt>
      <trkpt lat="44.87785" lon="5.92842">
        <ele>1413</ele>
        <time>2019-05-10T23:45:14Z</time>
      </trkpt>
      <trkpt lat="44.87797" lon="5.92885">
        <ele>1404</ele>
        <time>2019-05-10T23:46:14Z</time>
      </trkpt>
      <trkpt lat="44.87797" lon="5.93002">
        <ele>1406</ele>
        <time>2019-05-10T23:47:14Z</time>
      </trkpt>
      <trkpt lat="44.87831" lon="5.93059">
        <ele>1385</ele>
        <time>2019-05-10T23:48:14Z</time>
      </trkpt>
      <trkpt lat="44.87843" lon="5.93103">
        <ele>1378</ele>
        <time>2019-05-10T23:49:14Z</time>
      </trkpt>
      <trkpt lat="44.87833" lon="5.93137">
        <ele>1387</ele>
        <time>2019-05-10T23:50:14Z</time>
      </trkpt>
      <trkpt lat="44.87868" lon="5.93234">
        <ele>1385</ele>
        <time>2019-05-10T23:51:14Z</time>
      </trkpt>
      <trkpt lat="44.87908" lon="5.93243">
        <ele>1367</ele>
        <time>2019-05-10T23:52:14Z</time>
      </trkpt>
      <trkpt lat="44.87953" lon="5.93291">
        <ele>1357</ele>
        <time>2019-05-10T23:53:14Z</time>
      </trkpt>
      <trkpt lat="44.87955" lon="5.93334">
        <ele>1368</ele>
        <time>2019-05-10T23:54:14Z</time>
      </trkpt>
      <trkpt lat="44.87993" lon="5.93366">
        <ele>1362</ele>
        <time>2019-05-10T23:55:14Z</time>
      </trkpt>
      <trkpt lat="44.88069" lon="5.93341">
        <ele>1345</ele>
        <time>2019-05-10T23:56:14Z</time>
      </trkpt>
      <trkpt lat="44.88176" lon="5.93219">
        <ele>1302</ele>
        <time>2019-05-10T23:57:14Z</time>
      </trkpt>
      <trkpt lat="44.88199" lon="5.93226">
        <ele>1297</ele>
        <time>2019-05-10T23:58:14Z</time>
      </trkpt>
      <trkpt lat="44.8821" lon="5.93273">
        <ele>1305</ele>
        <time>2019-05-10T23:59:14Z</time>
      </trkpt>
      <trkpt lat="44.8821" lon="5.93318">
        <ele>1312</ele>
        <time>2019-05-11T00:00:14Z</time>
      </trkpt>
      <trkpt lat="44.88224" lon="5.93437">
        <ele>1313</ele>
        <time>2019-05-11T00:01:14Z</time>
      </trkpt>
      <trkpt lat="44.88265" lon="5.93578">
        <ele>1305</ele>
        <time>2019-05-11T00:02:14Z</time>
      </trkpt>
      <trkpt lat="44.88325" lon="5.93592">
        <ele>1277</ele>
        <time>2019-05-11T00:03:14Z</time>
      </trkpt>
      <trkpt lat="44.88357" lon="5.93636">
        <ele>1288</ele>
        <time>2019-05-11T00:04:14Z</time>
      </trkpt>
      <trkpt lat="44.88434" lon="5.93633">
        <ele>1261</ele>
        <time>2019-05-11T00:05:14Z</time>
      </trkpt>
      <trkpt lat="44.8865" lon="5.93854">
        <ele>1224</ele>
        <time>2019-05-11T00:06:14Z</time>
      </trkpt>
      <trkpt lat="44.88641" lon="5.93905">
        <ele>1233</ele>
        <time>2019-05-11T00:07:14Z</time>
      </trkpt>
      <trkpt lat="44.8865" lon="5.93997">
        <ele>1234</ele>
        <time>2019-05-11T00:08:14Z</time>
      </trkpt>
      <trkpt lat="44.88694" lon="5.94055">
        <ele>1222</ele>
        <time>2019-05-11T00:09:14Z</time>
      </trkpt>
      <trkpt lat="44.8877" lon="5.94117">
        <ele>1205</ele>
        <time>2019-05-11T00:10:14Z</time>
      </trkpt>
      <trkpt lat="44.88819" lon="5.94209">
        <ele>1215</ele>
        <time>2019-05-11T00:11:14Z</time>
      </trkpt>
      <trkpt lat="44.89016" lon="5.94216">
        <ele>1183</ele>
        <time>2019-05-11T00:12:14Z</time>
      </trkpt>
      <trkpt lat="44.89028" lon="5.94181">
        <ele>1173</ele>
        <time>2019-05-11T00:13:14Z</time>
      </trkpt>
      <trkpt lat="44.88972" lon="5.94186">
        <ele>1172</ele>
        <time>2019-05-11T00:14:14Z</time>
      </trkpt>
      <trkpt lat="44.889" lon="5.94168">
        <ele>1172</ele>
        <time>2019-05-11T00:15:14Z</time>
      </trkpt>
      <trkpt lat="44.88873" lon="5.94124">
        <ele>1170</ele>
        <time>2019-05-11T00:16:14Z</time>
      </trkpt>
      <trkpt lat="44.88903" lon="5.94048">
        <ele>1149</ele>
        <time>2019-05-11T00:17:14Z</time>
      </trkpt>
      <trkpt lat="44.88869" lon="5.93976">
        <ele>1147</ele>
        <time>2019-05-11T00:18:14Z</time>
      </trkpt>
      <trkpt lat="44.88853" lon="5.93892">
        <ele>1134</ele>
        <time>2019-05-11T00:19:14Z</time>
      </trkpt>
      <trkpt lat="44.88867" lon="5.93795">
        <ele>1124</ele>
        <time>2019-05-11T00:20:14Z</time>
      </trkpt>
      <trkpt lat="44.88885" lon="5.93731">
        <ele>1120</ele>
        <time>2019-05-11T00:21:14Z</time>
      </trkpt>
      <trkpt lat="44.88974" lon="5.93647">
        <ele>1103</ele>
        <time>2019-05-11T00:22:14Z</time>
      </trkpt>
      <trkpt lat="44.88961" lon="5.93589">
        <ele>1106</ele>
        <time>2019-05-11T00:23:14Z</time>
      </trkpt>
      <trkpt lat="44.88972" lon="5.93499">
        <ele>1093</ele>
        <time>2019-05-11T00:24:14Z</time>
      </trkpt>
      <trkpt lat="44.88938" lon="5.93463">
        <ele>1099</ele>
        <time>2019-05-11T00:25:14Z</time>
      </trkpt>
      <trkpt lat="44.88963" lon="5.93372">
        <ele>1083</ele>
        <time>2019-05-11T00:26:14Z</time>
      </trkpt>
      <trkpt lat="44.88949" lon="5.93293">
        <ele>1078</ele>
        <time>2019-05-11T00:27:14Z</time>
      </trkpt>
      <trkpt lat="44.8896" lon="5.93201">
        <ele>1058</ele>
        <time>2019-05-11T00:28:14Z</time>
      </trkpt>
      <trkpt lat="44.8892" lon="5.93116">
        <ele>1058</ele>
        <time>2019-05-11T00:29:14Z</time>
      </trkpt>
      <trkpt lat="44.88875" lon="5.9305">
        <ele>1039</ele>
        <time>2019-05-11T00:30:14Z</time>
      </trkpt>
      <trkpt lat="44.88766" lon="5.93119">
        <ele>1042</ele>
        <time>2019-05-11T00:31:14Z</time>
      </trkpt>
      <trkpt lat="44.88715" lon="5.93099">
        <ele>1023</ele>
        <time>2019-05-11T00:32:14Z</time>
      </trkpt>
      <trkpt lat="44.88652" lon="5.93139">
        <ele>1030</ele>
        <time>2019-05-11T00:33:14Z</time>
      </trkpt>
      <trkpt lat="44.88591" lon="5.93147">
        <ele>1036</ele>
        <time>2019-05-11T00:34:14Z</time>
      </trkpt>
      <trkpt lat="44.88578" lon="5.93109">
        <ele>1028</ele>
        <time>2019-05-11T00:35:14Z</time>
      </trkpt>
      <trkpt lat="44.88594" lon="5.93027">
        <ele>1005</ele>
        <time>2019-05-11T00:36:14Z</time>
      </trkpt>
      <trkpt lat="44.88551" lon="5.9282">
        <ele>983</ele>
        <time>2019-05-11T00:37:14Z</time>
      </trkpt>
      <trkpt lat="44.88526" lon="5.92723">
        <ele>972</ele>
        <time>2019-05-11T00:38:14Z</time>
      </trkpt>
      <trkpt lat="44.88501" lon="5.92654">
        <ele>959</ele>
        <time>2019-05-11T00:39:14Z</time>
      </trkpt>
      <trkpt lat="44.88452" lon="5.92624">
        <ele>963</ele>
        <time>2019-05-11T00:40:14Z</time>
      </trkpt>
      <trkpt lat="44.88428" lon="5.92586">
        <ele>958</ele>
        <time>2019-05-11T00:41:14Z</time>
      </trkpt>
      <trkpt lat="44.88433" lon="5.9256">
        <ele>954</ele>
        <time>2019-05-11T00:42:14Z</time>
      </trkpt>
      <trkpt lat="44.88456" lon="5.92555">
        <ele>947</ele>
        <time>2019-05-11T00:43:14Z</time>
      </trkpt>
      <trkpt lat="44.88437" lon="5.92468">
        <ele>943</ele>
        <time>2019-05-11T00:44:14Z</time>
      </trkpt>
      <trkpt lat="44.88412" lon="5.92452">
        <ele>948</ele>
        <time>2019-05-11T00:45:14Z</time>
      </trkpt>
      <trkpt lat="44.88385" lon="5.92457">
        <ele>961</ele>
        <time>2019-05-11T00:46:14Z</time>
      </trkpt>
      <trkpt lat="44.88369" lon="5.92453">
        <ele>968</ele>
        <time>2019-05-11T00:47:14Z</time>
      </trkpt>
      <trkpt lat="44.88358" lon="5.92429">
        <ele>971</ele>
        <time>2019-05-11T00:48:14Z</time>
      </trkpt>
      <trkpt lat="44.88408" lon="5.92318">
        <ele>957</ele>
        <time>2019-05-11T00:49:14Z</time>
      </trkpt>
      <trkpt lat="44.88433" lon="5.92236">
        <ele>949</ele>
        <time>2019-05-11T00:50:14Z</time>
      </trkpt>
      <trkpt lat="44.88372" lon="5.91892">
        <ele>952</ele>
        <time>2019-05-11T00:51:14Z</time>
      </trkpt>
      <trkpt lat="44.88352" lon="5.91795">
        <ele>950</ele>
        <time>2019-05-11T00:52:14Z</time>
      </trkpt>
      <trkpt lat="44.8832" lon="5.91649">
        <ele>948</ele>
        <time>2019-05-11T00:53:14Z</time>
      </trkpt>
      <trkpt lat="44.88291" lon="5.91552">
        <ele>952</ele>
        <time>2019-05-11T00:54:14Z</time>
      </trkpt>
      <trkpt lat="44.88291" lon="5.91435">
        <ele>951</ele>
        <time>2019-05-11T00:55:14Z</time>
      </trkpt>
      <trkpt lat="44.88278" lon="5.91203">
        <ele>945</ele>
        <time>2019-05-11T00:56:14Z</time>
      </trkpt>
      <trkpt lat="44.88269" lon="5.90981">
        <ele>952</ele>
        <time>2019-05-11T00:57:14Z</time>
      </trkpt>
      <trkpt lat="44.883" lon="5.90787">
        <ele>944</ele>
        <time>2019-05-11T00:58:14Z</time>
      </trkpt>
      <trkpt lat="44.88312" lon="5.9059">
        <ele>948</ele>
        <time>2019-05-11T00:59:14Z</time>
      </trkpt>
      <trkpt lat="44.88343" lon="5.90368">
        <ele>951</ele>
        <time>2019-05-11T01:00:14Z</time>
      </trkpt>
      <trkpt lat="44.88394" lon="5.90151">
        <ele>956</ele>
        <time>2019-05-11T01:01:14Z</time>
      </trkpt>
      <trkpt lat="44.8845" lon="5.89968">
        <ele>939</ele>
        <time>2019-05-11T01:02:14Z</time>
      </trkpt>
      <trkpt lat="44.8847" lon="5.89832">
        <ele>935</ele>
        <time>2019-05-11T01:03:14Z</time>
      </trkpt>
      <trkpt lat="44.88455" lon="5.89771">
        <ele>954</ele>
        <time>2019-05-11T01:04:14Z</time>
      </trkpt>
      <trkpt lat="44.88491" lon="5.89715">
        <ele>935</ele>
        <time>2019-05-11T01:05:14Z</time>
      </trkpt>
      <trkpt lat="44.88511" lon="5.89544">
        <ele>933</ele>
        <time>2019-05-11T01:06:14Z</time>
      </trkpt>
      <trkpt lat="44.88495" lon="5.89465">
        <ele>950</ele>
        <time>2019-05-11T01:07:14Z</time>
      </trkpt>
      <trkpt lat="44.88499" lon="5.89286">
        <ele>952</ele>
        <time>2019-05-11T01:08:14Z</time>
      </trkpt>
      <trkpt lat="44.88533" lon="5.89217">
        <ele>929</ele>
        <time>2019-05-11T01:09:14Z</time>
      </trkpt>
      <trkpt lat="44.88504" lon="5.89113">
        <ele>957</ele>
        <time>2019-05-11T01:10:14Z</time>
      </trkpt>
      <trkpt lat="44.88593" lon="5.89011">
        <ele>916</ele>
        <time>2019-05-11T01:11:14Z</time>
      </trkpt>
      <trkpt lat="44.88583" lon="5.88878">
        <ele>948</ele>
        <time>2019-05-11T01:12:14Z</time>
      </trkpt>
      <trkpt lat="44.88629" lon="5.88786">
        <ele>932</ele>
        <time>2019-05-11T01:13:14Z</time>
      </trkpt>
      <trkpt lat="44.88706" lon="5.88457">
        <ele>931</ele>
        <time>2019-05-11T01:14:14Z</time>
      </trkpt>
      <trkpt lat="44.88679" lon="5.88301">
        <ele>950</ele>
        <time>2019-05-11T01:15:14Z</time>
      </trkpt>
      <trkpt lat="44.88753" lon="5.88186">
        <ele>937</ele>
        <time>2019-05-11T01:16:14Z</time>
      </trkpt>
      <trkpt lat="44.88766" lon="5.88115">
        <ele>944</ele>
        <time>2019-05-11T01:17:14Z</time>
      </trkpt>
      <trkpt lat="44.88795" lon="5.88033">
        <ele>934</ele>
        <time>2019-05-11T01:18:14Z</time>
      </trkpt>
      <trkpt lat="44.88773" lon="5.87865">
        <ele>946</ele>
        <time>2019-05-11T01:19:14Z</time>
      </trkpt>
      <trkpt lat="44.88782" lon="5.87732">
        <ele>937</ele>
        <time>2019-05-11T01:20:14Z</time>
      </trkpt>
      <trkpt lat="44.88759" lon="5.87656">
        <ele>950</ele>
        <time>2019-05-11T01:21:14Z</time>
      </trkpt>
      <trkpt lat="44.88759" lon="5.8752">
        <ele>934</ele>
        <time>2019-05-11T01:22:14Z</time>
      </trkpt>
      <trkpt lat="44.88721" lon="5.87454">
        <ele>959</ele>
        <time>2019-05-11T01:23:14Z</time>
      </trkpt>
      <trkpt lat="44.88753" lon="5.87334">
        <ele>945</ele>
        <time>2019-05-11T01:24:14Z</time>
      </trkpt>
      <trkpt lat="44.8875" lon="5.87252">
        <ele>955</ele>
        <time>2019-05-11T01:25:14Z</time>
      </trkpt>
      <trkpt lat="44.88775" lon="5.87191">
        <ele>953</ele>
        <time>2019-05-11T01:26:14Z</time>
      </trkpt>
      <trkpt lat="44.88887" lon="5.87048">
        <ele>941</ele>
        <time>2019-05-11T01:27:14Z</time>
      </trkpt>
      <trkpt lat="44.88936" lon="5.86923">
        <ele>951</ele>
        <time>2019-05-11T01:28:14Z</time>
      </trkpt>
      <trkpt lat="44.89001" lon="5.86875">
        <ele>932</ele>
        <time>2019-05-11T01:29:14Z</time>
      </trkpt>
      <trkpt lat="44.89037" lon="5.86791">
        <ele>941</ele>
        <time>2019-05-11T01:30:14Z</time>
      </trkpt>
      <trkpt lat="44.89099" lon="5.86706">
        <ele>942</ele>
        <time>2019-05-11T01:31:14Z</time>
      </trkpt>
      <trkpt lat="44.89164" lon="5.86648">
        <ele>930</ele>
        <time>2019-05-11T01:32:14Z</time>
      </trkpt>
      <trkpt lat="44.89214" lon="5.86561">
        <ele>927</ele>
        <time>2019-05-11T01:33:14Z</time>
      </trkpt>
      <trkpt lat="44.89209" lon="5.86469">
        <ele>930</ele>
        <time>2019-05-11T01:34:14Z</time>
      </trkpt>
      <trkpt lat="44.89095" lon="5.86344">
        <ele>934</ele>
        <time>2019-05-11T01:35:14Z</time>
      </trkpt>
      <trkpt lat="44.89016" lon="5.8628">
        <ele>942</ele>
        <time>2019-05-11T01:36:14Z</time>
      </trkpt>
      <trkpt lat="44.88938" lon="5.86191">
        <ele>940</ele>
        <time>2019-05-11T01:37:14Z</time>
      </trkpt>
      <trkpt lat="44.88846" lon="5.86043">
        <ele>932</ele>
        <time>2019-05-11T01:38:14Z</time>
      </trkpt>
      <trkpt lat="44.88781" lon="5.85966">
        <ele>943</ele>
        <time>2019-05-11T01:39:14Z</time>
      </trkpt>
      <trkpt lat="44.88746" lon="5.85867">
        <ele>941</ele>
        <time>2019-05-11T01:40:14Z</time>
      </trkpt>
      <trkpt lat="44.88721" lon="5.85775">
        <ele>931</ele>
        <time>2019-05-11T01:41:14Z</time>
      </trkpt>
      <trkpt lat="44.88565" lon="5.85635">
        <ele>929</ele>
        <time>2019-05-11T01:42:14Z</time>
      </trkpt>
      <trkpt lat="44.88421" lon="5.85609">
        <ele>930</ele>
        <time>2019-05-11T01:43:14Z</time>
      </trkpt>
      <trkpt lat="44.88357" lon="5.85573">
        <ele>930</ele>
        <time>2019-05-11T01:44:14Z</time>
      </trkpt>
      <trkpt lat="44.88312" lon="5.85515">
        <ele>929</ele>
        <time>2019-05-11T01:45:14Z</time>
      </trkpt>
      <trkpt lat="44.88357" lon="5.85413">
        <ele>924</ele>
        <time>2019-05-11T01:46:14Z</time>
      </trkpt>
      <trkpt lat="44.88285" lon="5.85224">
        <ele>925</ele>
        <time>2019-05-11T01:47:14Z</time>
      </trkpt>
      <trkpt lat="44.88178" lon="5.85163">
        <ele>933</ele>
        <time>2019-05-11T01:48:14Z</time>
      </trkpt>
      <trkpt lat="44.88095" lon="5.85186">
        <ele>929</ele>
        <time>2019-05-11T01:49:14Z</time>
      </trkpt>
      <trkpt lat="44.88019" lon="5.85127">
        <ele>926</ele>
        <time>2019-05-11T01:50:14Z</time>
      </trkpt>
      <trkpt lat="44.87938" lon="5.85053">
        <ele>926</ele>
        <time>2019-05-11T01:51:14Z</time>
      </trkpt>
      <trkpt lat="44.87909" lon="5.85038">
        <ele>924</ele>
        <time>2019-05-11T01:52:14Z</time>
      </trkpt>
      <trkpt lat="44.87833" lon="5.84951">
        <ele>916</ele>
        <time>2019-05-11T01:53:14Z</time>
      </trkpt>
      <trkpt lat="44.87772" lon="5.84933">
        <ele>910</ele>
        <time>2019-05-11T01:54:14Z</time>
      </trkpt>
      <trkpt lat="44.8769" lon="5.84867">
        <ele>909</ele>
        <time>2019-05-11T01:55:14Z</time>
      </trkpt>
      <trkpt lat="44.87652" lon="5.84823">
        <ele>909</ele>
        <time>2019-05-11T01:56:14Z</time>
      </trkpt>
      <trkpt lat="44.87643" lon="5.84757">
        <ele>907</ele>
        <time>2019-05-11T01:57:14Z</time>
      </trkpt>
      <trkpt lat="44.87658" lon="5.84678">
        <ele>897</ele>
        <time>2019-05-11T01:58:14Z</time>
      </trkpt>
      <trkpt lat="44.87761" lon="5.84458">
        <ele>884</ele>
        <time>2019-05-11T01:59:14Z</time>
      </trkpt>
      <trkpt lat="44.87835" lon="5.84144">
        <ele>879</ele>
        <time>2019-05-11T02:00:14Z</time>
      </trkpt>
      <trkpt lat="44.87947" lon="5.83771">
        <ele>878</ele>
        <time>2019-05-11T02:01:14Z</time>
      </trkpt>
      <trkpt lat="44.87968" lon="5.83616">
        <ele>881</ele>
        <time>2019-05-11T02:02:14Z</time>
      </trkpt>
      <trkpt lat="44.87962" lon="5.836">
        <ele>880</ele>
        <time>2019-05-11T02:03:14Z</time>
      </trkpt>
      <trkpt lat="44.88021" lon="5.83558">
        <ele>891</ele>
        <time>2019-05-11T02:04:14Z</time>
      </trkpt>
      <trkpt lat="44.88034" lon="5.83541">
        <ele>894</ele>
        <time>2019-05-11T02:05:14Z</time>
      </trkpt>
      <trkpt lat="44.88098" lon="5.8351">
        <ele>906</ele>
        <time>2019-05-11T02:06:14Z</time>
      </trkpt>
      <trkpt lat="44.8817" lon="5.83529">
        <ele>915</ele>
        <time>2019-05-11T02:07:14Z</time>
      </trkpt>
      <trkpt lat="44.8822" lon="5.83558">
        <ele>915</ele>
        <time>2019-05-11T02:08:14Z</time>
      </trkpt>
      <trkpt lat="44.88294" lon="5.83664">
        <ele>910</ele>
        <time>2019-05-11T02:09:14Z</time>
      </trkpt>
      <trkpt lat="44.88371" lon="5.83763">
        <ele>903</ele>
        <time>2019-05-11T02:10:14Z</time>
      </trkpt>
      <trkpt lat="44.88479" lon="5.83846">
        <ele>894</ele>
        <time>2019-05-11T02:11:14Z</time>
      </trkpt>
      <trkpt lat="44.88578" lon="5.83873">
        <ele>887</ele>
        <time>2019-05-11T02:12:14Z</time>
      </trkpt>
      <trkpt lat="44.88659" lon="5.83876">
        <ele>879</ele>
        <time>2019-05-11T02:13:14Z</time>
      </trkpt>
      <trkpt lat="44.88704" lon="5.83867">
        <ele>875</ele>
        <time>2019-05-11T02:14:14Z</time>
      </trkpt>
      <trkpt lat="44.88731" lon="5.83849">
        <ele>869</ele>
        <time>2019-05-11T02:15:14Z</time>
      </trkpt>
      <trkpt lat="44.88757" lon="5.83826">
        <ele>861</ele>
        <time>2019-05-11T02:16:14Z</time>
      </trkpt>
      <trkpt lat="44.88773" lon="5.83787">
        <ele>852</ele>
        <time>2019-05-11T02:17:14Z</time>
      </trkpt>
      <trkpt lat="44.88762" lon="5.83788">
        <ele>852</ele>
        <time>2019-05-11T02:18:14Z</time>
      </trkpt>
      <trkpt lat="44.88766" lon="5.83769">
        <ele>847</ele>
        <time>2019-05-11T02:19:14Z</time>
      </trkpt>
      <trkpt lat="44.88827" lon="5.83681">
        <ele>838</ele>
        <time>2019-05-11T02:20:14Z</time>
      </trkpt>
      <trkpt lat="44.88841" lon="5.8364">
        <ele>834</ele>
        <time>2019-05-11T02:21:14Z</time>
      </trkpt>
      <trkpt lat="44.88904" lon="5.83549">
        <ele>830</ele>
        <time>2019-05-11T02:22:14Z</time>
      </trkpt>
      <trkpt lat="44.88906" lon="5.83519">
        <ele>828</ele>
        <time>2019-05-11T02:23:14Z</time>
      </trkpt>
      <trkpt lat="44.88947" lon="5.83476">
        <ele>827</ele>
        <time>2019-05-11T02:24:14Z</time>
      </trkpt>
      <trkpt lat="44.88968" lon="5.83427">
        <ele>823</ele>
        <time>2019-05-11T02:25:14Z</time>
      </trkpt>
      <trkpt lat="44.88967" lon="5.8338">
        <ele>816</ele>
        <time>2019-05-11T02:26:14Z</time>
      </trkpt>
      <trkpt lat="44.89015" lon="5.83297">
        <ele>808</ele>
        <time>2019-05-11T02:27:14Z</time>
      </trkpt>
      <trkpt lat="44.89051" lon="5.83223">
        <ele>805</ele>
        <time>2019-05-11T02:28:14Z</time>
      </trkpt>
      <trkpt lat="44.89011" lon="5.83265">
        <ele>801</ele>
        <time>2019-05-11T02:29:14Z</time>
      </trkpt>
      <trkpt lat="44.89014" lon="5.83226">
        <ele>796</ele>
        <time>2019-05-11T02:30:14Z</time>
      </trkpt>
      <trkpt lat="44.89011" lon="5.8316">
        <ele>786</ele>
        <time>2019-05-11T02:31:14Z</time>
      </trkpt>
      <trkpt lat="44.89022" lon="5.83071">
        <ele>781</ele>
        <time>2019-05-11T02:32:14Z</time>
      </trkpt>
      <trkpt lat="44.89057" lon="5.82987">
        <ele>780</ele>
        <time>2019-05-11T02:33:14Z</time>
      </trkpt>
      <trkpt lat="44.89062" lon="5.82898">
        <ele>774</ele>
        <time>2019-05-11T02:34:14Z</time>
      </trkpt>
      <trkpt lat="44.89054" lon="5.82865">
        <ele>772</ele>
        <time>2019-05-11T02:35:14Z</time>
      </trkpt>
      <trkpt lat="44.89021" lon="5.82836">
        <ele>771</ele>
        <time>2019-05-11T02:36:14Z</time>
      </trkpt>
      <trkpt lat="44.89044" lon="5.82754">
        <ele>770</ele>
        <time>2019-05-11T02:37:14Z</time>
      </trkpt>
      <trkpt lat="44.89007" lon="5.82654">
        <ele>773</ele>
        <time>2019-05-11T02:38:14Z</time>
      </trkpt>
      <trkpt lat="44.8907" lon="5.82504">
        <ele>773</ele>
        <time>2019-05-11T02:39:14Z</time>
      </trkpt>
      <trkpt lat="44.89155" lon="5.82458">
        <ele>769</ele>
        <time>2019-05-11T02:40:14Z</time>
      </trkpt>
      <trkpt lat="44.89236" lon="5.82338">
        <ele>764</ele>
        <time>2019-05-11T02:41:14Z</time>
      </trkpt>
      <trkpt lat="44.89312" lon="5.82271">
        <ele>758</ele>
        <time>2019-05-11T02:42:14Z</time>
      </trkpt>
      <trkpt lat="44.8939" lon="5.81955">
        <ele>735</ele>
        <time>2019-05-11T02:43:14Z</time>
      </trkpt>
      <trkpt lat="44.89377" lon="5.81848">
        <ele>724</ele>
        <time>2019-05-11T02:44:14Z</time>
      </trkpt>
      <trkpt lat="44.89319" lon="5.81782">
        <ele>722</ele>
        <time>2019-05-11T02:45:14Z</time>
      </trkpt>
      <trkpt lat="44.89278" lon="5.817">
        <ele>718</ele>
        <time>2019-05-11T02:46:14Z</time>
      </trkpt>
      <trkpt lat="44.89222" lon="5.81542">
        <ele>703</ele>
        <time>2019-05-11T02:47:14Z</time>
      </trkpt>
      <trkpt lat="44.8916" lon="5.81452">
        <ele>695</ele>
        <time>2019-05-11T02:48:14Z</time>
      </trkpt>
      <trkpt lat="44.89249" lon="5.8148">
        <ele>690</ele>
        <time>2019-05-11T02:49:14Z</time>
      </trkpt>
      <trkpt lat="44.89316" lon="5.81565">
        <ele>686</ele>
        <time>2019-05-11T02:50:14Z</time>
      </trkpt>
      <trkpt lat="44.89547" lon="5.81748">
        <ele>671</ele>
        <time>2019-05-11T02:51:14Z</time>
      </trkpt>
      <trkpt lat="44.89674" lon="5.81649">
        <ele>647</ele>
        <time>2019-05-11T02:52:14Z</time>
      </trkpt>
      <trkpt lat="44.89751" lon="5.81705">
        <ele>652</ele>
        <time>2019-05-11T02:53:14Z</time>
      </trkpt>
      <trkpt lat="44.89836" lon="5.81639">
        <ele>629</ele>
        <time>2019-05-11T02:54:14Z</time>
      </trkpt>
      <trkpt lat="44.90053" lon="5.81656">
        <ele>613</ele>
        <time>2019-05-11T02:55:14Z</time>
      </trkpt>
      <trkpt lat="44.90111" lon="5.81797">
        <ele>620</ele>
        <time>2019-05-11T02:56:14Z</time>
      </trkpt>
      <trkpt lat="44.90216" lon="5.81654">
        <ele>609</ele>
        <time>2019-05-11T02:57:14Z</time>
      </trkpt>
      <trkpt lat="44.90051" lon="5.81434">
        <ele>644</ele>
        <time>2019-05-11T02:58:14Z</time>
      </trkpt>
      <trkpt lat="44.89984" lon="5.8144">
        <ele>634</ele>
        <time>2019-05-11T02:59:14Z</time>
      </trkpt>
      <trkpt lat="44.89921" lon="5.81366">
        <ele>641</ele>
        <time>2019-05-11T03:00:14Z</time>
      </trkpt>
      <trkpt lat="44.89905" lon="5.81223">
        <ele>665</ele>
        <time>2019-05-11T03:01:14Z</time>
      </trkpt>
      <trkpt lat="44.89854" lon="5.81238">
        <ele>664</ele>
        <time>2019-05-11T03:02:14Z</time>
      </trkpt>
      <trkpt lat="44.89798" lon="5.81261">
        <ele>650</ele>
        <time>2019-05-11T03:03:14Z</time>
      </trkpt>
      <trkpt lat="44.89836" lon="5.81212">
        <ele>672</ele>
        <time>2019-05-11T03:04:14Z</time>
      </trkpt>
      <trkpt lat="44.89863" lon="5.81154">
        <ele>683</ele>
        <time>2019-05-11T03:05:14Z</time>
      </trkpt>
      <trkpt lat="44.89939" lon="5.81011">
        <ele>704</ele>
        <time>2019-05-11T03:06:14Z</time>
      </trkpt>
      <trkpt lat="44.89981" lon="5.81126">
        <ele>696</ele>
        <time>2019-05-11T03:07:14Z</time>
      </trkpt>
      <trkpt lat="44.89965" lon="5.81205">
        <ele>686</ele>
        <time>2019-05-11T03:08:14Z</time>
      </trkpt>
      <trkpt lat="44.89981" lon="5.81279">
        <ele>683</ele>
        <time>2019-05-11T03:09:14Z</time>
      </trkpt>
      <trkpt lat="44.89999" lon="5.81223">
        <ele>699</ele>
        <time>2019-05-11T03:10:14Z</time>
      </trkpt>
      <trkpt lat="44.90019" lon="5.81138">
        <ele>708</ele>
        <time>2019-05-11T03:11:14Z</time>
      </trkpt>
      <trkpt lat="44.90021" lon="5.81064">
        <ele>709</ele>
        <time>2019-05-11T03:12:14Z</time>
      </trkpt>
      <trkpt lat="44.9006" lon="5.80922">
        <ele>724</ele>
        <time>2019-05-11T03:13:14Z</time>
      </trkpt>
      <trkpt lat="44.90019" lon="5.80809">
        <ele>730</ele>
        <time>2019-05-11T03:14:14Z</time>
      </trkpt>
      <trkpt lat="44.89934" lon="5.8074">
        <ele>736</ele>
        <time>2019-05-11T03:15:14Z</time>
      </trkpt>
      <trkpt lat="44.89818" lon="5.80794">
        <ele>743</ele>
        <time>2019-05-11T03:16:14Z</time>
      </trkpt>
      <trkpt lat="44.89702" lon="5.80809">
        <ele>744</ele>
        <time>2019-05-11T03:17:14Z</time>
      </trkpt>
      <trkpt lat="44.89647" lon="5.80767">
        <ele>744</ele>
        <time>2019-05-11T03:18:14Z</time>
      </trkpt>
      <trkpt lat="44.89559" lon="5.80681">
        <ele>741</ele>
        <time>2019-05-11T03:19:14Z</time>
      </trkpt>
      <trkpt lat="44.89483" lon="5.80655">
        <ele>738</ele>
        <time>2019-05-11T03:20:14Z</time>
      </trkpt>
      <trkpt lat="44.89361" lon="5.80698">
        <ele>723</ele>
        <time>2019-05-11T03:21:14Z</time>
      </trkpt>
      <trkpt lat="44.89273" lon="5.80647">
        <ele>720</ele>
        <time>2019-05-11T03:22:14Z</time>
      </trkpt>
      <trkpt lat="44.892" lon="5.80544">
        <ele>716</ele>
        <time>2019-05-11T03:23:14Z</time>
      </trkpt>
      <trkpt lat="44.89169" lon="5.80445">
        <ele>720</ele>
        <time>2019-05-11T03:24:14Z</time>
      </trkpt>
      <trkpt lat="44.89072" lon="5.80479">
        <ele>712</ele>
        <time>2019-05-11T03:25:14Z</time>
      </trkpt>
      <trkpt lat="44.88972" lon="5.80544">
        <ele>694</ele>
        <time>2019-05-11T03:26:14Z</time>
      </trkpt>
      <trkpt lat="44.8875" lon="5.80398">
        <ele>681</ele>
        <time>2019-05-11T03:27:14Z</time>
      </trkpt>
      <trkpt lat="44.88698" lon="5.80286">
        <ele>676</ele>
        <time>2019-05-11T03:28:14Z</time>
      </trkpt>
      <trkpt lat="44.88543" lon="5.80136">
        <ele>667</ele>
        <time>2019-05-11T03:29:14Z</time>
      </trkpt>
      <trkpt lat="44.88452" lon="5.80153">
        <ele>636</ele>
        <time>2019-05-11T03:30:14Z</time>
      </trkpt>
      <trkpt lat="44.8847" lon="5.8002">
        <ele>650</ele>
        <time>2019-05-11T03:31:14Z</time>
      </trkpt>
      <trkpt lat="44.88443" lon="5.79904">
        <ele>652</ele>
        <time>2019-05-11T03:32:14Z</time>
      </trkpt>
      <trkpt lat="44.88382" lon="5.799">
        <ele>621</ele>
        <time>2019-05-11T03:33:14Z</time>
      </trkpt>
      <trkpt lat="44.88403" lon="5.79793">
        <ele>633</ele>
        <time>2019-05-11T03:34:14Z</time>
      </trkpt>
      <trkpt lat="44.88385" lon="5.79703">
        <ele>622</ele>
        <time>2019-05-11T03:35:14Z</time>
      </trkpt>
      <trkpt lat="44.88391" lon="5.79531">
        <ele>613</ele>
        <time>2019-05-11T03:36:14Z</time>
      </trkpt>
      <trkpt lat="44.88358" lon="5.79471">
        <ele>614</ele>
        <time>2019-05-11T03:37:14Z</time>
      </trkpt>
      <trkpt lat="44.88291" lon="5.79484">
        <ele>597</ele>
        <time>2019-05-11T03:38:14Z</time>
      </trkpt>
      <trkpt lat="44.88047" lon="5.79321">
        <ele>586</ele>
        <time>2019-05-11T03:39:14Z</time>
      </trkpt>
      <trkpt lat="44.8799" lon="5.79222">
        <ele>614</ele>
        <time>2019-05-11T03:40:14Z</time>
      </trkpt>
      <trkpt lat="44.87935" lon="5.7908">
        <ele>614</ele>
        <time>2019-05-11T03:41:14Z</time>
      </trkpt>
      <trkpt lat="44.87911" lon="5.78943">
        <ele>633</ele>
        <time>2019-05-11T03:42:14Z</time>
      </trkpt>
      <trkpt lat="44.87917" lon="5.789">
        <ele>636</ele>
        <time>2019-05-11T03:43:14Z</time>
      </trkpt>
      <trkpt lat="44.87953" lon="5.78814">
        <ele>616</ele>
        <time>2019-05-11T03:44:14Z</time>
      </trkpt>
      <trkpt lat="44.87941" lon="5.78746">
        <ele>624</ele>
        <time>2019-05-11T03:45:14Z</time>
      </trkpt>
      <trkpt lat="44.87908" lon="5.78604">
        <ele>598</ele>
        <time>2019-05-11T03:46:14Z</time>
      </trkpt>
      <trkpt lat="44.87722" lon="5.78522">
        <ele>644</ele>
        <time>2019-05-11T03:47:14Z</time>
      </trkpt>
      <trkpt lat="44.87616" lon="5.78449">
        <ele>640</ele>
        <time>2019-05-11T03:48:14Z</time>
      </trkpt>
      <trkpt lat="44.87509" lon="5.78419">
        <ele>662</ele>
        <time>2019-05-11T03:49:14Z</time>
      </trkpt>
      <trkpt lat="44.87448" lon="5.78304">
        <ele>638</ele>
        <time>2019-05-11T03:50:14Z</time>
      </trkpt>
      <trkpt lat="44.87381" lon="5.78282">
        <ele>676</ele>
        <time>2019-05-11T03:51:14Z</time>
      </trkpt>
      <trkpt lat="44.87333" lon="5.78179">
        <ele>677</ele>
        <time>2019-05-11T03:52:14Z</time>
      </trkpt>
      <trkpt lat="44.87324" lon="5.7805">
        <ele>660</ele>
        <time>2019-05-11T03:53:14Z</time>
      </trkpt>
      <trkpt lat="44.87187" lon="5.78098">
        <ele>700</ele>
        <time>2019-05-11T03:54:14Z</time>
      </trkpt>
      <trkpt lat="44.87059" lon="5.78059">
        <ele>708</ele>
        <time>2019-05-11T03:55:14Z</time>
      </trkpt>
      <trkpt lat="44.86962" lon="5.77887">
        <ele>693</ele>
        <time>2019-05-11T03:56:14Z</time>
      </trkpt>
      <trkpt lat="44.86825" lon="5.77943">
        <ele>707</ele>
        <time>2019-05-11T03:57:14Z</time>
      </trkpt>
      <trkpt lat="44.8674" lon="5.78012">
        <ele>718</ele>
        <time>2019-05-11T03:58:14Z</time>
      </trkpt>
      <trkpt lat="44.86673" lon="5.78016">
        <ele>729</ele>
        <time>2019-05-11T03:59:14Z</time>
      </trkpt>
      <trkpt lat="44.86606" lon="5.77832">
        <ele>731</ele>
        <time>2019-05-11T04:00:14Z</time>
      </trkpt>
      <trkpt lat="44.86506" lon="5.77789">
        <ele>750</ele>
        <time>2019-05-11T04:01:14Z</time>
      </trkpt>
      <trkpt lat="44.86475" lon="5.77656">
        <ele>739</ele>
        <time>2019-05-11T04:02:14Z</time>
      </trkpt>
      <trkpt lat="44.86426" lon="5.77565">
        <ele>749</ele>
        <time>2019-05-11T04:03:14Z</time>
      </trkpt>
      <trkpt lat="44.86387" lon="5.77437">
        <ele>745</ele>
        <time>2019-05-11T04:04:14Z</time>
      </trkpt>
      <trkpt lat="44.8629" lon="5.77317">
        <ele>759</ele>
        <time>2019-05-11T04:05:14Z</time>
      </trkpt>
      <trkpt lat="44.8625" lon="5.77162">
        <ele>763</ele>
        <time>2019-05-11T04:06:14Z</time>
      </trkpt>
      <trkpt lat="44.86192" lon="5.77106">
        <ele>773</ele>
        <time>2019-05-11T04:07:14Z</time>
      </trkpt>
      <trkpt lat="44.86201" lon="5.76965">
        <ele>770</ele>
        <time>2019-05-11T04:08:14Z</time>
      </trkpt>
      <trkpt lat="44.8615" lon="5.769">
        <ele>781</ele>
        <time>2019-05-11T04:09:14Z</time>
      </trkpt>
      <trkpt lat="44.86165" lon="5.76673">
        <ele>786</ele>
        <time>2019-05-11T04:10:14Z</time>
      </trkpt>
      <trkpt lat="44.86107" lon="5.7666">
        <ele>789</ele>
        <time>2019-05-11T04:11:14Z</time>
      </trkpt>
      <trkpt lat="44.86064" lon="5.7672">
        <ele>796</ele>
        <time>2019-05-11T04:12:14Z</time>
      </trkpt>
      <trkpt lat="44.8597" lon="5.76711">
        <ele>799</ele>
        <time>2019-05-11T04:13:14Z</time>
      </trkpt>
      <trkpt lat="44.8587" lon="5.7669">
        <ele>807</ele>
        <time>2019-05-11T04:14:14Z</time>
      </trkpt>
      <trkpt lat="44.85809" lon="5.76626">
        <ele>812</ele>
        <time>2019-05-11T04:15:14Z</time>
      </trkpt>
      <trkpt lat="44.85766" lon="5.7642">
        <ele>815</ele>
        <time>2019-05-11T04:16:14Z</time>
      </trkpt>
      <trkpt lat="44.85347" lon="5.76201">
        <ele>822</ele>
        <time>2019-05-11T04:17:14Z</time>
      </trkpt>
    </trkseg>
  </trk>
  <trk>
    <name><![CDATA[20190510164004-MpfnD]]></name>
    <trkseg>
      <trkpt lat="44.85335" lon="5.76168">
        <ele>823</ele>
        <time>2019-05-10T16:38:03Z</time>
      </trkpt>
      <trkpt lat="44.85296" lon="5.76009">
        <ele>822</ele>
        <time>2019-05-10T16:39:03Z</time>
      </trkpt>
      <trkpt lat="44.85316" lon="5.75941">
        <ele>820</ele>
        <time>2019-05-10T16:40:03Z</time>
      </trkpt>
      <trkpt lat="44.85343" lon="5.75826">
        <ele>816</ele>
        <time>2019-05-10T16:41:03Z</time>
      </trkpt>
      <trkpt lat="44.85332" lon="5.75739">
        <ele>818</ele>
        <time>2019-05-10T16:42:03Z</time>
      </trkpt>
      <trkpt lat="44.85364" lon="5.75645">
        <ele>814</ele>
        <time>2019-05-10T16:43:03Z</time>
      </trkpt>
      <trkpt lat="44.85359" lon="5.75499">
        <ele>816</ele>
        <time>2019-05-10T16:44:03Z</time>
      </trkpt>
      <trkpt lat="44.85359" lon="5.75155">
        <ele>811</ele>
        <time>2019-05-10T16:45:03Z</time>
      </trkpt>
      <trkpt lat="44.85335" lon="5.74979">
        <ele>806</ele>
        <time>2019-05-10T16:46:03Z</time>
      </trkpt>
      <trkpt lat="44.8531" lon="5.74843">
        <ele>800</ele>
        <time>2019-05-10T16:47:03Z</time>
      </trkpt>
      <trkpt lat="44.85225" lon="5.74777">
        <ele>795</ele>
        <time>2019-05-10T16:48:03Z</time>
      </trkpt>
      <trkpt lat="44.85216" lon="5.74731">
        <ele>794</ele>
        <time>2019-05-10T16:49:03Z</time>
      </trkpt>
      <trkpt lat="44.85126" lon="5.74672">
        <ele>786</ele>
        <time>2019-05-10T16:50:03Z</time>
      </trkpt>
      <trkpt lat="44.85109" lon="5.74563">
        <ele>783</ele>
        <time>2019-05-10T16:51:03Z</time>
      </trkpt>
      <trkpt lat="44.85023" lon="5.74455">
        <ele>773</ele>
        <time>2019-05-10T16:52:03Z</time>
      </trkpt>
      <trkpt lat="44.85021" lon="5.74392">
        <ele>768</ele>
        <time>2019-05-10T16:53:03Z</time>
      </trkpt>
      <trkpt lat="44.85189" lon="5.74185">
        <ele>752</ele>
        <time>2019-05-10T16:54:03Z</time>
      </trkpt>
      <trkpt lat="44.85209" lon="5.74073">
        <ele>745</ele>
        <time>2019-05-10T16:55:03Z</time>
      </trkpt>
      <trkpt lat="44.85245" lon="5.73996">
        <ele>742</ele>
        <time>2019-05-10T16:56:03Z</time>
      </trkpt>
      <trkpt lat="44.85245" lon="5.73942">
        <ele>741</ele>
        <time>2019-05-10T16:57:03Z</time>
      </trkpt>
      <trkpt lat="44.85236" lon="5.73904">
        <ele>741</ele>
        <time>2019-05-10T16:58:03Z</time>
      </trkpt>
      <trkpt lat="44.85122" lon="5.73825">
        <ele>742</ele>
        <time>2019-05-10T16:59:03Z</time>
      </trkpt>
      <trkpt lat="44.85015" lon="5.73794">
        <ele>750</ele>
        <time>2019-05-10T17:00:03Z</time>
      </trkpt>
      <trkpt lat="44.84824" lon="5.73692">
        <ele>757</ele>
        <time>2019-05-10T17:01:03Z</time>
      </trkpt>
      <trkpt lat="44.84798" lon="5.73621">
        <ele>753</ele>
        <time>2019-05-10T17:02:03Z</time>
      </trkpt>
      <trkpt lat="44.8471" lon="5.73481">
        <ele>757</ele>
        <time>2019-05-10T17:03:03Z</time>
      </trkpt>
      <trkpt lat="44.847" lon="5.73422">
        <ele>760</ele>
        <time>2019-05-10T17:04:03Z</time>
      </trkpt>
      <trkpt lat="44.84646" lon="5.73343">
        <ele>766</ele>
        <time>2019-05-10T17:05:03Z</time>
      </trkpt>
      <trkpt lat="44.84608" lon="5.73113">
        <ele>778</ele>
        <time>2019-05-10T17:06:03Z</time>
      </trkpt>
      <trkpt lat="44.84577" lon="5.72904">
        <ele>789</ele>
        <time>2019-05-10T17:07:03Z</time>
      </trkpt>
      <trkpt lat="44.84538" lon="5.72815">
        <ele>794</ele>
        <time>2019-05-10T17:08:03Z</time>
      </trkpt>
      <trkpt lat="44.84538" lon="5.72626">
        <ele>813</ele>
        <time>2019-05-10T17:09:03Z</time>
      </trkpt>
      <trkpt lat="44.84581" lon="5.72567">
        <ele>822</ele>
        <time>2019-05-10T17:10:03Z</time>
      </trkpt>
      <trkpt lat="44.84571" lon="5.72541">
        <ele>824</ele>
        <time>2019-05-10T17:11:03Z</time>
      </trkpt>
      <trkpt lat="44.84537" lon="5.72559">
        <ele>819</ele>
        <time>2019-05-10T17:12:03Z</time>
      </trkpt>
      <trkpt lat="44.84474" lon="5.72554">
        <ele>817</ele>
        <time>2019-05-10T17:13:03Z</time>
      </trkpt>
      <trkpt lat="44.84422" lon="5.72529">
        <ele>819</ele>
        <time>2019-05-10T17:14:03Z</time>
      </trkpt>
      <trkpt lat="44.84384" lon="5.72452">
        <ele>829</ele>
        <time>2019-05-10T17:15:03Z</time>
      </trkpt>
      <trkpt lat="44.84342" lon="5.72388">
        <ele>835</ele>
        <time>2019-05-10T17:16:03Z</time>
      </trkpt>
      <trkpt lat="44.84324" lon="5.7235">
        <ele>839</ele>
        <time>2019-05-10T17:17:03Z</time>
      </trkpt>
      <trkpt lat="44.84321" lon="5.72281">
        <ele>843</ele>
        <time>2019-05-10T17:18:03Z</time>
      </trkpt>
      <trkpt lat="44.84283" lon="5.72343">
        <ele>841</ele>
        <time>2019-05-10T17:19:03Z</time>
      </trkpt>
      <trkpt lat="44.84212" lon="5.72312">
        <ele>845</ele>
        <time>2019-05-10T17:20:03Z</time>
      </trkpt>
      <trkpt lat="44.84145" lon="5.72248">
        <ele>849</ele>
        <time>2019-05-10T17:21:03Z</time>
      </trkpt>
      <trkpt lat="44.84074" lon="5.72151">
        <ele>853</ele>
        <time>2019-05-10T17:22:03Z</time>
      </trkpt>
      <trkpt lat="44.84026" lon="5.72059">
        <ele>856</ele>
        <time>2019-05-10T17:23:03Z</time>
      </trkpt>
      <trkpt lat="44.83965" lon="5.71978">
        <ele>856</ele>
        <time>2019-05-10T17:24:03Z</time>
      </trkpt>
      <trkpt lat="44.83876" lon="5.71921">
        <ele>856</ele>
        <time>2019-05-10T17:25:03Z</time>
      </trkpt>
      <trkpt lat="44.83744" lon="5.71863">
        <ele>853</ele>
        <time>2019-05-10T17:26:03Z</time>
      </trkpt>
      <trkpt lat="44.83662" lon="5.71857">
        <ele>850</ele>
        <time>2019-05-10T17:27:03Z</time>
      </trkpt>
      <trkpt lat="44.83537" lon="5.71847">
        <ele>847</ele>
        <time>2019-05-10T17:28:03Z</time>
      </trkpt>
      <trkpt lat="44.83402" lon="5.71746">
        <ele>843</ele>
        <time>2019-05-10T17:29:03Z</time>
      </trkpt>
      <trkpt lat="44.83268" lon="5.71697">
        <ele>836</ele>
        <time>2019-05-10T17:30:03Z</time>
      </trkpt>
      <trkpt lat="44.83069" lon="5.71692">
        <ele>823</ele>
        <time>2019-05-10T17:31:03Z</time>
      </trkpt>
      <trkpt lat="44.83001" lon="5.71747">
        <ele>824</ele>
        <time>2019-05-10T17:32:03Z</time>
      </trkpt>
      <trkpt lat="44.82944" lon="5.71697">
        <ele>815</ele>
        <time>2019-05-10T17:33:03Z</time>
      </trkpt>
      <trkpt lat="44.82766" lon="5.71685">
        <ele>804</ele>
        <time>2019-05-10T17:34:03Z</time>
      </trkpt>
      <trkpt lat="44.82668" lon="5.71688">
        <ele>802</ele>
        <time>2019-05-10T17:35:03Z</time>
      </trkpt>
      <trkpt lat="44.82586" lon="5.71542">
        <ele>786</ele>
        <time>2019-05-10T17:36:03Z</time>
      </trkpt>
      <trkpt lat="44.82352" lon="5.71534">
        <ele>784</ele>
        <time>2019-05-10T17:37:03Z</time>
      </trkpt>
      <trkpt lat="44.82264" lon="5.71349">
        <ele>797</ele>
        <time>2019-05-10T17:38:03Z</time>
      </trkpt>
      <trkpt lat="44.82273" lon="5.7107">
        <ele>757</ele>
        <time>2019-05-10T17:39:03Z</time>
      </trkpt>
      <trkpt lat="44.82236" lon="5.7092">
        <ele>749</ele>
        <time>2019-05-10T17:40:03Z</time>
      </trkpt>
      <trkpt lat="44.82124" lon="5.70632">
        <ele>748</ele>
        <time>2019-05-10T17:41:03Z</time>
      </trkpt>
      <trkpt lat="44.81993" lon="5.7036">
        <ele>726</ele>
        <time>2019-05-10T17:42:03Z</time>
      </trkpt>
      <trkpt lat="44.81993" lon="5.69934">
        <ele>715</ele>
        <time>2019-05-10T17:43:03Z</time>
      </trkpt>
      <trkpt lat="44.81783" lon="5.69674">
        <ele>704</ele>
        <time>2019-05-10T17:44:03Z</time>
      </trkpt>
      <trkpt lat="44.81885" lon="5.69393">
        <ele>714</ele>
        <time>2019-05-10T17:45:03Z</time>
      </trkpt>
      <trkpt lat="44.81762" lon="5.69292">
        <ele>691</ele>
        <time>2019-05-10T17:46:03Z</time>
      </trkpt>
      <trkpt lat="44.81921" lon="5.68946">
        <ele>689</ele>
        <time>2019-05-10T17:47:03Z</time>
      </trkpt>
      <trkpt lat="44.82151" lon="5.68635">
        <ele>688</ele>
        <time>2019-05-10T17:48:03Z</time>
      </trkpt>
      <trkpt lat="44.82397" lon="5.68635">
        <ele>694</ele>
        <time>2019-05-10T17:49:03Z</time>
      </trkpt>
      <trkpt lat="44.82541" lon="5.68361">
        <ele>699</ele>
        <time>2019-05-10T17:50:03Z</time>
      </trkpt>
      <trkpt lat="44.82494" lon="5.68195">
        <ele>700</ele>
        <time>2019-05-10T17:51:03Z</time>
      </trkpt>
      <trkpt lat="44.82587" lon="5.67877">
        <ele>697</ele>
        <time>2019-05-10T17:52:03Z</time>
      </trkpt>
      <trkpt lat="44.82633" lon="5.67639">
        <ele>678</ele>
        <time>2019-05-10T17:53:03Z</time>
      </trkpt>
      <trkpt lat="44.82505" lon="5.67524">
        <ele>660</ele>
        <time>2019-05-10T17:54:03Z</time>
      </trkpt>
      <trkpt lat="44.82464" lon="5.67437">
        <ele>648</ele>
        <time>2019-05-10T17:55:03Z</time>
      </trkpt>
      <trkpt lat="44.82447" lon="5.67042">
        <ele>606</ele>
        <time>2019-05-10T17:56:03Z</time>
      </trkpt>
      <trkpt lat="44.82279" lon="5.67266">
        <ele>598</ele>
        <time>2019-05-10T17:57:03Z</time>
      </trkpt>
      <trkpt lat="44.82369" lon="5.67075">
        <ele>596</ele>
        <time>2019-05-10T17:58:03Z</time>
      </trkpt>
      <trkpt lat="44.82438" lon="5.66978">
        <ele>593</ele>
        <time>2019-05-10T17:59:03Z</time>
      </trkpt>
      <trkpt lat="44.82539" lon="5.66951">
        <ele>592</ele>
        <time>2019-05-10T18:00:03Z</time>
      </trkpt>
      <trkpt lat="44.82614" lon="5.67054">
        <ele>599</ele>
        <time>2019-05-10T18:01:03Z</time>
      </trkpt>
      <trkpt lat="44.82657" lon="5.67154">
        <ele>608</ele>
        <time>2019-05-10T18:02:03Z</time>
      </trkpt>
      <trkpt lat="44.82767" lon="5.67187">
        <ele>604</ele>
        <time>2019-05-10T18:03:03Z</time>
      </trkpt>
      <trkpt lat="44.82789" lon="5.67299">
        <ele>620</ele>
        <time>2019-05-10T18:04:03Z</time>
      </trkpt>
      <trkpt lat="44.82825" lon="5.67375">
        <ele>627</ele>
        <time>2019-05-10T18:05:03Z</time>
      </trkpt>
      <trkpt lat="44.82888" lon="5.67342">
        <ele>627</ele>
        <time>2019-05-10T18:06:03Z</time>
      </trkpt>
      <trkpt lat="44.83019" lon="5.67175">
        <ele>626</ele>
        <time>2019-05-10T18:07:03Z</time>
      </trkpt>
      <trkpt lat="44.83114" lon="5.67208">
        <ele>637</ele>
        <time>2019-05-10T18:08:03Z</time>
      </trkpt>
      <trkpt lat="44.83221" lon="5.67221">
        <ele>635</ele>
        <time>2019-05-10T18:09:03Z</time>
      </trkpt>
      <trkpt lat="44.83301" lon="5.67457">
        <ele>661</ele>
        <time>2019-05-10T18:10:03Z</time>
      </trkpt>
      <trkpt lat="44.83467" lon="5.67475">
        <ele>665</ele>
        <time>2019-05-10T18:11:03Z</time>
      </trkpt>
      <trkpt lat="44.83607" lon="5.67515">
        <ele>681</ele>
        <time>2019-05-10T18:12:03Z</time>
      </trkpt>
      <trkpt lat="44.83755" lon="5.67451">
        <ele>684</ele>
        <time>2019-05-10T18:13:03Z</time>
      </trkpt>
      <trkpt lat="44.83796" lon="5.67424">
        <ele>693</ele>
        <time>2019-05-10T18:14:03Z</time>
      </trkpt>
      <trkpt lat="44.83755" lon="5.67339">
        <ele>692</ele>
        <time>2019-05-10T18:15:03Z</time>
      </trkpt>
      <trkpt lat="44.83632" lon="5.67287">
        <ele>683</ele>
        <time>2019-05-10T18:16:03Z</time>
      </trkpt>
      <trkpt lat="44.8366" lon="5.67236">
        <ele>691</ele>
        <time>2019-05-10T18:17:03Z</time>
      </trkpt>
      <trkpt lat="44.83726" lon="5.67267">
        <ele>695</ele>
        <time>2019-05-10T18:18:03Z</time>
      </trkpt>
      <trkpt lat="44.83788" lon="5.67231">
        <ele>700</ele>
        <time>2019-05-10T18:19:03Z</time>
      </trkpt>
      <trkpt lat="44.83844" lon="5.67195">
        <ele>700</ele>
        <time>2019-05-10T18:20:03Z</time>
      </trkpt>
      <trkpt lat="44.83988" lon="5.67239">
        <ele>701</ele>
        <time>2019-05-10T18:21:03Z</time>
      </trkpt>
      <trkpt lat="44.84084" lon="5.67294">
        <ele>708</ele>
        <time>2019-05-10T18:22:03Z</time>
      </trkpt>
      <trkpt lat="44.84235" lon="5.67141">
        <ele>705</ele>
        <time>2019-05-10T18:23:03Z</time>
      </trkpt>
      <trkpt lat="44.84638" lon="5.67161">
        <ele>720</ele>
        <time>2019-05-10T18:24:03Z</time>
      </trkpt>
      <trkpt lat="44.84874" lon="5.67199">
        <ele>737</ele>
        <time>2019-05-10T18:25:03Z</time>
      </trkpt>
      <trkpt lat="44.8499" lon="5.67181">
        <ele>738</ele>
        <time>2019-05-10T18:26:03Z</time>
      </trkpt>
      <trkpt lat="44.85098" lon="5.67137">
        <ele>735</ele>
        <time>2019-05-10T18:27:03Z</time>
      </trkpt>
      <trkpt lat="44.85217" lon="5.67095">
        <ele>737</ele>
        <time>2019-05-10T18:28:03Z</time>
      </trkpt>
      <trkpt lat="44.85603" lon="5.67176">
        <ele>743</ele>
        <time>2019-05-10T18:29:03Z</time>
      </trkpt>
      <trkpt lat="44.85621" lon="5.6734">
        <ele>744</ele>
        <time>2019-05-10T18:30:03Z</time>
      </trkpt>
      <trkpt lat="44.85659" lon="5.67503">
        <ele>740</ele>
        <time>2019-05-10T18:31:03Z</time>
      </trkpt>
      <trkpt lat="44.85757" lon="5.67591">
        <ele>725</ele>
        <time>2019-05-10T18:32:03Z</time>
      </trkpt>
      <trkpt lat="44.85775" lon="5.67632">
        <ele>725</ele>
        <time>2019-05-10T18:33:03Z</time>
      </trkpt>
      <trkpt lat="44.85771" lon="5.67706">
        <ele>734</ele>
        <time>2019-05-10T18:34:03Z</time>
      </trkpt>
      <trkpt lat="44.85825" lon="5.67736">
        <ele>727</ele>
        <time>2019-05-10T18:35:03Z</time>
      </trkpt>
      <trkpt lat="44.85894" lon="5.67925">
        <ele>726</ele>
        <time>2019-05-10T18:36:03Z</time>
      </trkpt>
      <trkpt lat="44.85913" lon="5.68131">
        <ele>708</ele>
        <time>2019-05-10T18:37:03Z</time>
      </trkpt>
      <trkpt lat="44.85846" lon="5.68201">
        <ele>714</ele>
        <time>2019-05-10T18:38:03Z</time>
      </trkpt>
      <trkpt lat="44.85827" lon="5.68322">
        <ele>700</ele>
        <time>2019-05-10T18:39:03Z</time>
      </trkpt>
      <trkpt lat="44.85973" lon="5.68337">
        <ele>680</ele>
        <time>2019-05-10T18:40:03Z</time>
      </trkpt>
      <trkpt lat="44.86016" lon="5.68301">
        <ele>675</ele>
        <time>2019-05-10T18:41:03Z</time>
      </trkpt>
      <trkpt lat="44.86018" lon="5.68198">
        <ele>674</ele>
        <time>2019-05-10T18:42:03Z</time>
      </trkpt>
      <trkpt lat="44.86119" lon="5.68149">
        <ele>663</ele>
        <time>2019-05-10T18:43:03Z</time>
      </trkpt>
      <trkpt lat="44.86205" lon="5.68088">
        <ele>655</ele>
        <time>2019-05-10T18:44:03Z</time>
      </trkpt>
      <trkpt lat="44.86442" lon="5.67536">
        <ele>621</ele>
        <time>2019-05-10T18:45:03Z</time>
      </trkpt>
      <trkpt lat="44.86482" lon="5.67722">
        <ele>613</ele>
        <time>2019-05-10T18:46:03Z</time>
      </trkpt>
      <trkpt lat="44.8651" lon="5.67713">
        <ele>609</ele>
        <time>2019-05-10T18:47:03Z</time>
      </trkpt>
      <trkpt lat="44.86527" lon="5.67656">
        <ele>606</ele>
        <time>2019-05-10T18:48:03Z</time>
      </trkpt>
      <trkpt lat="44.86582" lon="5.67519">
        <ele>598</ele>
        <time>2019-05-10T18:49:03Z</time>
      </trkpt>
      <trkpt lat="44.86597" lon="5.67377">
        <ele>590</ele>
        <time>2019-05-10T18:50:03Z</time>
      </trkpt>
      <trkpt lat="44.8661" lon="5.67355">
        <ele>586</ele>
        <time>2019-05-10T18:51:03Z</time>
      </trkpt>
      <trkpt lat="44.86642" lon="5.67426">
        <ele>586</ele>
        <time>2019-05-10T18:52:03Z</time>
      </trkpt>
      <trkpt lat="44.86703" lon="5.67587">
        <ele>580</ele>
        <time>2019-05-10T18:53:03Z</time>
      </trkpt>
      <trkpt lat="44.86703" lon="5.6764">
        <ele>581</ele>
        <time>2019-05-10T18:54:03Z</time>
      </trkpt>
      <trkpt lat="44.8671" lon="5.6766">
        <ele>582</ele>
        <time>2019-05-10T18:55:03Z</time>
      </trkpt>
      <trkpt lat="44.86726" lon="5.67647">
        <ele>580</ele>
        <time>2019-05-10T18:56:03Z</time>
      </trkpt>
      <trkpt lat="44.86728" lon="5.67608">
        <ele>578</ele>
        <time>2019-05-10T18:57:03Z</time>
      </trkpt>
      <trkpt lat="44.86728" lon="5.67579">
        <ele>577</ele>
        <time>2019-05-10T18:58:03Z</time>
      </trkpt>
      <trkpt lat="44.86716" lon="5.67505">
        <ele>577</ele>
        <time>2019-05-10T18:59:03Z</time>
      </trkpt>
      <trkpt lat="44.8672" lon="5.67442">
        <ele>576</ele>
        <time>2019-05-10T19:00:03Z</time>
      </trkpt>
      <trkpt lat="44.86731" lon="5.67474">
        <ele>575</ele>
        <time>2019-05-10T19:01:03Z</time>
      </trkpt>
      <trkpt lat="44.86792" lon="5.6746">
        <ele>579</ele>
        <time>2019-05-10T19:02:03Z</time>
      </trkpt>
      <trkpt lat="44.86847" lon="5.67398">
        <ele>581</ele>
        <time>2019-05-10T19:03:03Z</time>
      </trkpt>
      <trkpt lat="44.86905" lon="5.674">
        <ele>579</ele>
        <time>2019-05-10T19:04:03Z</time>
      </trkpt>
      <trkpt lat="44.86991" lon="5.67415">
        <ele>578</ele>
        <time>2019-05-10T19:05:03Z</time>
      </trkpt>
      <trkpt lat="44.87036" lon="5.67404">
        <ele>550</ele>
        <time>2019-05-10T19:06:03Z</time>
      </trkpt>
      <trkpt lat="44.87036" lon="5.67461">
        <ele>562</ele>
        <time>2019-05-10T19:07:03Z</time>
      </trkpt>
      <trkpt lat="44.87044" lon="5.67528">
        <ele>563</ele>
        <time>2019-05-10T19:08:03Z</time>
      </trkpt>
      <trkpt lat="44.87037" lon="5.67584">
        <ele>567</ele>
        <time>2019-05-10T19:09:03Z</time>
      </trkpt>
      <trkpt lat="44.87075" lon="5.67608">
        <ele>548</ele>
        <time>2019-05-10T19:10:03Z</time>
      </trkpt>
      <trkpt lat="44.8708" lon="5.67643">
        <ele>546</ele>
        <time>2019-05-10T19:11:03Z</time>
      </trkpt>
      <trkpt lat="44.87112" lon="5.67648">
        <ele>528</ele>
        <time>2019-05-10T19:12:03Z</time>
      </trkpt>
      <trkpt lat="44.87281" lon="5.67721">
        <ele>511</ele>
        <time>2019-05-10T19:13:03Z</time>
      </trkpt>
      <trkpt lat="44.87283" lon="5.67673">
        <ele>523</ele>
        <time>2019-05-10T19:14:03Z</time>
      </trkpt>
      <trkpt lat="44.8733" lon="5.67651">
        <ele>555</ele>
        <time>2019-05-10T19:15:03Z</time>
      </trkpt>
      <trkpt lat="44.87441" lon="5.67701">
        <ele>562</ele>
        <time>2019-05-10T19:16:03Z</time>
      </trkpt>
      <trkpt lat="44.87504" lon="5.67696">
        <ele>569</ele>
        <time>2019-05-10T19:17:03Z</time>
      </trkpt>
      <trkpt lat="44.8761" lon="5.67716">
        <ele>563</ele>
        <time>2019-05-10T19:18:03Z</time>
      </trkpt>
      <trkpt lat="44.87708" lon="5.67719">
        <ele>565</ele>
        <time>2019-05-10T19:19:03Z</time>
      </trkpt>
      <trkpt lat="44.87841" lon="5.67698">
        <ele>562</ele>
        <time>2019-05-10T19:20:03Z</time>
      </trkpt>
      <trkpt lat="44.87971" lon="5.67667">
        <ele>563</ele>
        <time>2019-05-10T19:21:03Z</time>
      </trkpt>
      <trkpt lat="44.88009" lon="5.67626">
        <ele>571</ele>
        <time>2019-05-10T19:22:03Z</time>
      </trkpt>
      <trkpt lat="44.88123" lon="5.67581">
        <ele>563</ele>
        <time>2019-05-10T19:23:03Z</time>
      </trkpt>
      <trkpt lat="44.88274" lon="5.67568">
        <ele>542</ele>
        <time>2019-05-10T19:24:03Z</time>
      </trkpt>
      <trkpt lat="44.88354" lon="5.67501">
        <ele>539</ele>
        <time>2019-05-10T19:25:03Z</time>
      </trkpt>
      <trkpt lat="44.88491" lon="5.67465">
        <ele>533</ele>
        <time>2019-05-10T19:26:03Z</time>
      </trkpt>
      <trkpt lat="44.88529" lon="5.67429">
        <ele>536</ele>
        <time>2019-05-10T19:27:03Z</time>
      </trkpt>
      <trkpt lat="44.88662" lon="5.67409">
        <ele>531</ele>
        <time>2019-05-10T19:28:03Z</time>
      </trkpt>
      <trkpt lat="44.88819" lon="5.67366">
        <ele>530</ele>
        <time>2019-05-10T19:29:03Z</time>
      </trkpt>
      <trkpt lat="44.88888" lon="5.67351">
        <ele>528</ele>
        <time>2019-05-10T19:30:03Z</time>
      </trkpt>
      <trkpt lat="44.88963" lon="5.67333">
        <ele>530</ele>
        <time>2019-05-10T19:31:03Z</time>
      </trkpt>
      <trkpt lat="44.89092" lon="5.67328">
        <ele>536</ele>
        <time>2019-05-10T19:32:03Z</time>
      </trkpt>
      <trkpt lat="44.892" lon="5.67297">
        <ele>545</ele>
        <time>2019-05-10T19:33:03Z</time>
      </trkpt>
      <trkpt lat="44.89292" lon="5.67304">
        <ele>538</ele>
        <time>2019-05-10T19:34:03Z</time>
      </trkpt>
      <trkpt lat="44.89453" lon="5.67252">
        <ele>544</ele>
        <time>2019-05-10T19:35:03Z</time>
      </trkpt>
      <trkpt lat="44.8954" lon="5.67234">
        <ele>539</ele>
        <time>2019-05-10T19:36:03Z</time>
      </trkpt>
      <trkpt lat="44.89579" lon="5.67203">
        <ele>540</ele>
        <time>2019-05-10T19:37:03Z</time>
      </trkpt>
      <trkpt lat="44.89627" lon="5.67225">
        <ele>535</ele>
        <time>2019-05-10T19:38:03Z</time>
      </trkpt>
      <trkpt lat="44.89678" lon="5.67212">
        <ele>536</ele>
        <time>2019-05-10T19:39:03Z</time>
      </trkpt>
      <trkpt lat="44.89811" lon="5.67156">
        <ele>540</ele>
        <time>2019-05-10T19:40:03Z</time>
      </trkpt>
      <trkpt lat="44.89932" lon="5.67097">
        <ele>546</ele>
        <time>2019-05-10T19:41:03Z</time>
      </trkpt>
      <trkpt lat="44.90012" lon="5.6705">
        <ele>550</ele>
        <time>2019-05-10T19:42:03Z</time>
      </trkpt>
      <trkpt lat="44.90068" lon="5.67039">
        <ele>544</ele>
        <time>2019-05-10T19:43:03Z</time>
      </trkpt>
      <trkpt lat="44.90168" lon="5.66969">
        <ele>551</ele>
        <time>2019-05-10T19:44:03Z</time>
      </trkpt>
      <trkpt lat="44.90261" lon="5.66976">
        <ele>546</ele>
        <time>2019-05-10T19:45:03Z</time>
      </trkpt>
      <trkpt lat="44.90293" lon="5.66929">
        <ele>554</ele>
        <time>2019-05-10T19:46:03Z</time>
      </trkpt>
      <trkpt lat="44.90343" lon="5.66904">
        <ele>557</ele>
        <time>2019-05-10T19:47:03Z</time>
      </trkpt>
      <trkpt lat="44.90389" lon="5.6687">
        <ele>563</ele>
        <time>2019-05-10T19:48:03Z</time>
      </trkpt>
      <trkpt lat="44.90444" lon="5.66879">
        <ele>556</ele>
        <time>2019-05-10T19:49:03Z</time>
      </trkpt>
      <trkpt lat="44.90583" lon="5.66826">
        <ele>562</ele>
        <time>2019-05-10T19:50:03Z</time>
      </trkpt>
      <trkpt lat="44.90724" lon="5.66794">
        <ele>568</ele>
        <time>2019-05-10T19:51:03Z</time>
      </trkpt>
      <trkpt lat="44.90849" lon="5.66797">
        <ele>564</ele>
        <time>2019-05-10T19:52:03Z</time>
      </trkpt>
      <trkpt lat="44.90902" lon="5.6672">
        <ele>575</ele>
        <time>2019-05-10T19:53:03Z</time>
      </trkpt>
      <trkpt lat="44.91051" lon="5.66621">
        <ele>583</ele>
        <time>2019-05-10T19:54:03Z</time>
      </trkpt>
      <trkpt lat="44.91139" lon="5.66606">
        <ele>576</ele>
        <time>2019-05-10T19:55:03Z</time>
      </trkpt>
      <trkpt lat="44.91157" lon="5.66474">
        <ele>588</ele>
        <time>2019-05-10T19:56:03Z</time>
      </trkpt>
      <trkpt lat="44.91225" lon="5.66341">
        <ele>590</ele>
        <time>2019-05-10T19:57:03Z</time>
      </trkpt>
      <trkpt lat="44.91295" lon="5.6626">
        <ele>591</ele>
        <time>2019-05-10T19:58:03Z</time>
      </trkpt>
      <trkpt lat="44.91314" lon="5.66146">
        <ele>599</ele>
        <time>2019-05-10T19:59:03Z</time>
      </trkpt>
      <trkpt lat="44.91301" lon="5.66059">
        <ele>606</ele>
        <time>2019-05-10T20:00:03Z</time>
      </trkpt>
      <trkpt lat="44.91253" lon="5.65946">
        <ele>612</ele>
        <time>2019-05-10T20:01:03Z</time>
      </trkpt>
      <trkpt lat="44.91207" lon="5.6585">
        <ele>618</ele>
        <time>2019-05-10T20:02:03Z</time>
      </trkpt>
      <trkpt lat="44.91224" lon="5.658">
        <ele>612</ele>
        <time>2019-05-10T20:03:03Z</time>
      </trkpt>
      <trkpt lat="44.91316" lon="5.65684">
        <ele>615</ele>
        <time>2019-05-10T20:04:03Z</time>
      </trkpt>
      <trkpt lat="44.91291" lon="5.65653">
        <ele>617</ele>
        <time>2019-05-10T20:05:03Z</time>
      </trkpt>
      <trkpt lat="44.91248" lon="5.65661">
        <ele>615</ele>
        <time>2019-05-10T20:06:03Z</time>
      </trkpt>
      <trkpt lat="44.91216" lon="5.65684">
        <ele>615</ele>
        <time>2019-05-10T20:07:03Z</time>
      </trkpt>
      <trkpt lat="44.91169" lon="5.65594">
        <ele>621</ele>
        <time>2019-05-10T20:08:03Z</time>
      </trkpt>
      <trkpt lat="44.91106" lon="5.65585">
        <ele>628</ele>
        <time>2019-05-10T20:09:03Z</time>
      </trkpt>
      <trkpt lat="44.91031" lon="5.65567">
        <ele>638</ele>
        <time>2019-05-10T20:10:03Z</time>
      </trkpt>
      <trkpt lat="44.90971" lon="5.65565">
        <ele>642</ele>
        <time>2019-05-10T20:11:03Z</time>
      </trkpt>
      <trkpt lat="44.9089" lon="5.65601">
        <ele>649</ele>
        <time>2019-05-10T20:12:03Z</time>
      </trkpt>
      <trkpt lat="44.90838" lon="5.65587">
        <ele>655</ele>
        <time>2019-05-10T20:13:03Z</time>
      </trkpt>
      <trkpt lat="44.90833" lon="5.65643">
        <ele>671</ele>
        <time>2019-05-10T20:14:03Z</time>
      </trkpt>
      <trkpt lat="44.9107" lon="5.65913">
        <ele>688</ele>
        <time>2019-05-10T20:15:03Z</time>
      </trkpt>
      <trkpt lat="44.91123" lon="5.6602">
        <ele>687</ele>
        <time>2019-05-10T20:16:03Z</time>
      </trkpt>
      <trkpt lat="44.91029" lon="5.66074">
        <ele>716</ele>
        <time>2019-05-10T20:17:03Z</time>
      </trkpt>
      <trkpt lat="44.91" lon="5.66128">
        <ele>716</ele>
        <time>2019-05-10T20:18:03Z</time>
      </trkpt>
      <trkpt lat="44.90974" lon="5.66175">
        <ele>714</ele>
        <time>2019-05-10T20:19:03Z</time>
      </trkpt>
      <trkpt lat="44.90956" lon="5.66168">
        <ele>725</ele>
        <time>2019-05-10T20:20:03Z</time>
      </trkpt>
      <trkpt lat="44.90982" lon="5.6611">
        <ele>730</ele>
        <time>2019-05-10T20:21:03Z</time>
      </trkpt>
      <trkpt lat="44.9101" lon="5.66002">
        <ele>732</ele>
        <time>2019-05-10T20:22:03Z</time>
      </trkpt>
      <trkpt lat="44.90765" lon="5.658">
        <ele>771</ele>
        <time>2019-05-10T20:23:03Z</time>
      </trkpt>
      <trkpt lat="44.90724" lon="5.65765">
        <ele>765</ele>
        <time>2019-05-10T20:24:03Z</time>
      </trkpt>
      <trkpt lat="44.90659" lon="5.65798">
        <ele>797</ele>
        <time>2019-05-10T20:25:03Z</time>
      </trkpt>
      <trkpt lat="44.90615" lon="5.6576">
        <ele>799</ele>
        <time>2019-05-10T20:26:03Z</time>
      </trkpt>
      <trkpt lat="44.90551" lon="5.65691">
        <ele>796</ele>
        <time>2019-05-10T20:27:03Z</time>
      </trkpt>
      <trkpt lat="44.90507" lon="5.6567">
        <ele>799</ele>
        <time>2019-05-10T20:28:03Z</time>
      </trkpt>
      <trkpt lat="44.90436" lon="5.65686">
        <ele>808</ele>
        <time>2019-05-10T20:29:03Z</time>
      </trkpt>
      <trkpt lat="44.90379" lon="5.65699">
        <ele>815</ele>
        <time>2019-05-10T20:30:03Z</time>
      </trkpt>
      <trkpt lat="44.90326" lon="5.65724">
        <ele>825</ele>
        <time>2019-05-10T20:31:03Z</time>
      </trkpt>
      <trkpt lat="44.90293" lon="5.65754">
        <ele>837</ele>
        <time>2019-05-10T20:32:03Z</time>
      </trkpt>
      <trkpt lat="44.90186" lon="5.65552">
        <ele>814</ele>
        <time>2019-05-10T20:33:03Z</time>
      </trkpt>
      <trkpt lat="44.90126" lon="5.65525">
        <ele>814</ele>
        <time>2019-05-10T20:34:03Z</time>
      </trkpt>
      <trkpt lat="44.90091" lon="5.65511">
        <ele>813</ele>
        <time>2019-05-10T20:35:03Z</time>
      </trkpt>
      <trkpt lat="44.90054" lon="5.65441">
        <ele>809</ele>
        <time>2019-05-10T20:36:03Z</time>
      </trkpt>
      <trkpt lat="44.90031" lon="5.65383">
        <ele>803</ele>
        <time>2019-05-10T20:37:03Z</time>
      </trkpt>
      <trkpt lat="44.89988" lon="5.6537">
        <ele>806</ele>
        <time>2019-05-10T20:38:03Z</time>
      </trkpt>
      <trkpt lat="44.89928" lon="5.65374">
        <ele>808</ele>
        <time>2019-05-10T20:39:03Z</time>
      </trkpt>
      <trkpt lat="44.89783" lon="5.65282">
        <ele>811</ele>
        <time>2019-05-10T20:40:03Z</time>
      </trkpt>
      <trkpt lat="44.89776" lon="5.65266">
        <ele>811</ele>
        <time>2019-05-10T20:41:03Z</time>
      </trkpt>
      <trkpt lat="44.89802" lon="5.65235">
        <ele>808</ele>
        <time>2019-05-10T20:42:03Z</time>
      </trkpt>
      <trkpt lat="44.89854" lon="5.65109">
        <ele>812</ele>
        <time>2019-05-10T20:43:03Z</time>
      </trkpt>
      <trkpt lat="44.89859" lon="5.65045">
        <ele>820</ele>
        <time>2019-05-10T20:44:03Z</time>
      </trkpt>
      <trkpt lat="44.89861" lon="5.64946">
        <ele>829</ele>
        <time>2019-05-10T20:45:03Z</time>
      </trkpt>
      <trkpt lat="44.89864" lon="5.6484">
        <ele>831</ele>
        <time>2019-05-10T20:46:03Z</time>
      </trkpt>
      <trkpt lat="44.89882" lon="5.64805">
        <ele>830</ele>
        <time>2019-05-10T20:47:03Z</time>
      </trkpt>
      <trkpt lat="44.8993" lon="5.64784">
        <ele>832</ele>
        <time>2019-05-10T20:48:03Z</time>
      </trkpt>
      <trkpt lat="44.89988" lon="5.64856">
        <ele>838</ele>
        <time>2019-05-10T20:49:03Z</time>
      </trkpt>
      <trkpt lat="44.90063" lon="5.64905">
        <ele>848</ele>
        <time>2019-05-10T20:50:03Z</time>
      </trkpt>
      <trkpt lat="44.90155" lon="5.64937">
        <ele>853</ele>
        <time>2019-05-10T20:51:03Z</time>
      </trkpt>
      <trkpt lat="44.90233" lon="5.64923">
        <ele>856</ele>
        <time>2019-05-10T20:52:03Z</time>
      </trkpt>
      <trkpt lat="44.90211" lon="5.64908">
        <ele>863</ele>
        <time>2019-05-10T20:53:03Z</time>
      </trkpt>
      <trkpt lat="44.90154" lon="5.64894">
        <ele>870</ele>
        <time>2019-05-10T20:54:03Z</time>
      </trkpt>
      <trkpt lat="44.90098" lon="5.64845">
        <ele>879</ele>
        <time>2019-05-10T20:55:03Z</time>
      </trkpt>
      <trkpt lat="44.90062" lon="5.64802">
        <ele>879</ele>
        <time>2019-05-10T20:56:03Z</time>
      </trkpt>
      <trkpt lat="44.9004" lon="5.64751">
        <ele>881</ele>
        <time>2019-05-10T20:57:03Z</time>
      </trkpt>
      <trkpt lat="44.90039" lon="5.64704">
        <ele>894</ele>
        <time>2019-05-10T20:58:03Z</time>
      </trkpt>
      <trkpt lat="44.90013" lon="5.64666">
        <ele>893</ele>
        <time>2019-05-10T20:59:03Z</time>
      </trkpt>
      <trkpt lat="44.89985" lon="5.64562">
        <ele>899</ele>
        <time>2019-05-10T21:00:03Z</time>
      </trkpt>
      <trkpt lat="44.89974" lon="5.64506">
        <ele>901</ele>
        <time>2019-05-10T21:01:03Z</time>
      </trkpt>
      <trkpt lat="44.89976" lon="5.64445">
        <ele>901</ele>
        <time>2019-05-10T21:02:03Z</time>
      </trkpt>
      <trkpt lat="44.90025" lon="5.6438">
        <ele>922</ele>
        <time>2019-05-10T21:03:03Z</time>
      </trkpt>
      <trkpt lat="44.90001" lon="5.64327">
        <ele>913</ele>
        <time>2019-05-10T21:04:03Z</time>
      </trkpt>
      <trkpt lat="44.89988" lon="5.64275">
        <ele>917</ele>
        <time>2019-05-10T21:05:03Z</time>
      </trkpt>
      <trkpt lat="44.8999" lon="5.6419">
        <ele>934</ele>
        <time>2019-05-10T21:06:03Z</time>
      </trkpt>
      <trkpt lat="44.89924" lon="5.641">
        <ele>936</ele>
        <time>2019-05-10T21:07:03Z</time>
      </trkpt>
      <trkpt lat="44.89874" lon="5.64017">
        <ele>949</ele>
        <time>2019-05-10T21:08:03Z</time>
      </trkpt>
      <trkpt lat="44.89824" lon="5.63972">
        <ele>948</ele>
        <time>2019-05-10T21:09:03Z</time>
      </trkpt>
      <trkpt lat="44.8973" lon="5.63932">
        <ele>948</ele>
        <time>2019-05-10T21:10:03Z</time>
      </trkpt>
      <trkpt lat="44.89727" lon="5.63913">
        <ele>948</ele>
        <time>2019-05-10T21:11:03Z</time>
      </trkpt>
      <trkpt lat="44.89742" lon="5.63892">
        <ele>947</ele>
        <time>2019-05-10T21:12:03Z</time>
      </trkpt>
      <trkpt lat="44.89789" lon="5.63838">
        <ele>953</ele>
        <time>2019-05-10T21:13:03Z</time>
      </trkpt>
      <trkpt lat="44.89836" lon="5.63787">
        <ele>955</ele>
        <time>2019-05-10T21:14:03Z</time>
      </trkpt>
      <trkpt lat="44.89936" lon="5.63683">
        <ele>953</ele>
        <time>2019-05-10T21:15:03Z</time>
      </trkpt>
      <trkpt lat="44.90002" lon="5.63613">
        <ele>952</ele>
        <time>2019-05-10T21:16:03Z</time>
      </trkpt>
      <trkpt lat="44.90053" lon="5.63527">
        <ele>947</ele>
        <time>2019-05-10T21:17:03Z</time>
      </trkpt>
      <trkpt lat="44.90189" lon="5.63512">
        <ele>944</ele>
        <time>2019-05-10T21:18:03Z</time>
      </trkpt>
      <trkpt lat="44.90308" lon="5.63467">
        <ele>933</ele>
        <time>2019-05-10T21:19:03Z</time>
      </trkpt>
      <trkpt lat="44.90355" lon="5.6343">
        <ele>926</ele>
        <time>2019-05-10T21:20:03Z</time>
      </trkpt>
      <trkpt lat="44.90551" lon="5.6346">
        <ele>906</ele>
        <time>2019-05-10T21:21:03Z</time>
      </trkpt>
      <trkpt lat="44.90618" lon="5.6345">
        <ele>897</ele>
        <time>2019-05-10T21:22:03Z</time>
      </trkpt>
      <trkpt lat="44.9067" lon="5.63381">
        <ele>887</ele>
        <time>2019-05-10T21:23:03Z</time>
      </trkpt>
      <trkpt lat="44.90828" lon="5.63377">
        <ele>875</ele>
        <time>2019-05-10T21:24:03Z</time>
      </trkpt>
      <trkpt lat="44.91019" lon="5.63359">
        <ele>862</ele>
        <time>2019-05-10T21:25:03Z</time>
      </trkpt>
      <trkpt lat="44.91113" lon="5.63342">
        <ele>852</ele>
        <time>2019-05-10T21:26:03Z</time>
      </trkpt>
      <trkpt lat="44.91139" lon="5.63274">
        <ele>849</ele>
        <time>2019-05-10T21:27:03Z</time>
      </trkpt>
    </trkseg>
  </trk>
</gpx>